     2.00           OBSERVATION DATA    G (GPS)             RINEX VERSION / TYPE
teqc 1999Jul15 UNAVCO Archive Ops 19990825 17:13:02UTC      PGM / RUN BY / DATE
Solaris 2.3|S-Sparc|cc SC3.0|=+|*Sparc                      COMMENT
BIT 2 OF LLI FLAGS DATA COLLECTED UNDER A/S CONDITION       COMMENT
AGUE                                                        MARKER NAME
Wernicke, Brian/ BraCaltech                                 OBSERVER / AGENCY
3526A11446 TRIMBLE 4000SSE NP 6.12; SP 2.12                 REC # / TYPE / VERS
0220024341 TR GEOD L1/L2 GP                                 ANT # / TYPE
 -2339608.0000 -4581343.0000  3761313.0000                  APPROX POSITION XYZ
        0.8174        0.0000        0.0000                  ANTENNA: DELTA H/E/N
     1     1                                                WAVELENGTH FACT L1/2
     7    L1    L2    C1    P2    P1    D1    D2            # / TYPES OF OBSERV
    30.0000                                                 INTERVAL
NOTICE: YOUR USE OF THIS FILE IMPLIES YOUR                  COMMENT
ACCEPTANCE OF THE UNAVCO DATA SHARING POLICY                COMMENT
READ THE POLICY AT:                                         COMMENT
http://www.unavco.ucar.edu/data/data_policy.html            COMMENT
AND FOLLOW THE POLICY OR DELETE THIS FILE.                  COMMENT
                                                            COMMENT
RINEX file created by UNAVCO GPS Archive.                   COMMENT
For more information contact archive@unavco.ucar.edu        COMMENT
Monument ID: EJCGWCEP-11093-1995a                           COMMENT
UNAVCO 4-char name: AGUE                                    COMMENT
4-char name from Log or data file: AGUE                     COMMENT
Monument location: 36.3571 -117.0526 1931.603105            COMMENT
Original XYZ: -2339608.3642 -4581337.6136 3761320.9817      COMMENT
New XYZ position is based on association with SCEC monument COMMENT
E1F4T0A1+0011.                                              COMMENT
Visit ID: 28704 RawID: 12591                                COMMENT
Antenna height measured: .907                               COMMENT
Antenna height measured type: S                             COMMENT
Corrected antenna height validated? Y                       COMMENT
If Yes, then logsheet & data file values are identical      COMMENT
End of DB comments                                          COMMENT
SNR is mapped to RINEX snr flag value [1-9]                 COMMENT
L1: 3 -> 1; 8 -> 5; 40 -> 9                                 COMMENT
L2: 1 -> 1; 5 -> 5; 60 -> 9                                 COMMENT
  1996     8    31     2    38    0.0000000     GPS         TIME OF FIRST OBS
                                                            END OF HEADER
 96  8 31  2 38  0.0000000  0  6G14G15G18G22G25G29
   -324969.88057   -227160.20856  20474617.8134   20474617.5204
        -3.6874         -2.8734
    954242.18055    732031.18355  23673712.3594   23673714.0944
     -3808.6724      -2967.7964
   -144382.37655    -10341.87055  23935580.8594   23935579.6994
      2211.5004       1723.2474
   -493531.98456  -1099012.77856  21774651.1724   21774651.3014
      1471.9224       1146.9524
     74620.33655                  22971489.3984
     -3249.4064
   -164647.52157   -104948.77957  21250030.1254   21250028.9774
       491.0634        382.6464
 96  8 31  2 38 30.0000000  0  6G14G15G18G22G25G29
   -324501.72747   -226795.40246  20474706.6804   20474706.3284
       -27.6724        -21.5624
   1068657.72045    821186.12844  23695485.5704   23695487.1294
     -3819.2504      -2976.0394
   -210599.13245    -61939.28844  23922979.9694   23922979.9454
      2202.6724       1716.3684
   -537346.26246  -1133153.73846  21766313.3914   21766313.7074
      1448.6094       1128.7874
    172296.95246     33015.07655  22990076.6254   22990075.9344
     -3262.5944      -2542.2814
   -179196.56547   -116285.67947  21247261.6954   21247260.4414
       478.7664        373.0644
 96  8 31  2 39  0.0000000  0  6G14G15G18G22G25G29
   -323324.16547   -225877.81846  20474930.7274   20474930.4224
       -50.7504        -39.5454
   1183381.19445    910581.01243  23717316.2194   23717317.8594
     -3828.9374      -2983.5884
   -276564.38045   -113340.73443  23910427.1564   23910427.5664
      2195.1724       1710.5244
   -580456.67546  -1166746.23246  21758109.9454   21758109.6054
      1425.3444       1110.6574
    270358.15546    109426.40445  23008737.2194   23008736.7034
     -3274.7814      -2551.7784
   -193389.17147   -127344.82947  21244560.8364   21244559.6174
       467.3754        364.1884
 96  8 31  2 39 30.0000000  0  6G14G15G18G22G25G29
   -321450.06147   -224417.47546  20475287.4224   20475287.3404
       -74.2664        -57.8694
   1298405.19345   1000210.04543  23739204.5784   23739207.0744
     -3839.3594      -2991.7094
   -342299.13145   -164562.54944  23897917.9224   23897918.8954
      2187.1564       1704.2784
   -622852.45546  -1199781.86846  21750042.4694   21750042.5044
      1401.0784       1091.7494
    368790.35546    186126.81245  23027468.7114   23027468.3134
     -3287.2664      -2561.5064
   -207224.46847   -138125.56247  21241928.1644   21241926.8524
       454.8134        354.3994
 96  8 31  2 40  0.0000000  0  6G14G15G18G22G25G29
   -318874.95947   -222410.90146  20475777.6334   20475777.4224
       -97.4064        -75.9014
   1413729.87245   1090073.37245  23761150.1094   23761151.4694
     -3848.8914      -2999.1364
   -407810.62145   -215610.41645  23885451.9774   23885452.3874
      2180.1884       1698.8474
   -664537.32146  -1232263.54446  21742109.9614   21742109.8094
      1377.9384       1073.7184
    467581.73646    263107.11545  23046267.6174   23046267.3244
     -3298.7974      -2570.4914
   -220683.09747   -148612.78447  21239367.2894   21239366.1414
       442.5784        344.8664
 96  8 31  2 40 30.0000000  0  6G14G15G18G22G25G29
   -315612.16447   -219868.46446  20476398.1174   20476397.8134
      -119.8594        -93.3974
   1529326.45945   1180148.60344  23783147.6334   23783149.7074
     -3857.2034      -3005.6134
   -473124.05845   -266503.97043  23873023.0864   23873023.1804
      2174.3284       1694.2824
   -705539.52446  -1264213.27546  21734307.4144   21734307.5784
      1355.8914       1056.5384
    566700.46046    340342.47945  23065128.7584   23065128.0084
     -3308.7194      -2578.2224
   -233790.45547   -158826.29447  21236872.9694   21236871.6454
       431.5314        336.2584
 96  8 31  2 41  0.0000000  0  6G14G15G18G22G25G29
   -311678.32347   -216803.12346  20477146.9534   20477146.7664
      -142.4224       -110.9784
   1645160.14245   1270408.55943  23805190.7194   23805193.3554
     -3865.0784      -3011.7494
   -538270.88845   -317267.68444  23860626.2814   23860626.8914
      2168.8754       1690.0324
   -745898.62346  -1295661.88446  21726627.1254   21726627.3484
      1334.9224       1040.1994
    666103.83146    417799.64145  23084044.7894   23084044.2274
     -3318.0474      -2585.4914
   -246572.68447   -168786.45347  21234440.3914   21234439.3714
       420.5784        327.7234
 96  8 31  2 41 30.0000000  0  6G14G15G18G22G25G29
   -307046.81247   -213194.14446  20478028.1334   20478028.0274
      -165.9224       -129.2904
   1761248.09245   1360866.64645  23827281.2424   23827282.7774
     -3873.6094      -3018.3974
   -603237.44345   -367890.93345  23848263.3834   23848264.7544
      2162.6254       1685.1624
   -785619.13946  -1326612.88846  21719068.7894   21719068.8484
      1313.6414       1023.6164
    765801.08546    495485.81645  23103016.8834   23103016.6844
     -3327.9374      -2593.1984
   -259003.95347   -178473.14047  21232074.7734   21232073.6604
       408.6414        318.4214
 96  8 31  2 42  0.0000000  0  6G14G15G18G22G25G29
   -301714.27247   -209038.90946  20479043.3364   20479043.2544
      -189.6094       -147.7484
   1877580.81745   1451515.47145  23849419.2194   23849420.5204
     -3881.8594      -3024.8254
   -668018.65445   -418369.77243  23835935.5784   23835935.7074
      2155.8594       1679.8904
   -824714.66646  -1357076.90146  21711628.7734   21711628.7624
      1292.6254       1007.2404
    865782.04646    573393.05645  23122042.3914   23122041.8284
     -3337.5784      -2600.7104
   -271098.07747   -187897.12447  21229773.2734   21229772.1844
       397.7504        309.9354
 96  8 31  2 42 30.0000000  0  6G14G15G18G22G25G29
   -295671.76947   -204330.45846  20480193.0004   20480192.8834
      -213.0784       -166.0354
   1994156.21545   1542353.37043  23871602.2974   23871605.0514
     -3889.7194      -3030.9504
   -732587.76545   -468683.36445  23823648.6484   23823648.9534
      2148.8754       1674.4484
   -863167.12446  -1387039.82446  21704311.7664   21704311.5904
      1270.8914        990.3044
    966053.42446    651526.60045  23141123.5314   23141124.0004
     -3347.0004      -2608.0524
   -282873.12147   -197072.46747  21227532.6884   21227531.6454
       387.2974        301.7904
 96  8 31  2 43  0.0000000  0  6G14G15G18G22G25G29
   -288932.33947   -199078.94647  20481475.4224   20481475.3634
      -236.1414       -184.0064
   2110965.36245   1633373.44044  23893830.2584   23893832.9184
     -3897.4374      -3036.9644
   -796948.17045   -518834.29545  23811401.0394   23811401.3674
      2141.9844       1669.0794
   -900965.47946  -1416493.04946  21697118.9384   21697118.9384
      1249.0004        973.2474
   1066607.55846    729880.46545  23160258.1094   23160257.6994
     -3356.4374      -2615.4064
   -294335.14747   -206003.90647  21225351.4614   21225350.4534
       376.8444        293.6444
 96  8 31  2 43 30.0000000  0  6G14G15G18G22G25G29
   -281516.79947   -193300.59246  20482886.5944   20482886.3834
      -258.4224       -201.3684
   2227993.22745   1724563.93743  23916099.8674   23916101.8014
     -3904.6414      -3042.5774
   -861106.63645   -568827.90145  23799192.3054   23799191.9064
      2135.1564       1663.7584
   -938104.26047  -1445432.32246  21690051.7894   21690051.7074
      1226.5944        955.7874
   1167428.69546    808442.38545  23179443.9924   23179443.9574
     -3365.1414      -2622.1874
   -305489.21047   -214695.37347  21223228.7664   21223227.8404
       366.6414        285.6944
 96  8 31  2 44  0.0000000  0  6G14G15G18G22G25G29
   -273423.42547   -186994.06046  20484426.7034   20484426.4344
      -281.1094       -219.0464
   2345234.55445   1815920.73644  23938410.5554   23938412.8984
     -3911.4694      -3047.8984
                    -23420.96053  23787023.3984
      2128.2194
   -974554.37346  -1473834.96446  21683115.3594   21683115.1954
      1203.4384        937.7444
   1268515.71146    887211.48945  23198680.3984   23198680.5634
     -3373.9534      -2629.0544
   -316333.42947   -223145.40147  21221165.1644   21221163.9454
       356.2034        277.5614
 96  8 31  2 44 30.0010000  0  6G14G15G18G22G25G29
   -264652.88947   -180159.86646  20486095.6304   20486095.5604
      -303.2974       -236.3354
   2462686.36345   1907441.57745  23960761.0364   23960760.9894
     -3918.1094      -3053.0724
                    -87169.59745  23774892.6774
      2121.9694
  -1010310.24146  -1501696.65946  21676311.2244   21676311.2004
      1180.5314        919.8944
   1369868.66946    966187.82645  23217967.2314   23217966.1654
     -3382.3594      -2635.6054
   -326858.64547   -231346.87247  21219162.3884   21219161.2044
       345.6564        269.3434
 96  8 31  2 45  0.0010000  0  6G14G15G18G22G25G29
   -255219.70947   -172809.33146  20487890.6774   20487890.6064
      -325.6254       -253.7344
   2580328.42345   1999110.66645  23983147.7784   23983149.1034
     -3924.7034      -3058.2104
   -150735.21445    -47876.59955  23762796.8724   23762797.3644
      2115.7034       1648.6004
  -1045390.15046  -1529031.61746  21669635.5994   21669635.4464
      1158.2034        902.4964
   1471467.08346   1045355.41945  23237300.8804   23237300.5994
     -3390.9374      -2642.2894
   -337068.60547   -239302.68247  21217219.6384   21217218.3254
       334.9694        261.0154
 96  8 31  2 45 30.0010000  0  6G14G15G18G22G25G29
   -245120.67547   -164939.93946  20489812.5674   20489812.5564
      -347.6724       -270.9134
   2698164.13645   2090930.64544  24005570.9274   24005572.9194
     -3930.9844      -3063.1054
   -214113.40345    -97262.16345  23750735.9504   23750736.6774
      2109.5314       1643.7914
  -1079809.41846  -1555851.78846  21663085.5914   21663085.8024
      1136.5474        885.6214
   1573320.65946   1124721.84245  23256682.8254   23256682.6964
     -3399.4694      -2648.9374
   -346961.58447   -247011.49247  21215337.0604   21215335.9464
       324.6414        252.9674
 96  8 31  2 46  0.0010000  0  6G14G15G18G22G25G29
   -234356.75747   -156552.45546  20491860.8334   20491860.6574
      -369.8444       -288.1904
   2816187.73745   2182897.01643  24028030.0834   24028030.9854
     -3937.1254      -3067.8904
   -277310.75245   -146506.82645  23738709.7634   23738710.8294
      2103.6094       1639.1764
  -1113592.29446  -1582176.07246  21656657.1064   21656657.4234
      1115.7814        869.4404
   1675436.50246   1204292.63045  23276115.4034   23276115.1814
     -3408.0784      -2655.6454
   -356547.97247   -254481.40147  21213512.8414   21213511.8104
       314.5944        245.1384
 96  8 31  2 46 30.0010000  0  6G14G15G18G22G25G29
   -222934.60647   -147652.08346  20494034.2784   20494034.1734
      -391.7034       -305.2234
   2934388.81245   2275001.68444  24050522.5364   24050524.3534
     -3943.0474      -3072.5044
   -340331.14445   -195613.57745  23726717.2474   23726718.0214
      2097.6414       1634.5254
  -1146759.93846  -1608020.96846  21650345.5754   21650345.5994
      1095.1884        853.3934
   1777807.67846   1284062.37145  23295594.8724   23295594.7314
     -3416.8594      -2662.4884
   -365843.76647   -261724.88247  21211743.9974   21211742.7554
       305.0314        237.6874
 96  8 31  2 47  0.0010000  0  6G14G15G18G22G25G29
   -210859.89647   -138243.20646  20496331.9744   20496331.8804
      -413.5784       -322.2694
   3052765.62245   2367243.29344  24073049.6384   24073052.1464
     -3949.0784      -3077.2044
   -403174.69045   -244582.53045  23714758.8254   23714758.8844
      2091.4844       1629.7284
  -1179313.56546  -1633387.39346  21644150.9114   21644151.0874
      1074.6884        837.4194
   1880439.96346   1364035.58245  23315126.1384   23315125.6924
     -3425.6724      -2669.3554
   -374850.48047   -268743.09847  21210029.7944   21210028.6694
       294.9694        229.8464
 96  8 31  2 47 30.0010000  0  6G14G15G18G22G25G29
   -198136.77647   -128329.07746  20498753.2164   20498753.0994
      -434.8124       -338.8154
   3171317.28645   2459621.13243  24095609.8024   24095611.6534
     -3954.3754      -3081.3314
   -465841.02645   -293413.39645  23702833.4354   23702833.0364
      2086.1884       1625.6014
  -1211256.84646  -1658278.23146  21638072.1694   21638072.2044
      1054.6254        821.7864
   1983331.57946   1444210.85945  23334705.3334   23334705.3684
     -3433.7344      -2675.6374
   -383552.79447   -275524.12247  21208373.9114   21208372.7744
       285.0944        222.1514
 96  8 31  2 48  0.0010000  0  6G14G15G18G22G25G29
   -184769.66647   -117913.13546  20501296.8884   20501296.8534
      -456.3754       -355.6174
   3290030.15345   2552124.63043  24118199.6464   24118200.9934
     -3959.8754      -3085.6174
   -528350.22445   -342121.81344  23690938.5674   23690938.4624
      2080.9694       1621.5344
  -1242583.62046  -1682688.67246  21632110.8334   21632110.9854
      1033.5474        805.3614
   2086460.44746   1524571.01445  23354330.2084   23354329.8104
     -3441.5624      -2681.7374
   -391954.50847   -282070.90547  21206775.2634   21206774.2434
       274.8914        214.2004
 96  8 31  2 48 30.0010000  0  6G14G15G18G22G25G29
   -170762.62347   -106998.55146  20503962.2714   20503962.1884
      -477.3124       -371.9324
   3408906.99445   2644755.86744  24140821.2634   24140822.1184
     -3965.1564      -3089.7324
   -590703.15245   -390708.46145  23679072.7244   23679073.3214
      2076.0474       1617.6994
  -1273269.51746  -1706599.72946  21626271.3414   21626271.4354
      1012.2034        788.7304
   2189824.93746   1605114.76345  23374000.3334   23373999.7824
     -3449.3754      -2687.8254
   -400046.13947   -288376.07047  21205235.3804   21205234.4314
       264.6094        206.1894
 96  8 31  2 49  0.0010000  0  6G14G15G18G22G25G29
   -156122.17247    -95590.40546  20506748.3174   20506748.1534
      -498.5784       -388.5024
   3527942.33145   2737510.61944  24163472.9354   24163475.2434
     -3970.3594      -3093.7874
   -652903.41345   -439176.14045  23667236.4424   23667236.6654
      2070.7974       1613.6084
  -1303313.83146  -1730010.85946  21620554.2314   21620554.3494
       990.9694        772.1834
   2293418.14646   1685836.72945  23393712.7244   23393711.6104
     -3456.5624      -2693.4254
   -407824.88747   -294437.43047  21203755.3024   21203754.3294
       254.1884        198.0684
 96  8 31  2 49 30.0010000  0  6G14G15G18G22G25G29
   -140837.79847    -83680.50046  20509656.7554   20509656.6494
      -520.2814       -405.4144
   3647130.06745   2830384.08643  24186153.4424   24186154.2044
     -3975.2974      -3097.6344
   -714943.93445   -487519.32445  23655430.3804   23655430.9194
      2065.4534       1609.4444
  -1332709.92547  -1752916.87346  21614960.3024   21614960.1494
       968.7814        754.8944
   2397226.74346   1766726.53345  23413466.7394   23413466.2354
     -3463.7814      -2699.0504
   -415296.03047   -300259.09447  21202333.4354   21202332.4154
       244.2194        190.3004
 96  8 31  2 50  0.0010000  0  6G14G15G18G22G25G29
   -124898.77947    -71260.48746  20512689.8494   20512689.8604
      -542.2664       -422.5454
   3766464.43745   2923371.84043  24208861.8254   24208864.4504
     -3980.2194      -3101.4694
   -776822.53145   -535736.36544  23643655.4744   23643655.8964
      2059.7664       1605.0124
  -1361430.43447  -1775296.46046  21609494.9744   21609495.0094
       946.0164        737.1554
   2501253.69946   1847786.47845  23433263.0674   23433262.4114
     -3471.4694      -2705.0414
   -422479.71547   -305856.76147  21200966.4034   21200965.3024
       234.7504        182.9224
 96  8 31  2 50 30.0010000  0  6G14G15G18G22G25G29
   -108297.62047    -58324.51447  20515849.0364   20515848.9424
      -564.5784       -439.9314
   3885943.30745   3016472.19443  24231598.1854   24231600.9274
     -3984.9224      -3105.1344
   -838522.58745   -583814.28444  23631914.3104   23631914.6264
      2053.5004       1600.1304
  -1389473.94947  -1797148.52046  21604158.4034   21604158.3684
       923.5944        719.6834
   2605518.79646   1929031.99945  23453104.5364   23453103.4934
     -3479.4534      -2711.2624
   -429387.20047   -311239.20847  21199651.9194   21199650.9234
       225.7504        175.9094
 96  8 31  2 51  0.0010000  0  6G14G15G18G22G25G29
    -91012.28547    -44855.41947  20519138.2784   20519138.3494
      -587.6414       -457.9024
   4005561.92744   3109681.43843  24254360.7394   24254362.4034
     -3989.4694      -3108.6774
   -900029.93645   -631742.04045  23620209.9194   23620210.6344
      2047.1564       1595.1874
  -1416845.77847  -1818477.18746  21598949.7314   21598949.5794
       901.3134        702.3214
   2710022.68046   2010463.57445  23472990.3104   23472989.9934
     -3487.3754      -2717.4354
   -436020.91247   -316408.32147  21198389.4814   21198388.2744
       216.6254        168.7994
 96  8 31  2 51 30.0010000  0  6G14G15G18G22G25G29
    -73035.68047    -30847.67147  20522559.2244   20522558.9784
      -610.6254       -475.8124
   4125318.75944   3202998.36943  24277149.5604   24277150.6614
     -3994.1414      -3112.3174
   -961349.38545   -679523.36845  23608541.3024   23608541.3844
      2040.9844       1590.3774
  -1443536.91147  -1839275.44346  21593870.4584   21593870.5054
       878.3134        684.3994
   2814779.50846   2092092.25445  23492925.0604   23492924.8604
     -3496.2344      -2724.3384
   -442376.41147   -321360.64847  21197180.2314   21197179.2124
       207.2194        161.4694
 96  8 31  2 52  0.0010000  0  6G14G15G18G22G25G29
    -54388.50847    -16317.41247  20526107.6694   20526107.5524
      -632.6724       -492.9914
   4245201.82144   3296413.68142  24299962.2554   24299965.6884
     -3998.1724      -3115.4594
  -1022499.75845   -727172.97044  23596904.4274   23596904.7674
      2035.4694       1586.0804
  -1469562.61747  -1859555.17846  21588918.0754   21588918.2864
       856.7344        667.5854
   2919783.97846   2173913.90245  23512906.7164   23512906.5284
     -3504.2194      -2730.5604
   -448456.77047   -326098.57647  21196023.0444   21196022.1774
       197.8594        154.1764
 96  8 31  2 52 30.0010000  0  6G14G15G18G22G25G29
    -35072.53347     -1266.00447  20529783.4274   20529783.2744
      -655.0624       -510.4384
   4365212.71744   3389928.59442  24322799.6694   24322801.7204
     -4002.5624      -3118.8804
  -1083477.81145   -774688.28745  23585301.1064   23585300.6034
      2029.8134       1581.6724
  -1494938.23747  -1879328.36746  21584089.2944   21584089.3414
       835.0314        650.6744
   3025025.22346   2255920.04845  23532933.3254   23532932.8454
     -3511.6414      -2736.3434
   -454235.26447   -330601.28847  21194923.5524   21194922.5214
       187.2034        145.8734
 96  8 31  2 53  0.0010000  0  6G14G15G18G22G25G29
    -15091.84347     14303.36047  20533585.6384   20533585.4854
      -676.9534       -527.4964
   4485346.62044   3483539.35842  24345661.2714   24345662.3724
     -4006.4224      -3121.8874
  -1144303.96645   -822085.25045  23573726.1614   23573725.7164
      2025.1564       1578.0444
  -1519673.30247  -1898602.41246  21579382.3174   21579382.5524
       813.8594        634.1764
   3130470.24046   2338084.96445  23552999.2314   23552999.0324
     -3518.1094      -2741.3844
   -459692.48947   -334853.65647  21193885.0674   21193884.1064
       176.5634        137.5814
 96  8 31  2 53 30.0010000  0  6G14G15G18G22G25G29
      5534.45647     30375.80246  20537510.6464   20537510.5174
      -698.2664       -544.1034
   4605592.76944   3577237.59043  24368542.7784   24368544.5954
     -4010.0314      -3124.7004
  -1204994.08245   -869376.21745  23562177.1064   23562177.2354
      2020.7034       1574.5744
  -1543771.09347  -1917379.88046  21574796.5754   21574796.6694
       792.6724        617.6664
   3236104.87046   2420397.65045  23573100.8024   23573100.3454
     -3524.0624      -2746.0234
   -464831.26747   -338857.88247  21192907.0604   21192906.0874
       165.9064        129.2784
 96  8 31  2 54  0.0010000  0  6G14G15G18G22G25G29
     26802.72047     46948.48247  20541557.8024   20541557.6264
      -719.8444       -560.9174
   4725945.30044   3671018.70942  24391445.3174   24391448.2244
     -4013.5474      -3127.4394
  -1265549.74045   -916562.39745  23550653.3724   23550653.3374
      2016.2814       1571.1284
  -1567243.42247  -1935669.97446  21570329.8334   21570329.8454
       771.9844        601.5464
   3341901.48546   2502836.55545  23593232.7474   23593232.8764
     -3529.1724      -2750.0044
   -469648.15947   -342611.28847  21191990.4034   21191989.4894
       155.1724        120.9134
 96  8 31  2 54 30.0010000  0  6G14G15G18G22G25G29
     48731.00947     64035.45846  20545730.5524   20545730.2354
      -742.1414       -578.2914
   4846403.70844   3764882.34043  24414368.6854   24414370.6304
     -4017.1254      -3130.2274
  -1325975.70745   -963647.53445  23539154.8724   23539155.8804
      2012.0784       1567.8534
  -1590089.99547  -1953472.47046  21565982.4744   21565982.7204
       750.9224        585.1344
   3447857.51946   2585399.67445  23613396.3804   23613396.6734
     -3534.7664      -2754.3634
   -474144.77447   -346115.12747  21191134.6614   21191133.5954
       144.6094        112.6834
 96  8 31  2 55  0.0010000  0  6G14G15G18G22G25G29
     71333.21547     81647.56347  20550031.7944   20550031.4894
      -764.5314       -595.7394
   4966971.99244   3858831.58943  24437311.5914   24437314.1924
     -4020.5944      -3132.9304
  -1386266.36145  -1010627.22745  23527682.2244   23527682.6814
      2007.2034       1564.0544
  -1612294.15347  -1970774.38246  21561757.1144   21561757.1614
       729.4064        568.3694
   3553996.79946   2668105.60045  23633593.0914   23633592.9744
     -3541.1874      -2759.3674
   -478331.77147   -349377.69947  21190338.1144   21190336.9784
       134.8284        105.0614
 96  8 31  2 55 30.0010000  0  6G14G15G18G22G25G29
     94590.94347     99770.47447  20554457.6534   20554457.4314
      -785.9064       -612.3944
   5087632.42344   3952852.66041  24460272.6224   24460275.7284
     -4023.3444      -3135.0734
  -1446413.56645  -1057495.13745  23516235.8804   23516236.5954
      2002.6564       1560.5114
  -1633860.81147  -1987579.54146  21557653.1774   21557653.1304
       708.3914        551.9934
   3660320.71846   2750955.39645  23653825.8964   23653824.7124
     -3546.9064      -2763.8234
   -482236.63447   -352420.43147  21189594.9504   21189593.8134
       125.6254         97.8904
 96  8 31  2 56  0.0010000  0  6G14G15G18G22G25G29
    118504.60547    118404.49447  20559008.3334   20559008.1344
      -808.1724       -629.7444
   5208384.41444   4046945.06542  24483250.4744   24483252.0094
     -4026.5624      -3137.5814
  -1506408.38745  -1104244.30245  23504819.4744   23504819.9314
      1997.1564       1556.2264
  -1654782.45447  -2003882.08746  21553671.5674   21553671.7434
       686.4384        534.8864
   3766827.43246   2833947.61645  23674093.9744   23674093.4584
     -3553.4534      -2768.9254
   -485864.95347   -355247.67747  21188904.5284   21188903.3454
       116.5474         90.8164
 96  8 31  2 56 30.0010000  0  6G14G15G18G22G25G29
    143079.98047    137554.14047  20563684.7784   20563684.4974
      -830.1254       -646.8514
   5329226.05944   4141107.34243  24506246.0214   24506248.9974
     -4029.7034      -3140.0284
  -1566236.59645  -1150863.64845  23493434.5444   23493434.8134
      1991.1254       1551.5264
  -1675037.48347  -2019665.20046  21549817.3024   21549817.2084
       663.6414        517.1234
   3873533.67445   2917095.32045  23694399.2554   23694398.3064
     -3560.3594      -2774.3064
   -489235.01847   -357873.68747  21188263.2714   21188262.2284
       107.8914         84.0714
 96  8 31  2 57  0.0010000  0  6G14G15G18G22G25G29
    168295.99747    157202.99147  20568483.2944   20568483.0364
      -851.0164       -663.1294
   5450153.37544   4235336.35442  24529258.3414   24529259.1494
     -4032.1414      -3141.9284
  -1625881.99045  -1197340.53145  23482084.5444   23482084.3214
      1985.1724       1546.8874
  -1694607.99247  -2034914.92046  21546093.4114   21546093.1654
       641.0474        499.5174
   3980429.17845   3000390.49145  23714741.0674   23714740.9504
     -3566.0004      -2778.7014
   -492347.75447   -360299.17847  21187670.9584   21187669.7984
        99.5164         77.5454
 96  8 31  2 57 30.0010000  0  6G14G15G18G22G25G29
    194143.46247    177343.86847  20573401.8104   20573401.6104
      -872.0784       -679.5414
   5571159.37544   4329626.69043  24552285.1614   24552287.1304
     -4034.7974      -3143.9984
  -1685350.96045  -1243679.93345  23470767.9424   23470768.1424
      1979.7814       1542.6874
  -1713492.59847  -2049630.16646  21542499.5604   21542499.4664
       617.9844        481.5464
   4087492.13545   3083816.15445  23735114.2714   23735113.5324
     -3571.2664      -2782.8044
   -495198.27547   -362520.34747  21187128.3414   21187127.1464
        90.6094         70.6054
 96  8 31  2 58  0.0010000  0  6G14G15G18G22G25G29
    220626.41947    197979.93947  20578441.3494   20578441.0094
      -893.4534       -696.1974
   5692238.80044   4423974.23942  24575326.1924   24575329.0754
     -4037.1254      -3145.8124
  -1744672.43045  -1289904.41945  23459479.0834   23459479.8564
      1975.0944       1539.0344
  -1731686.49047  -2063807.19546  21539037.3024   21539037.3254
       595.0164        463.6494
   4194706.33045   3167359.65545  23755516.5674   23755516.1104
     -3576.3444      -2786.7614
   -497789.42547   -364539.41247  21186635.4034   21186634.0094
        82.0634         63.9454
 96  8 31  2 58 30.0010000  0  5G14G18G22G25G29
    247745.22547    219111.47747  20583602.0054   20583601.7474
      -914.5004       -712.5974
  -1803860.32545  -1336024.81845  23448216.4274   23448216.4624
      1970.7194       1535.6254
  -1749194.79247  -2077450.00146  21535705.5754   21535705.5054
       572.1254        445.8124
   4302071.19145   3251020.55845  23775947.2244   23775946.5214
     -3581.4534      -2790.7434
   -500115.43447   -366351.87747  21186192.8334   21186191.6964
        72.7664         56.7004
 96  8 31  2 59  0.0010000  0  5G14G18G22G25G29
    275509.22947    240745.76246  20588885.4664   20588885.0094
      -936.4844       -729.7284
  -1862913.43545  -1382040.17345  23436978.6144   23436978.4154
      1966.2664       1532.1554
  -1766014.39147  -2090556.15046  21532504.9354   21532505.3454
       549.3914        428.0974
   4409598.05045   3334807.69845  23796409.0754   23796409.5564
     -3586.9534      -2795.0284
   -502143.58047   -367932.23747  21185806.4034   21185805.2784
        62.7664         48.9084
 96  8 31  2 59 30.0010000  0  5G14G18G22G25G29
    303927.73247    262890.05446  20594293.1064   20594292.9784
      -957.9694       -746.4694
  -1921843.92545  -1427959.99645  23425764.5994   23425765.0324
      1962.4064       1529.1484
  -1782168.25047  -2103143.54846  21529431.0444   21529430.9274
       527.6094        411.1244
   4517285.85245   3418720.24045  23816901.0364   23816901.1774
     -3592.1724      -2799.0954
   -503886.78147   -369290.57147  21185475.0364   21185473.6884
        53.5164         41.7004
 96  8 31  3  0  0.0010000  0  5G14G18G22G25G29
    332990.96747    285536.73346  20599823.6534   20599823.3134
      -979.5004       -763.2474
  -1980638.67845  -1473774.04645  23414576.2554   23414576.6654
      1957.1094       1525.0204
  -1797669.31447  -2115222.27046  21526480.9974   21526480.6814
       505.7974        394.1274
   4625144.33445   3502765.77345  23837426.4504   23837426.7554
     -3598.5004      -2804.0264
   -505345.44147   -370427.17947  21185197.5604   21185196.3294
        43.6724         34.0304
 96  8 31  3  0 30.0010000  0  5G14G18G22G25G29
    362684.91447    308674.87247  20605474.4894   20605474.1034
     -1000.4224       -779.5504
  -2039273.60945  -1519463.56345  23403418.1464   23403418.0994
      1951.4384       1520.6014
  -1812529.99947  -2126801.99846  21523653.2784   21523653.1034
       484.5784        377.5934
   4733188.02745   3586955.64745  23857986.3964   23857986.0564
     -3604.6564      -2808.8234
   -506517.36247   -371340.35347  21184974.4814   21184973.2514
        34.2034         26.6524
 96  8 31  3  1  0.0010000  0  5G14G18G22G25G29
    393024.32547    332315.97447  20611247.5994   20611247.2244
     -1022.1094       -796.4494
  -2097720.57345  -1565006.61945  23392296.5674   23392297.1534
      1945.0164       1515.5974
  -1826742.85947  -2137876.92346  21520948.4974   21520948.2164
       463.0784        360.8404
   4841423.61745   3671295.05045  23878582.8414   23878582.8994
     -3610.8124      -2813.6204
   -507398.58647   -372027.01647  21184806.8724   21184805.7354
        24.7194         19.2614
 96  8 31  3  1 30.0010000  0  5G14G18G22G25G29
    424004.80647    356456.61247  20617142.7944   20617142.5604
     -1042.9374       -812.6794
  -2155969.49545  -1610395.35445  23381212.1384   23381211.4464
      1938.5784       1510.5804
  -1840310.97647  -2148449.45446  21518366.7394   21518366.5874
       441.6414        344.1364
   4949841.28345   3755776.33045  23899214.3414   23899214.1884
     -3616.7504      -2818.2474
   -507992.41947   -372489.73447  21184693.7164   21184692.6384
        15.0474         11.7254
 96  8 31  3  2  0.0010000  0  5G14G18G22G25G29
    455600.54247    381076.66847  20623155.6064   20623155.1964
     -1063.2814       -828.5314
  -2214038.67645  -1655644.01945  23370161.5674   23370161.0524
      1933.0784       1506.2954
  -1853236.96347  -2158521.62646  21515907.0134   21515906.7084
       420.2974        327.5044
   5058427.15245   3840388.66545  23919876.9664   23919877.0014
     -3621.8444      -2822.2164
   -508300.99547   -372730.17847  21184634.9504   21184633.6964
         5.9224          4.6144
 96  8 31  3  2 30.0010000  0  5G14G18G22G25G29
    487811.03647    406175.75947  20629284.9744   20629284.6344
     -1084.1414       -844.7854
  -2271956.90145  -1700775.07845  23359140.0834   23359140.3884
      1928.1414       1502.4474
  -1865521.99547  -2168094.35746  21513569.2864   21513569.0404
       398.5944        310.5934
   5167149.73645   3925107.56945  23940567.0214   23940567.1034
     -3626.2814      -2825.6744
   -508345.14147   -372764.57347  21184627.0054   21184625.6574
        -2.9694         -2.3134
 96  8 31  3  3  0.0010000  0  5G14G18G22G25G29
    520648.62647    431763.49647  20635533.6464   20635533.3534
     -1104.9064       -860.9664
  -2329727.82645  -1745791.33345  23348146.6464   23348147.1964
      1923.4384       1498.7824
  -1877146.53747  -2177152.41746  21511356.9504   21511356.6224
       376.5634        293.4254
   5276005.36345   4009930.11445  23961281.3884   23961281.0364
     -3630.6094      -2829.0464
   -508116.19547   -372586.16547  21184670.0524   21184668.8104
       -12.2344         -9.5334
 96  8 31  3  3 30.0010000  0  5G14G18G22G25G29
    554107.41247    457835.28147  20641900.8724   20641900.5324
     -1125.7194       -877.1834
  -2387365.04045  -1790703.42845  23337178.4814   23337178.0244
      1919.2194       1495.4954
  -1888109.02347  -2185694.59046  21509271.0914   21509270.8214
       354.2344        276.0274
   5384988.79645   4094852.27445  23982019.6694   23982020.0324
     -3634.9844      -2832.4554
   -507609.40247   -372191.25447  21184766.5134   21184765.3644
       -21.5004        -16.7534
 96  8 31  3  4  0.0010000  0  5G14G18G22G25G29
    588190.40347    484393.45647  20648386.5054   20648386.1654
     -1146.6414       -893.4864
  -2444884.97445  -1835524.13245  23326233.1614   23326233.4194
      1915.3914       1492.5124
  -1898403.08547  -2193715.91346  21507312.0834   21507312.0014
       331.9384        258.6534
   5494097.65845   4179872.15945  24002783.4744   24002782.9464
     -3638.9224      -2835.5244
   -506838.79647   -371590.77047  21184913.1224   21184911.7284
       -29.8444        -23.2554
 96  8 31  3  4 30.0010000  0  5G14G18G22G25G29
    622912.60647    511449.72047  20654993.9584   20654993.7244
     -1167.8754       -910.0324
  -2502280.28845  -1880247.71545  23315311.1384   23315311.8294
      1911.1564       1489.2134
  -1908021.56147  -2201210.80246  21505481.4424   21505481.1384
       309.5634        241.2184
   5603336.41745   4264993.26545  24023570.2084   24023570.1264
     -3643.4374      -2839.0424
   -505811.25947   -370790.07847  21185108.9664   21185107.6424
       -38.5004        -30.0004
 96  8 31  3  5  0.0010000  0  5G14G18G22G25G29
    658279.81147    539008.58247  20661723.8804   20661723.6694
     -1189.8124       -927.1274
  -2559537.34945  -1924863.58245  23304415.3804   23304415.0994
      1906.3284       1485.4504
  -1916962.76747  -2208177.94946  21503780.1304   21503780.2244
       286.8914        223.5514
   5712721.81945   4350228.64644  24044386.7864   24044385.9194
     -3648.5314      -2843.0114
   -504509.45847   -369775.67447  21185356.5214   21185355.3964
       -47.9534        -37.3664
 96  8 31  3  5 30.0010000  0  5G14G18G22G25G29
    694307.41247    567082.03747  20668579.6614   20668579.6964
     -1211.9374       -944.3674
  -2616660.63645  -1969375.20845  23293545.0284   23293544.8414
      1901.9534       1482.0414
  -1925230.05447  -2214619.96546  21502207.1464   21502207.3214
       264.1254        205.8124
   5822250.30645   4435575.51344  24065228.1304   24065227.8134
     -3653.4534      -2846.8474
   -502934.91447   -368548.74847  21185656.2164   21185655.2674
       -57.0624        -44.4644
 96  8 31  3  6  0.0010000  0  5G14G18G22G25G29
    730991.99647    595667.43147  20675560.5674   20675560.6494
     -1233.7974       -961.4004
  -2673655.99245  -2013787.13845  23282699.0134   23282698.9784
      1897.5474       1478.6084
  -1932818.38047  -2220532.92446  21500762.9354   21500763.0404
       241.6564        188.3044
   5931923.16545   4521034.86044  24086098.2864   24086097.7714
     -3658.1564      -2850.5114
   -501087.50747   -367109.19847  21186007.4114   21186006.4274
       -66.2814        -51.6484
 96  8 31  3  6 30.0010000  0  5G14G18G22G25G29
    768333.46347    624764.68147  20682666.1854   20682666.1964
     -1255.7814       -978.5314
  -2730515.05045  -2058092.86845  23271879.0754   23271879.5564
      1892.8134       1474.9194
  -1939732.68347  -2225920.66346  21499447.1064   21499446.9894
       219.2194        170.8204
   6041736.23045   4606603.49945  24106994.7784   24106993.8994
     -3662.9534      -2854.2494
   -498954.04547   -365446.74547  21186413.5994   21186412.3924
       -76.1874        -59.3674
 96  8 31  3  7  0.0010000  0  5G14G18G22G25G29
    806324.86347    654368.37347  20689896.0134   20689895.9784
     -1277.0004       -995.0654
  -2787233.66845  -2102289.16445  23261086.0284   23261086.1464
      1888.4384       1471.5104
  -1945980.53847  -2230789.10046  21498258.2084   21498258.2554
       197.2664        153.7134
   6151688.30645   4692280.42745  24127917.1224   24127915.7284
     -3667.2664      -2857.6104
   -496528.12647   -363556.40747  21186875.2784   21186874.0834
       -85.4534        -66.5874
 96  8 31  3  7 30.0010000  0  5G14G18G22G25G29
    844947.34347    684463.81447  20697245.7004   20697245.7354
     -1297.7814      -1011.2584
  -2843821.73745  -2146383.73245  23250317.7474   23250317.7244
      1883.8914       1467.9674
  -1951568.91847  -2235143.65346  21497194.8024   21497194.8374
       175.1414        136.4734
   6261766.73245   4778055.81445  24148864.6464   24148864.7044
     -3671.5004      -2860.9094
   -493827.23047   -361451.79747  21187389.3494   21187388.0014
       -94.7974        -73.8684
 96  8 31  3  8  0.0010000  0  5G14G18G22G25G29
    884185.97547    715039.37147  20704712.3334   20704712.3104
     -1318.2974      -1027.2444
  -2900266.16345  -2190366.38045  23239576.5754   23239576.5994
      1878.7814       1463.9854
  -1956499.17847  -2238985.38946  21496256.4504   21496256.2514
       153.4064        119.5374
   6371975.64445   4863932.88244  24169837.6224   24169837.6574
     -3675.9224      -2864.3554
   -490847.44447   -359129.87547  21187956.3884   21187955.1694
      -103.9224        -80.9784
 96  8 31  3  8 30.0010000  0  5G14G18G22G25G29
    924039.47347    746094.04747  20712296.2864   20712296.3454
     -1338.6254      -1043.0844
  -2956549.24146  -2234223.28545  23228866.5754   23228867.3844
      1873.4844       1459.8584
  -1960779.01147  -2242320.29846  21495442.0604   21495441.9074
       132.0004        102.8574
   6482314.98745   4949911.59743  24190833.6534   24190833.1964
     -3680.0944      -2867.6064
   -487595.82147   -356596.12447  21188574.9584   21188573.7164
      -112.9224        -87.9914
 96  8 31  3  9  0.0010000  0  5G14G18G22G25G29
    964496.92347    777619.33247  20719995.1854   20719995.1264
     -1358.8914      -1058.8764
  -3012681.33946  -2277962.55745  23218184.5054   23218184.5054
      1868.6564       1456.0964
  -1964421.95747  -2245158.92846  21494748.8644   21494748.6064
       110.6094         86.1894
   6592774.42545   5035983.87845  24211854.8964   24211854.5674
     -3684.0314      -2870.6744
   -484079.49447   -353856.11647  21189244.1384   21189242.8724
      -121.7664        -94.8824
 96  8 31  3  9 30.0010000  0  5G14G18G22G25G29
   1005574.42247    809627.77047  20727811.9424   20727811.8964
     -1379.6254      -1075.0324
  -3068677.42246  -2321595.83045  23207528.9814   23207528.9234
      1864.2814       1452.6874
  -1967424.03247  -2247498.18846  21494177.6614   21494177.4154
        89.4534         69.7044
   6703344.22745   5122142.14245  24232895.2784   24232895.6424
     -3687.2344      -2873.1704
   -480292.94447   -350905.54447  21189964.8494   21189963.5484
      -130.8124       -101.9324
 96  8 31  3 10  0.0010000  0  5G14G18G22G25G29
   1047271.50747    842118.99847  20735746.7474   20735746.5714
     -1400.5314      -1091.3234
  -3124542.89046  -2365127.33345  23196897.9034   23196898.0444
      1859.9224       1449.2904
  -1969791.00747  -2249342.56046  21493727.1694   21493726.8884
        68.0944         53.0604
   6814007.93045   5208373.59945  24253953.9504   24253953.0834
     -3690.5004      -2875.7144
   -476233.18847   -347742.08647  21190737.3024   21190736.0134
      -140.0004       -109.0914
 96  8 31  3 10 30.0010000  0  5G14G18G22G25G29
   1089608.54247    875108.89047  20743803.1534   20743803.1654
     -1421.9694      -1108.0284
  -3180282.94746  -2408561.11945  23186291.4584   23186291.1534
      1856.1724       1446.3684
  -1971505.35447  -2250678.39146  21493400.7084   21493400.5094
        46.2034         36.0024
   6924767.47645   5294679.73144  24275030.9194   24275030.4274
     -3693.4694      -2878.0284
   -471891.35947   -344358.83147  21191563.3724   21191561.9314
      -149.4534       -116.4574
 96  8 31  3 11  0.0010000  0  5G14G18G22G25G29
   1132589.95247    908600.89747  20751982.1384   20751982.1384
     -1443.3754      -1124.7084
  -3235910.09546  -2451906.92745  23175705.6144   23175705.6494
      1852.2974       1443.3484
  -1972547.43647  -2251490.38046  21493202.8414   21493202.6064
        23.2034         18.0804
   7035619.28745   5381057.76243  24296125.3254   24296125.6774
     -3696.6094      -2880.4754
   -467263.01247   -340752.31647  21192444.1534   21192442.9114
      -159.0474       -123.9334
 96  8 31  3 11 30.0010000  0  5G14G18G22G25G29
   1176203.85347    942585.75547  20760281.6534   20760281.6424
     -1464.0784      -1140.8404
  -3291418.47846  -2495160.18145  23165143.3254   23165144.2634
      1847.8594       1439.8904
  -1972904.17447  -2251768.33846  21493134.4894   21493134.3134
         0.3444          0.2684
   7146558.36845   5467503.80445  24317236.6464   24317236.6104
     -3699.4694      -2882.7034
   -462355.33747   -336928.14547  21193378.0834   21193376.7124
      -168.1564       -131.0314
 96  8 31  3 12  0.0010000  0  5G14G18G22G25G29
   1220434.86847    977051.47947  20768698.4114   20768698.0484
     -1484.7344      -1156.9364
  -3346776.95446  -2538296.61245  23154608.3964   23154608.7824
      1842.8594       1435.9944
  -1972559.93247  -2251500.07446  21493200.1464   21493199.8294
       -23.2504        -18.1174
   7257599.18545   5554029.10445  24338365.9034   24338365.0244
     -3703.2034      -2885.6134
   -457172.13847   -332889.27247  21194364.3564   21194363.0444
      -177.2664       -138.1294
 96  8 31  3 12 30.0010000  0  5G14G18G22G25G29
   1265273.82347   1011990.91847  20777230.9584   20777230.8534
     -1504.5944      -1172.4114
  -3402001.43046  -2581328.64345  23144099.4194   23144099.8414
      1838.3594       1432.4884
  -1971522.18147  -2250691.41346  21493397.6614   21493397.1924
       -46.0474        -35.8814
   7368732.91045   5640626.82445  24359513.3804   24359512.5134
     -3705.9064      -2887.7194
   -451732.08947   -328650.26047  21195399.6304   21195398.4464
      -185.7034       -144.7044
 96  8 31  3 13  0.0010000  0  5G14G18G22G25G29
   1310709.31847   1047395.19847  20785877.0214   20785877.0324
     -1524.5624      -1187.9714
  -3457073.15346  -2624241.65045  23133620.0054   23133620.2044
      1832.9384       1428.2634
  -1969801.15047  -2249350.32846  21493725.0524   21493724.6534
       -68.6254        -53.4744
   7479954.12545   5727292.69844  24380678.7084   24380677.6534
     -3708.8444      -2890.0084
   -446029.65247   -324206.79147  21196484.9194   21196483.7124
      -194.4844       -151.5464
 96  8 31  3 13 30.0010000  0  5G14G18G22G25G29
   1356763.18547   1083281.32747  20794640.7394   20794640.6464
     -1545.5474      -1204.3224
  -3511968.64646  -2667017.33045  23123173.1534   23123173.3534
      1826.9224       1423.5754
  -1967408.93647  -2247486.24846  21494180.3174   21494179.9314
       -90.7344        -70.7024
   7591274.10445   5814035.54744  24401861.8724   24401860.9354
     -3712.3124      -2892.7114
   -440059.88347   -319555.01447  21197620.8494   21197619.6884
      -203.3754       -158.4744
 96  8 31  3 14  0.0010000  0  5G14G18G22G25G29
   1403444.31347   1119656.22947  20803523.8804   20803523.9274
     -1566.4694      -1220.6254
  -3566701.30446  -2709666.13045  23112758.0524   23112758.0174
      1822.0164       1419.7524
  -1964360.76347  -2245111.01846  21494760.5054   21494760.3174
      -112.1724        -87.4074
   7702688.85645   5900852.23443  24423063.1144   24423062.0714
     -3715.2344      -2894.9884
   -433825.21647   -314696.82747  21198807.0754   21198805.6814
      -212.2504       -165.3904
 96  8 31  3 14 30.0010000  0  5G14G18G22G25G29
   1450745.02447   1156513.92447  20812525.1694   20812525.0634
     -1586.7814      -1236.4534
  -3621285.41546  -2752199.18945  23102371.4194   23102371.1384
      1816.7344       1415.6374
  -1960681.71347  -2242244.20046  21495460.5914   21495460.0404
      -133.0004       -103.6364
   7814196.45645   5987741.27243  24444282.8644   24444283.4504
     -3718.6414      -2897.6424
   -427321.08347   -309628.65947  21200044.8724   21200043.7124
      -221.2974       -172.4394
 96  8 31  3 15  0.0010000  0  5G14G18G22G25G29
   1498658.17047   1193848.83747  20821642.7004   20821642.6774
     -1607.5624      -1252.6464
  -3675708.41246  -2794606.70145  23092014.6144   23092014.2634
      1811.4844       1411.5464
  -1956371.32147  -2238885.42946  21496280.8494   21496280.4854
      -154.6254       -120.4874
   7925809.81345   6074712.73443  24465522.8174   24465523.1344
     -3722.4224      -2900.5884
   -420550.45647   -304352.83647  21201333.2784   21201331.9894
      -230.1254       -179.3184
 96  8 31  3 15 30.0010000  0  5G14G18G22G25G29
   1547186.59947   1231663.19847  20830877.3174   20830877.4584
     -1627.8284      -1268.4374
  -3729983.10046  -2836898.63045  23081686.4424   23081686.3494
      1806.5784       1407.7234
  -1951406.08047  -2235016.39046  21497225.8334   21497225.4814
      -176.7974       -137.7644
   8037537.00345   6161772.86943  24486784.4894   24486785.6144
     -3726.3284      -2903.6324
   -413517.87447   -298872.89147  21202671.4504   21202670.1144
      -239.0784       -186.2954
 96  8 31  3 16  0.0010000  0  5G14G18G22G25G29
   1596313.75947   1269944.09847  20840225.9974   20840225.9744
     -1647.5474      -1283.8034
  -3784115.08746  -2879079.37645  23071385.6064   23071385.2314
      1801.9224       1404.0954
  -1945770.38947  -2230624.91946  21498298.1384   21498297.8214
      -199.1414       -155.1754
   8149377.53445   6248921.35543  24508065.8804   24508065.2944
     -3729.9534      -2906.4574
   -406213.06147   -293180.82147  21204061.6304   21204060.3064
      -248.0164       -193.2594
 96  8 31  3 16 30.0010000  0  5G14G18G22G25G29
   1646028.61047   1308682.93747  20849686.4894   20849686.1964
     -1667.3284      -1299.2174
  -3838112.98846  -2921155.64945  23061109.7314   23061109.6964
      1797.5784       1400.7104
  -1939466.56847  -2225712.82546  21499497.5444   21499497.2164
      -221.6874       -172.7444
   8261319.73745   6336149.02543  24529367.6144   24529366.8294
     -3732.9224      -2908.7704
   -398655.63847   -287291.91147  21205499.9114   21205498.4814
      -256.0624       -199.5294
 96  8 31  3 17  0.0010000  0  5G14G18G22G25G29
   1696354.44247   1347897.86447  20859263.1774   20859262.9074
     -1688.0474      -1315.3614
  -3891983.75446  -2963132.83645  23050858.6534   23050858.6064
      1793.6254       1397.6304
  -1932471.36647  -2220262.00046  21500828.6304   21500828.1034
      -244.9374       -190.8604
   8373336.02345   6423434.43543  24550685.4814   24550684.1104
     -3735.0474      -2910.4264
   -390857.58047   -281215.49747  21206983.4894   21206982.2354
      -264.2504       -205.9094
 96  8 31  3 17 30.0010000  0  5G14G18G22G25G29
   1747316.23447   1387608.35147  20868960.8724   20868960.6494
     -1709.2974      -1331.9204
  -3945724.44546  -3005008.67545  23040632.3254   23040632.3254
      1789.2664       1394.2334
  -1924775.79047  -2214265.43246  21502293.2084   21502292.7864
      -267.8444       -208.7094
   8485424.40445   6510776.05943  24572013.3494   24572012.1184
     -3737.2974      -2912.1794
   -382790.74147   -274929.64147  21208518.5134   21208517.2714
      -273.2974       -212.9594
 96  8 31  3 18  0.0010000  0  5G14G18G22G25G29
   1798917.29547   1427816.97047  20878780.2084   20878780.2434
     -1730.8914      -1348.7464
  -3999342.24446  -3046788.74945  23030429.0364   23030429.1654
      1785.0474       1390.9464
  -1916402.47747  -2207740.74646  21503886.5134   21503886.0564
      -290.5944       -226.4374
   8597566.36345   6598159.40842  24593352.6534   24593352.7944
     -3739.0164      -2913.5194
   -374457.76947   -268436.41247  21210104.3724   21210103.1884
      -282.4224       -220.0694
 96  8 31  3 18 30.0010000  0  5G14G18G22G25G29
   1851162.08847   1468527.19547  20888722.1304   20888722.0484
     -1752.0474      -1365.2314
  -4052830.88046  -3088468.18045  23020250.4354   23020250.2124
      1780.7504       1387.5974
  -1907348.33047  -2200685.54846  21505609.4114   21505608.9664
      -313.0474       -243.9334
   8709757.37745   6685580.97143  24614703.9814   24614704.1464
     -3740.3124      -2914.5294
   -365849.39147   -261728.57947  21211742.4034   21211741.1734
      -291.6094       -227.2284
 96  8 31  3 19  0.0010000  0  5G14G18G22G25G29
   1904041.53347   1509731.95147  20898784.6854   20898784.6854
     -1772.7664      -1381.3764
  -4106173.34646  -3130033.70645  23010099.6924   23010099.7514
      1775.7194       1383.6774
  -1897610.55947  -2193097.64946  21507462.3804   21507461.9584
      -335.7194       -261.5994
   8822001.16445   6773043.65243  24636062.9584   24636063.1344
     -3742.4374      -2916.1854
   -356942.83947   -254788.40547  21213437.3884   21213436.0524
      -301.9694       -235.3004
 96  8 31  3 19 30.0010000  0  4G14G18G22G29
   1957516.45247   1551400.71747  20908960.7784   20908960.7204
     -1791.9374      -1396.3154
  -4159372.85546  -3171487.84145  22999976.2164   22999976.1224
      1771.0784       1380.0614
  -1887208.63347  -2184992.23146  21509441.8644   21509441.6304
      -357.5004       -278.5714
   -347735.26447   -247613.66647  21215189.4194   21215187.9544
      -311.5944       -242.8004
 96  8 31  3 20  0.0010000  0  4G14G18G22G29
   2011551.88247   1593506.24847  20919243.3104   20919243.1344
     -1810.5004      -1410.7794
  -4212434.04346  -3212834.19745  22989878.9354   22989878.9584
      1766.1094       1376.1894
  -1876159.11147  -2176382.19346  21511544.5754   21511544.2124
      -379.3124       -295.5684
   -338241.47447   -240215.89747  21216996.1304   21216994.8994
      -321.4844       -250.5074
 96  8 31  3 20 30.0010000  0  4G14G18G22G29
   2066146.12347   1636047.20947  20929632.1534   20929631.9424
     -1829.1724      -1425.3294
  -4265342.92346  -3254061.86145  22979810.6384   22979810.0284
      1761.1564       1372.3304
  -1864457.28447  -2167263.86746  21513771.0834   21513770.8724
      -400.8754       -312.3704
   -328455.08347   -232590.12947  21218858.5444   21218856.9744
      -330.9844       -257.9104
 96  8 31  3 21  0.0010000  0  4G14G18G22G29
   2121297.07047   1679021.96947  20940127.1144   20940126.8804
     -1847.5624      -1439.6594
  -4318117.05046  -3295184.53545  22969768.4354   22969768.2244
      1757.3594       1369.3714
  -1852111.24247  -2157643.55346  21516120.5754   21516120.2354
      -422.0004       -328.8314
   -318387.62647   -224745.34247  21220774.2084   21220772.8254
      -340.0784       -264.9964
 96  8 31  3 21 30.0010000  0  4G14G18G22G29
   2177013.70347   1722437.52247  20950729.6144   20950729.3564
     -1866.9844      -1454.7934
  -4370783.75246  -3336223.49445  22959746.1224   22959746.0634
      1753.6724       1366.4984
  -1839135.68347  -2147532.71046  21518589.8724   21518589.5324
      -443.0314       -345.2194
   -308049.43147   -216689.59247  21222741.4974   21222740.1264
      -349.0784       -272.0094
 96  8 31  3 22  0.0010000  0  4G14G18G22G29
   2233326.02847   1766317.25147  20961445.5674   20961445.2634
     -1887.3754      -1470.6824
  -4423337.09746  -3377174.12945  22949745.3884   22949745.0604
      1749.8444       1363.5154
  -1825524.91947  -2136926.90146  21521179.8564   21521179.4464
      -464.6094       -362.0334
   -297442.07147   -208424.10547  21224759.9814   21224758.6224
      -358.0624       -279.0104
 96  8 31  3 22 30.0010000  0  4G14G18G22G29
   2290254.66247   1810677.21847  20972278.5524   20972278.2714
     -1907.8284      -1486.6194
  -4475781.95446  -3418040.21245  22939765.2474   22939765.0014
      1746.4844       1360.8974
  -1811262.40547  -2125813.23546  21523893.8564   21523893.4814
      -486.2814       -378.9204
   -286576.37647   -199957.31747  21226827.6924   21226826.2044
      -366.4064       -285.5114
 96  8 31  3 23  0.0010000  0  4G14G18G22G29
   2347802.44747   1855519.64647  20983229.4584   20983229.2594
     -1928.7814      -1502.9464
  -4528111.95846  -3458816.80945  22929807.1774   22929807.0014
      1742.0474       1357.4394
  -1796340.47847  -2114185.73246  21526733.2164   21526732.9354
      -508.5944       -396.3074
   -275448.19247   -191285.99647  21228945.3494   21228943.9544
      -375.5164       -292.6104
 96  8 31  3 23 30.0010000  0  4G14G18G22G29
   2405980.59747   1900853.26747  20994300.5524   20994300.2594
     -1949.8444      -1519.3594
  -4580298.29446  -3499481.46145  22919876.3724   22919876.5834
      1736.6884       1353.2634
  -1780745.08747  -2102033.45746  21529700.8334   21529700.3994
      -531.4374       -414.1074
   -264052.89447   -182406.52547  21231113.6924   21231112.2864
      -384.3284       -299.4764
 96  8 31  3 24  0.0010000  0  4G14G18G22G29
   2464784.50847   1946674.49247  21005490.4974   21005490.2744
     -1970.4224      -1535.3944
  -4632311.45046  -3540011.16245  22909978.8024   22909978.6964
      1730.8134       1348.6854
  -1764452.29447  -2089337.75546  21532801.6224   21532801.1304
      -554.7664       -432.2854
   -252385.54547   -173315.07247  21233333.9424   21233332.6654
      -393.5474       -306.6604
 96  8 31  3 24 30.0020000  0  5G19G14G18G22G29
    -23882.14014                  25386860.033
      2170.125
   2524205.86747   1992976.84747  21016798.0254   21016797.9904
     -1990.8914      -1551.3434
  -4684146.61146  -3580402.17745  22900114.5254   22900114.1044
      1724.5474       1343.8034
  -1747458.87647  -2076096.10546  21536035.3854   21536035.0454
      -578.1254       -450.4874
   -240432.53347   -164001.02147  21235608.5024   21235606.9904
      -403.4064       -314.3434
 96  8 31  3 25  0.0020000  0  5G19G14G18G22G29
    -88889.08745                  24774904.9244
      2163.6414
   2584238.60747   2039755.59847  21028221.8694   21028221.6004
     -2011.1564      -1567.1354
  -4735789.76746  -3620643.55945  22890287.1434   22890287.1664
      1718.6094       1339.1764
  -1729770.71647  -2062313.09546  21539401.2294   21539400.9944
      -601.0164       -468.3244
   -228187.74047   -154459.61047  21237938.5964   21237937.1544
      -412.7194       -321.5994
 96  8 31  3 25 30.0020000  0  5G19G14G18G22G29
   -153697.38345    -15131.40553  24762572.4474   24762573.9824
      2156.6884       1680.5364
   2644871.54747   2087002.03547  21039760.0964   21039759.8854
     -2030.9694      -1582.5734
  -4787269.92346  -3660757.93845  22880491.1894   22880491.2954
      1713.3754       1335.0974
  -1711399.14247  -2047997.56347  21542897.0024   21542896.7444
      -623.7664       -486.0514
   -215669.20647   -144704.89047  21240320.7604   21240319.3894
      -421.9064       -328.7584
 96  8 31  3 26  0.0020000  0  5G19G14G18G22G29
   -218293.90845    -65466.31942  24750279.5494   24750279.2914
      2149.8754       1675.2274
   2706092.81247   2134706.90747  21051409.9634   21051409.7754
     -2050.5314      -1597.8174
  -4838596.39046  -3700752.56745  22870723.9394   22870723.9634
      1708.5314       1331.3234
  -1692351.62947  -2033155.32246  21546521.8694   21546521.5294
      -645.9224       -503.3164
   -202873.15147   -134733.92747  21242755.9164   21242754.5574
      -431.1254       -335.9424
 96  8 31  3 26 30.0020000  0  5G19G14G18G22G29
   -282698.94145   -115651.99243  24738024.0024   24738022.9824
      2143.6564       1670.3814
   2767899.87647   2182868.25447  21063171.5104   21063171.2404
     -2069.8284      -1612.8534
  -4889786.58446  -3740640.99545  22860982.9084   22860982.4754
      1704.0634       1327.8414
  -1672646.13847  -2017800.36746  21550271.3774   21550271.1894
      -667.7974       -520.3614
   -189810.85047   -124555.49847  21245241.4634   21245240.1394
      -439.7344       -342.6504
 96  8 31  3 27  0.0020000  0  5G19G14G18G22G29
   -346911.24244   -165687.50842  24725804.2134   24725804.1784
      2137.1884       1665.3414
   2830280.69447   2231476.67547  21075042.1664   21075042.0254
     -2088.8284      -1627.6584
  -4940845.25146  -3780426.95045  22851266.5184   22851266.2484
      1699.9694       1324.6514
  -1652284.34747  -2001934.01546  21554146.3384   21554145.9044
      -689.6094       -537.3584
   -176486.45147   -114172.83647  21247776.8074   21247775.6004
      -448.6724       -349.6144
 96  8 31  3 27 30.0020000  0  5G19G14G18G22G29
   -410924.37344   -215567.78443  24713623.7604   24713624.5684
      2130.3134       1659.9844
   2893225.23347   2280524.36147  21087020.1434   21087020.0614
     -2107.3124      -1642.0624
  -4991771.09146  -3820109.38445  22841575.7994   22841575.6584
      1695.0164       1320.7914
  -1631268.47347  -1985557.98646  21558145.5804   21558145.2174
      -711.3444       -554.2944
   -162882.51547   -103572.35547  21250365.7134   21250364.5534
      -458.2034       -357.0414
 96  8 31  3 28  0.0020000  0  5G19G14G18G22G29
   -474740.33944   -265294.47042  24701479.2604   24701481.0644
      2124.0634       1655.1144
   2956713.21947   2329995.51247  21099101.3854   21099101.3384
     -2125.3444      -1656.1124
  -5042553.32746  -3859679.91845  22831912.2294   22831911.7364
      1690.5004       1317.2734
  -1609614.63747  -1968684.84646  21562265.8934   21562265.4824
      -732.2344       -570.5724
   -148999.85047    -92754.67947  21253007.5024   21253006.3894
      -467.4064       -364.2134
 96  8 31  3 28 30.0020000  0  5G19G14G18G22G29
   -538360.42044   -314868.45942  24689373.7134   24689375.6234
      2117.2814       1649.8304
   3020748.24747   2379892.93047  21111286.9324   21111287.0844
     -2143.5314      -1670.2844
  -5093192.08546  -3899138.66645  22822276.0024   22822276.2014
      1685.3914       1313.2914
  -1587328.23647  -1951318.79646  21566506.9084   21566506.5684
      -753.6564       -587.2654
   -134836.19147    -81718.05247  21255702.6354   21255701.3464
      -476.8124       -371.5424
 96  8 31  3 29  0.0020000  0  5G19G14G18G22G29
   -601781.17744   -364287.18642  24677304.1894   24677304.5884
      2110.3754       1644.4484
   3085317.25347   2430206.43647  21123573.9634   21123573.9164
     -2161.5784      -1684.3474
  -5143687.56046  -3938485.74745  22812666.8544   22812666.7834
      1680.5634       1309.5294
  -1564410.26047  -1933460.61146  21570868.0494   21570867.8034
      -774.6874       -603.6534
   -120403.31847    -70471.64447  21258449.2214   21258447.7914
      -485.7034       -378.4704
 96  8 31  3 29 30.0020000  0  5G19G14G18G22G29
   -664982.33344   -413534.76843  24665277.2214   24665277.5724
      2103.0944       1638.7744
   3150442.29147   2480953.21547  21135966.9004   21135966.8654
     -2180.1874      -1698.8474
  -5194021.27946  -3977706.78145  22803088.8384   22803088.9674
      1675.0314       1305.2194
  -1540842.48747  -1915096.09246  21575352.8544   21575352.4794
      -796.7194       -620.8204
   -105700.56847    -59014.94847  21261246.8544   21261245.4364
      -494.3594       -385.2154
 96  8 31  3 30  0.0020000  0  5G19G14G18G22G29
   -727961.67745   -462609.54541  24653292.2834   24653292.1314
      2095.7034       1633.0154
   3216141.96347   2532147.76447  21148469.1044   21148468.9984
     -2199.8754      -1714.1884
  -5244186.49946  -4016796.52445  22793542.7524   22793542.2254
      1669.6094       1300.9944
  -1516598.01147  -1896204.27446  21579966.2524   21579965.8774
      -819.5314       -638.5964
    -90736.36247    -47354.51547  21264094.3304   21264092.8654
      -503.1414       -392.0584
 96  8 31  3 30 30.0020000  0  5G19G14G18G22G29
   -790730.78345   -511520.44343  24641348.0884   24641349.0494
      2088.6094       1627.4884
   3282436.78247   2583806.06047  21161084.5414   21161084.3304
     -2220.0784      -1729.9314
  -5294195.88246  -4055764.83145  22784025.9554   22784025.7914
      1664.0784       1296.6844
  -1491662.83447  -1876774.24746  21584711.3544   21584710.9554
      -843.2504       -657.0784
    -75516.43147    -35494.81847  21266990.6894   21266989.3304
      -511.7504       -398.7664
 96  8 31  3 31  0.0020000  0  5G19G14G18G22G29
   -853300.94145   -560276.33743  24629442.0724   24629443.1864
      2082.3134       1622.5814
   3349330.71947   2635931.20147  21173813.9944   21173814.1114
     -2239.8914      -1745.3694
  -5344054.07846  -4094615.33445  22774538.2754   22774538.2174
      1659.5004       1293.1174
  -1466023.59947  -1856795.60346  21589590.0494   21589589.7914
      -866.1724       -674.9394
    -60042.53047    -23437.22547  21269935.3384   21269934.0844
      -520.3754       -405.4874
 96  8 31  3 31 30.0020000  0  5G19G14G18G22G29
   -915676.64245   -608880.70443  24617571.3544   24617573.1584
      2076.0634       1617.7114
   3416824.83047   2688524.01147  21186657.6194   21186657.7364
     -2259.7194      -1760.8204
  -5393779.29946  -4133362.20845  22765075.6974   22765075.4634
      1655.4534       1289.9634
  -1439695.47647  -1836280.16146  21594600.3854   21594600.0214
      -888.9224       -692.6664
    -44293.99047    -11165.62547  21272932.2684   21272930.9904
      -529.6254       -412.6954
 96  8 31  3 32  0.0020000  0  5G19G14G18G22G29
   -977872.54045   -657344.96943  24605735.6974   24605735.8034
      2070.3284       1613.2434
   3484912.54147   2741579.36247  21199614.3144   21199614.2214
     -2279.5474      -1776.2704
  -5443389.55346  -4172019.50745  22755635.2214   22755635.1864
      1651.8754       1287.1754
  -1412703.18747  -1815247.19446  21599736.8544   21599736.3614
      -910.3914       -709.3954
    -28264.02447      1325.26747  21275982.6664   21275981.4594
      -539.1254       -420.0974
 96  8 31  3 32 30.0020000  0  5G19G14G18G22G29
  -1039894.52045   -705673.72743  24593934.0884   24593935.5764
      2064.5314       1608.7264
   3553598.55747   2795100.92647  21212684.8384   21212684.9084
     -2299.2504      -1791.6234
  -5492883.35246  -4210586.06145  22746216.8614   22746216.2294
      1647.7034       1283.9254
  -1385071.93247  -1793716.32446  21604994.9864   21604994.3074
      -931.5474       -725.8814
    -11945.08447     14041.33047  21279088.0104   21279086.6394
      -548.6724       -427.5374
 96  8 31  3 33  0.0020000  0  5G19G14G18G22G29
  -1101742.69645   -753867.05443  24582164.3854   24582165.9324
      2058.7034       1604.1844
   3622858.13547   2849069.42547  21225864.4944   21225864.7994
     -2317.8914      -1806.1494
  -5542249.86846  -4249053.43646  22736822.8614   22736822.4284
      1643.4384       1280.6014
  -1356827.89447  -1771707.96646  21610369.6584   21610369.1664
      -951.0944       -741.1124
      4657.74647     26978.61247  21282247.4394   21282246.0804
      -558.1094       -434.8904
 96  8 31  3 33 30.0020000  0  5G19G14G18G22G29
  -1163410.37945   -801919.71442  24570429.0104   24570430.3694
      2052.6094       1599.4364
   3692672.39147   2903470.14347  21239149.7684   21239149.8614
     -2336.3754      -1820.5524
  -5591482.74946  -4287416.67445  22727454.0254   22727453.7444
      1638.5634       1276.8024
  -1327997.00947  -1749242.31746  21615855.8464   21615855.2834
      -971.0784       -756.6844
     21534.97547     40129.70947  21285458.9164   21285457.5684
      -566.9224       -441.7574
 96  8 31  3 34  0.0020000  0  5G19G14G18G22G29
  -1224895.94445   -849830.48243  24558728.5024   24558729.0414
      2046.4064       1594.6024
   3763037.65047   2958300.20047  21252539.9244   21252540.0764
     -2354.5474      -1834.7124
  -5640549.69146  -4325650.61546  22718117.0254   22718116.6044
      1632.6414       1272.1884
  -1298562.15047  -1726306.04646  21621457.1974   21621456.7054
      -991.2504       -772.4034
     38672.32847     53483.49647  21288720.1744   21288718.8964
      -575.5164       -448.4544
 96  8 31  3 34 30.0020000  0  5G19G14G18G22G29
  -1286178.09245   -897582.73143  24547066.8774   24547068.0844
      2039.0314       1588.8564
   3833944.11047   3013551.98247  21266033.1274   21266033.2444
     -2372.4694      -1848.6774
  -5689431.80846  -4363740.53446  22708814.8074   22708814.6434
      1626.1724       1267.1474
  -1268507.45347  -1702886.78146  21627176.2994   21627175.7134
     -1012.5624       -789.0104
     56073.86247     67043.14547  21292031.5104   21292030.4904
      -584.6564       -455.5764
 96  8 31  3 35  0.0020000  0  5G19G14G18G22G29
  -1347238.26745   -945162.02844  24535447.3544   24535448.0104
      2031.6414       1583.0974
   3905379.28147   3069215.74847  21279626.4794   21279626.6544
     -2390.0004      -1862.3384
  -5738132.33946  -4401688.95346  22699547.5494   22699547.0334
      1620.5944       1262.8004
  -1237809.74047  -1678966.46846  21633017.8144   21633017.4394
     -1034.2034       -805.8734
     73755.83647     80821.31447  21295396.3224   21295395.1864
      -594.2194       -463.0284
 96  8 31  3 35 30.0020000  0  5G19G14G18G22G29
  -1408072.27745   -992565.07643  24523870.8304   24523871.7094
      2024.0944       1577.2164
   3977356.83647   3125302.15247  21293323.4864   21293323.6744
     -2408.4534      -1876.7174
  -5786668.09146  -4439508.98846  22690311.5024   22690311.0104
      1615.0944       1258.5154
  -1206433.54747  -1654517.46946  21638988.4004   21638987.8504
     -1057.5624       -824.0754
     91729.68147     94826.91347  21298816.5804   21298815.3034
      -604.0164       -470.6624
 96  8 31  3 36  0.0020000  0  5G19G14G18G22G29
  -1468683.78045  -1039794.74243  24512337.1744   24512339.6464
      2016.4384       1571.2504
   4049888.29447   3181820.17047  21307125.8544   21307125.9124
     -2427.3444      -1891.4374
  -5835040.67246  -4477201.87646  22681106.4794   22681105.9754
      1609.7344       1254.3384
  -1174362.03847  -1629526.66646  21645091.3384   21645090.8934
     -1080.7814       -842.1674
    110001.43047    109064.64747  21302293.5724   21302292.1434
      -614.3284       -478.6974
 96  8 31  3 36 30.0020000  0  5G19G14G18G22G29
  -1529070.85745  -1086849.54543  24500845.8384   24500847.5254
      2009.3284       1565.7104
   4122997.50447   3238788.38647  21321037.9164   21321037.9984
     -2446.7664      -1906.5714
  -5883268.75446  -4514782.16646  22671928.9634   22671928.4714
      1605.2034       1250.8084
  -1141594.39847  -1603993.42646  21651326.9394   21651326.5064
     -1103.8444       -860.1384
    128582.43447    123543.36047  21305829.5414   21305828.0644
      -624.5164       -486.6364
 96  8 31  3 37  0.0020000  0  5G19G14G18G22G29
  -1589251.28045  -1133743.28044  24489394.4554   24489397.7484
      2002.7034       1560.5484
   4196694.44447   3296214.56247  21335062.2294   21335062.1114
     -2466.4224      -1921.8874
  -5931354.09346  -4552251.23846  22662778.6274   22662777.8304
      1600.3754       1247.0454
  -1108138.68147  -1577924.02046  21657693.4084   21657693.1624
     -1126.5474       -877.8294
    147462.99647    138255.49547  21309422.4474   21309421.0644
      -634.0944       -494.0994
 96  8 31  3 37 30.0020000  0  5G19G14G18G22G29
  -1649235.45545  -1180484.14044  24477979.3384   24477979.9364
      1996.2344       1555.5074
   4270980.36947   3354099.69847  21349198.4084   21349198.3384
     -2485.8754      -1937.0454
  -5979286.09846  -4589600.83246  22653657.3694   22653656.4324
      1595.0004       1242.8574
  -1074009.98647  -1551330.21446  21664187.7834   21664187.3964
     -1148.5164       -894.9474
    166620.47547    153183.41047  21313068.0644   21313066.6234
      -643.1094       -501.1244
 96  8 31  3 38  0.0020000  0  5G19G14G18G22G29
  -1709027.51745  -1227075.28345  24466600.9794   24466601.4594
      1989.7344       1550.4424
   4345840.39947   3412432.19047  21363443.9474   21363443.9594
     -2504.8124      -1951.8024
  -6027058.86946  -4626826.34546  22644566.6114   22644565.7444
      1589.9224       1238.9004
  -1039240.51447  -1524237.10346  21670803.9864   21670803.4474
     -1169.5784       -911.3604
    186043.30347    168318.08847  21316763.9084   21316762.6194
      -651.8594       -507.9424
 96  8 31  3 38 30.0020000  0  5G19G14G18G22G29
  -1768623.98945  -1273514.01644  24455260.2054   24455261.7644
      1983.3284       1545.4504
   4421256.58347   3471198.05247  21377795.0334   21377794.9634
     -2522.7664      -1965.7914
  -6074687.80446  -4663939.77846  22635503.1894   22635502.2524
      1584.9844       1235.0534
  -1003839.72447  -1496652.05746  21677540.7444   21677540.2524
     -1190.5474       -927.6994
    205728.91747    183657.53447  21320509.8614   21320508.6074
      -660.5944       -514.7484
 96  8 31  3 39  0.0020000  0  5G19G14G18G22G29
  -1828022.08445  -1319798.14644  24443957.1504   24443958.9794
      1976.5634       1540.1794
   4497203.51547   3530377.48247  21392247.0414   21392247.1464
     -2540.4064      -1979.5374
  -6122154.90746  -4700927.10846  22626470.5574   22626469.8424
      1579.6414       1230.8894
   -967805.49147  -1468573.42346  21684397.8544   21684397.3504
     -1211.7504       -944.2214
    225685.99947    199208.51447  21324307.6274   21324306.0804
      -669.8444       -521.9564
 96  8 31  3 39 30.0020000  0  5G19G14G18G22G29
  -1887224.67945  -1365929.95743  24432690.5574   24432691.4474
      1970.0314       1535.0894
   4573669.88747   3589961.67047  21406798.0414   21406798.1234
     -2557.7664      -1993.0644
  -6169474.55646  -4737799.54546  22617465.7604   22617465.1624
      1574.7504       1227.0784
   -931148.52547  -1440009.54046  21691373.4394   21691372.9944
     -1232.3124       -960.2444
    245921.14047    214976.16647  21328158.3224   21328156.9284
      -679.5944       -529.5544
 96  8 31  3 40  0.0020000  0  5G19G14G18G22G29
  -1946222.35445  -1411902.10544  24421464.2214   24421465.2754
      1963.2344       1529.7934
   4650675.02647   3649965.66347  21421451.5804   21421451.6394
     -2575.9064      -2007.2004
  -6216640.94246  -4774552.55546  22608490.1114   22608489.5254
      1569.6884       1223.1334
   -893863.71947  -1410956.43246  21698468.4634   21698467.8894
     -1253.3284       -976.6194
    266468.00247    230986.70947  21332068.3694   21332067.1154
      -690.2344       -537.8454
 96  8 31  3 40 30.0020000  0  5G19G14G18G22G29
  -2005017.05145  -1457716.07543  24410276.0644   24410277.6934
      1956.3134       1524.3994
   4728228.68047   3710397.07347  21436209.6824   21436209.7524
     -2594.5784      -2021.7494
  -6263639.38146  -4811174.69446  22599546.6194   22599546.1504
      1563.1564       1218.0444
   -855947.49747  -1381411.31246  21705683.7994   21705683.6004
     -1274.5944       -993.1904
    287340.27047    247250.82347  21336039.7214   21336038.5254
      -701.3444       -546.5024
 96  8 31  3 41  0.0020000  0  5G19G14G18G22G29
  -2063610.94445  -1503373.59143  24399125.4474   24399125.6004
      1949.7034       1519.2494
   4806344.45447   3771266.49147  21451074.7604   21451074.9244
     -2613.5004      -2036.4944
  -6310438.41446  -4847641.46446  22590641.1744   22590640.5064
      1556.7974       1213.0884
   -817395.22047  -1351370.56846  21713019.7444   21713019.2874
     -1295.7974      -1009.7124
    308535.95247    263766.94447  21340073.3854   21340072.0614
      -711.8124       -554.6594
 96  8 31  3 41 30.0020000  0  5G19G14G18G22G29
  -2122000.91945  -1548872.22244  24388014.2994   24388015.3544
      1942.9844       1514.0144
   4885037.29047   3832585.58847  21466049.4714   21466049.4124
     -2632.5164      -2051.3114
  -6357047.14246  -4883959.93546  22581772.0414   22581771.1044
      1550.5314       1208.2064
   -778195.67847  -1320825.45646  21720479.4084   21720478.6824
     -1317.4534      -1026.5874
    330047.52747    280529.22447  21344167.0644   21344165.6234
      -722.0314       -562.6224
 96  8 31  3 42  0.0020000  0  5G19G14G18G22G29
  -2180190.66045  -1594214.78544  24376941.1894   24376942.6074
      1936.2504       1508.7664
   4964290.74347   3894341.52247  21481130.8144   21481130.7794
     -2650.9064      -2065.6414
  -6403472.00946  -4920135.13946  22572937.3774   22572936.8264
      1544.4384       1203.4584
   -738336.91847  -1289766.67046  21728064.1974   21728063.6114
     -1339.9224      -1044.0954
    351848.96447    297517.36747  21348315.8854   21348314.5024
      -731.3754       -569.9034
 96  8 31  3 42 30.0020000  0  5G19G14G18G22G29
  -2238176.17345  -1639398.23744  24365906.7214   24365907.5644
      1929.6254       1503.6044
   5044081.07547   3956515.79847  21496314.3694   21496314.1934
     -2668.3444      -2079.2294
  -6449717.70846  -4956170.73546  22564137.3934   22564136.4084
      1538.7974       1199.0634
   -697798.33547  -1258178.15346  21735778.3694   21735777.9474
     -1362.6254      -1061.7864
    373923.66647    314718.43747  21352516.3614   21352514.9324
      -740.1874       -576.7694
 96  8 31  3 43  0.0020000  0  5G19G14G18G22G29
  -2295965.89845  -1684429.14643  24354910.0644   24354910.5684
      1923.0634       1498.4904
   5124387.02647   4019091.85947  21511596.2444   21511596.1624
     -2685.2974      -2092.4394
  -6495809.62946  -4992086.49946  22555365.9004   22555365.1044
      1534.3444       1195.5934
   -656579.77147  -1226059.77946  21743621.9794   21743621.7214
     -1385.0624      -1079.2694
    396265.22147    332127.44747  21356767.8384   21356766.4084
      -749.2344       -583.8194
 96  8 31  3 43 30.0020000  0  5G19G14G18G22G29
  -2353563.08545  -1729309.99343  24343949.4244   24343948.7324
      1916.5474       1493.4134
   5205189.53947   4082054.85347  21526972.6354   21526972.4944
     -2701.6094      -2105.1504
  -6541781.38246  -5027908.62246  22546618.0574   22546617.2014
      1530.1254       1192.3054
   -614702.56547  -1193428.17646  21751590.8854   21751590.5684
     -1406.7974      -1096.2054
    418873.02647    349743.92047  21361069.9324   21361068.4554
      -758.1874       -590.7954
 96  8 31  3 44  0.0020000  0  5G19G14G18G22G29
  -2410956.72145  -1774032.25845  24333027.8694   24333028.7364
      1909.7504       1488.1174
   5286484.18347   4145401.32547  21542442.5494   21542442.1974
     -2718.0944      -2117.9954
  -6587613.82546  -5063622.19146  22537896.3774   22537895.7564
      1525.2974       1188.5434
   -572177.75547  -1160291.94846  21759683.1194   21759682.6154
     -1428.1414      -1112.8374
    441761.37647    367579.00747  21365425.2914   21365423.7324
      -767.8754       -598.3444
 96  8 31  3 44 30.0020000  0  5G19G14G18G22G29
  -2468139.08045  -1818589.86843  24322146.0184   24322146.7684
      1902.5784       1482.5284
   5368288.95347   4209145.30447  21558009.3854   21558009.0334
     -2735.6874      -2131.7054
  -6633285.27846  -5099210.31746  22529205.0884   22529204.3964
      1519.5474       1184.0634
   -529016.25347  -1126659.59346  21767896.4394   21767896.0644
     -1449.0784      -1129.1524
    464960.46147    385656.22447  21369840.1274   21369838.5334
      -778.7194       -606.7944
 96  8 31  3 45  0.0020000  0  5G19G14G18G22G29
  -2525101.44045  -1862976.08144  24311306.8614   24311306.9904
      1894.8594       1476.5144
   5450633.09247   4273309.56847  21573678.9324   21573678.7684
     -2753.8754      -2145.8774
  -6678781.21346  -5134661.67446  22520547.6194   22520546.6934
      1513.6094       1179.4364
   -485237.28847  -1092546.10046  21776227.5184   21776226.9434
     -1469.4534      -1145.0284
    488484.36547    403986.54747  21374316.6894   21374315.2134
      -789.3754       -615.0974
 96  8 31  3 45 30.0020000  0  5G19G14G18G22G29
  -2581827.16945  -1907177.86344  24300512.5964   24300513.2874
      1886.9694       1470.3654
   5533527.80847   4337902.84547  21589453.1974   21589453.0214
     -2772.4224      -2160.3294
  -6724087.03446  -5169964.88846  22511926.3224   22511925.7834
      1506.6884       1174.0424
   -440839.99447  -1057950.79146  21784676.0804   21784675.5184
     -1490.3594      -1161.3194
    512322.88747    422562.02647  21378852.8694   21378851.3114
      -799.8124       -623.2314
 96  8 31  3 46  0.0020000  0  5G19G14G18G22G29
  -2638326.64545  -1951203.34245  24289760.0414   24289761.4944
      1879.8444       1464.8134
   5616977.10547   4402928.27847  21605333.3544   21605333.1314
     -2790.7344      -2174.5984
  -6769185.72846  -5205106.70346  22503344.3694   22503343.7714
      1500.0314       1168.8564
   -395821.76447  -1022871.64246  21793242.6114   21793242.1434
     -1510.7814      -1177.2324
    536476.47847    441383.01047  21383449.0804   21383447.4984
      -810.2034       -631.3274
 96  8 31  3 46 30.0020000  0  5G19G14G18G22G29
  -2694607.17045  -1995058.23345  24279050.8854   24279051.4244
      1872.3444       1458.9694
   5700979.50747   4468384.68647  21621318.3694   21621318.2994
     -2809.3754      -2189.1234
  -6814085.07046  -5240093.17246  22494800.1504   22494799.5184
      1493.4694       1163.7424
   -350187.72347   -987312.63446  21801926.5024   21801925.9754
     -1531.3754      -1193.2794
    560939.55547    460445.15447  21388104.4474   21388103.0644
      -820.4224       -639.2904
 96  8 31  3 47  0.0020000  0  5G19G14G18G22G29
  -2750665.55645  -2038740.04744  24268382.8464   24268384.2874
      1865.0474       1453.2834
   5785532.60947   4534270.20247  21637408.3074   21637408.0494
     -2827.1874      -2203.0034
  -6858788.86346  -5274927.28046  22486293.0574   22486292.7524
      1486.9534       1158.6654
   -303929.76647   -951267.46146  21810729.2054   21810728.6894
     -1552.4534      -1209.7044
    585696.34147    479736.16247  21392815.3464   21392813.7294
      -829.8284       -646.6194
 96  8 31  3 47 30.0020000  0  5G19G14G18G22G29
  -2806505.51345  -2082251.62144  24257756.4864   24257758.5024
      1858.0164       1447.8044
   5870620.34447   4600572.32047  21653599.8464   21653599.6704
     -2844.9224      -2216.8224
  -6903293.59646  -5309606.27046  22477824.3694   22477824.1234
      1480.2344       1153.4294
   -257030.83747   -914722.82946  21819653.7294   21819653.1074
     -1573.8284      -1226.3604
    610742.10347    499252.34647  21397581.4324   21397579.7324
      -839.7814       -654.3754
 96  8 31  3 48  0.0020000  0  5G19G14G18G22G29
  -2862145.81845  -2125607.63343  24247169.1974   24247169.9004
      1851.3284       1442.5934
   5956222.03247   4667274.92947  21669889.3304   21669888.9674
     -2861.6724      -2229.8744
  -6947606.60546  -5344135.86746  22469391.7364   22469391.1864
      1474.1884       1148.7184
   -209505.37647   -877689.99346  21828697.4864   21828696.7834
     -1594.5624      -1242.5164
    636080.36147    518996.45147  21402403.2754   21402401.6934
      -849.1564       -661.6804
 96  8 31  3 48 30.0020000  0  5G19G14G18G22G29
  -2917580.92845  -2168803.74945  24236619.9394   24236621.3934
      1844.4064       1437.2004
   6042324.95647   4734368.09647  21686274.3074   21686274.1894
     -2878.5474      -2243.0244
  -6991741.53846  -5378526.70446  22460993.0414   22460992.5614
      1468.1564       1144.0184
   -161348.34147   -840165.02146  21837861.5334   21837860.9244
     -1615.8914      -1259.1364
    661693.41047    538954.67447  21407277.3224   21407275.5644
      -858.4224       -668.9004
 96  8 31  3 49  0.0020000  0  5G19G14G18G22G29
  -2972805.52445  -2211835.84645  24226110.1354   24226111.8814
      1837.6414       1431.9284
   6128933.51747   4801855.27447  21702755.4394   21702755.1824
     -2894.9844      -2255.8324
  -7035686.59646  -5412769.58646  22452630.6354   22452630.1664
      1461.8754       1139.1234
   -112543.93647   -802135.60446  21847148.5804   21847147.9824
     -1637.2344      -1275.7674
    687588.15847    559132.40747  21412204.9004   21412203.1894
      -867.6724       -676.1084
 96  8 31  3 49 30.0020000  0  5G19G14G18G22G29
  -3027831.37445  -2254713.05844  24215640.1824   24215641.8934
      1830.9534       1426.7174
   6216035.27947   4869726.76947  21719330.3304   21719330.1194
     -2911.7664      -2268.9084
  -7079452.10746  -5446872.56446  22444302.0574   22444301.3654
      1455.9694       1134.5214
    -63111.49647   -763616.81346  21856555.2134   21856554.9084
     -1658.0944      -1292.0214
    713766.10647    579530.81247  21417186.2524   21417184.6584
      -877.4224       -683.7054
 96  8 31  3 50  0.0020000  0  5G19G14G18G22G29
  -3082654.39345  -2297432.25644  24205207.0024   24205207.8574
      1823.7664       1421.1164
   6303644.80047   4937993.91647  21736001.8384   21736001.7794
     -2929.1564      -2282.4594
  -7123042.02046  -5480838.69746  22436007.5884   22436007.1544
      1450.0784       1129.9314
    -13049.32647   -724607.32446  21866081.5494   21866080.9754
     -1679.5624      -1308.7504
    740233.78347    600154.98547  21422222.8774   21422221.3304
      -887.1724       -691.3034
 96  8 31  3 50 30.0020000  0  5G19G14G18G22G29
  -3137266.47745  -2339987.05145  24194814.3934   24194815.8814
      1817.0944       1415.9174
   6391781.52047   5006671.85947  21752773.6194   21752773.6194
     -2946.5474      -2296.0114
  -7166462.99446  -5514673.20246  22427744.6824   22427744.0614
      1444.7504       1125.7794
     37656.85047   -685096.00946  21875730.7214   21875730.2754
     -1700.7034      -1325.2234
    766999.32947    621011.25747  21427316.3934   21427314.8814
      -897.2664       -699.1684
 96  8 31  3 51  0.0020000  0  5G19G14G18G22G29
  -3191676.47445  -2382384.40245  24184460.6664   24184460.9124
      1810.1564       1410.5114
   6480438.09447   5075754.89747  21769644.3464   21769644.4044
     -2963.8754      -2309.5134
  -7209725.24946  -5548384.02846  22419512.0494   22419511.5214
      1439.5164       1121.7004
     88990.76947   -645095.54546  21885499.2684   21885498.8344
     -1721.5784      -1341.4894
    794074.40747    642108.73447  21432468.3854   21432466.8384
      -907.8594       -707.4234
 96  8 31  3 51 30.0020000  0  5G19G14G18G22G29
  -3245876.77845  -2424618.35345  24174147.2214   24174148.1464
      1803.1254       1405.0324
   6569611.80747   5145240.90047  21786613.5494   21786613.6074
     -2981.0944      -2322.9304
  -7252840.96047  -5581980.66046  22411307.7604   22411306.9984
      1434.8754       1118.0844
    140953.72547   -604604.92446  21895387.4634   21895387.0064
     -1742.7974      -1358.0244
    821472.21047    663457.67347  21437682.1744   21437680.4864
      -918.6874       -715.8604
 96  8 31  3 52  0.0020000  0  5G19G14G18G22G29
  -3299864.46245  -2466686.61745  24163872.9634   24163874.0644
      1796.0474       1399.5174
   6659292.47047   5215121.92546  21803679.0574   21803678.9864
     -2997.4224      -2335.6534
  -7295813.60447  -5615465.81846  22403130.2054   22403129.7134
      1429.9844       1114.2744
    193560.77747   -563612.40846  21905398.1974   21905397.6464
     -1764.2344      -1374.7284
    849193.37447    685058.58447  21442957.3464   21442955.6584
      -929.4224       -724.2254
 96  8 31  3 52 30.0020000  0  5G19G14G18G22G29
  -3353642.54845  -2508591.56045  24153639.3384   24153641.3544
      1789.3754       1394.3184
   6749451.61847   5285375.79647  21820835.8544   21820835.8654
     -3012.9694      -2347.7684
  -7338635.78247  -5648833.72346  22394981.3144   22394980.8574
      1424.7194       1110.1704
    246799.41347   -522127.74546  21915529.1584   21915528.6784
     -1784.8124      -1390.7634
    877239.18647    706912.47247  21448294.3384   21448292.4754
      -940.2194       -732.6384
 96  8 31  3 53  0.0020000  0  5G19G14G18G22G29
  -3407227.85645  -2550346.30745  24143442.5494   24143443.4634
      1783.0784       1389.4124
   6840073.27847   5355990.07046  21838080.5724   21838080.8304
     -3028.5314      -2359.8944
  -7381289.65447  -5682070.48846  22386864.6434   22386864.2214
      1418.7814       1105.5444
    300649.34947   -480166.74946  21925776.5964   21925776.0454
     -1805.0944      -1406.5674
    905600.65747    729012.32847  21453691.1194   21453689.3964
      -950.4534       -740.6134
 96  8 31  3 53 30.0020000  0  5G19G14G18G22G29
  -3460612.46645  -2591944.65645  24133283.9794   24133284.6934
      1776.1414       1384.0064
   6931175.49047   5426978.79646  21855416.9714   21855416.9004
     -3044.9374      -2372.6794
  -7423743.78547  -5715151.61046  22378785.8224   22378785.5534
      1411.3444       1099.7484
    355119.67847   -437722.32646  21936142.1504   21936141.6004
     -1826.1094      -1422.9424
    934276.04147    751356.78647  21459147.8224   21459146.1004
      -961.0004       -748.8314
 96  8 31  3 54  0.0020000  0  5G19G14G18G22G29
  -3513805.09745  -2633393.39645  24123161.7444   24123161.3224
      1770.1724       1379.3554
   7022762.53947   5498345.32047  21872845.2914   21872845.2444
     -3060.7504      -2385.0004
  -7465972.24747  -5748056.89246  22370749.8774   22370749.4324
      1403.9224       1093.9654
    410195.93647   -394805.75246  21946622.5024   21946622.0574
     -1845.4064      -1437.9794
    963249.80547    773933.74447  21464661.3694   21464659.7644
      -970.5624       -756.2824
 96  8 31  3 54 30.0020000  0  5G19G14G18G22G29
  -3566804.76945  -2674691.79844  24113076.0964   24113076.6824
      1763.2664       1373.9734
   7114845.52347   5570098.28847  21890367.9634   21890367.6704
     -3078.0944      -2398.5154
  -7507963.85147  -5780777.60546  22362759.1744   22362758.5644
      1395.6094       1087.4884
    465856.96647   -351433.51146  21957214.6114   21957214.0964
     -1865.1724      -1453.3814
    992523.14947    796744.14947  21470232.0884   21470230.2014
      -980.7194       -764.1964
 96  8 31  3 55  0.0020000  0  5G19G14G18G22G29
  -3619596.52045  -2715828.17545  24103030.0494   24103030.6584
      1756.1884       1368.4584
   7207449.99847   5642257.60846  21907990.2134   21907990.0494
     -3095.4534      -2412.0414
  -7549710.00847  -5813307.06946  22354815.2294   22354814.8654
      1387.7194       1081.3394
    522109.81647   -307600.11846  21967919.1894   21967918.6274
     -1884.7504      -1468.6364
   1022090.11047    819783.34047  21475858.2994   21475856.7754
      -990.2504       -771.6234
 96  8 31  3 55 30.0020000  0  5G19G14G18G22G29
  -3672169.77845  -2756794.30044  24093025.5644   24093026.6664
      1748.8444       1362.7354
   7300569.00947   5714817.86847  21925710.2364   21925709.9324
     -3112.3284      -2425.1914
  -7591229.53147  -5845659.93646  22346914.0414   22346913.5024
      1380.4694       1075.6904
    578945.69747   -263312.40946  21978734.6974   21978734.1584
     -1904.2034      -1483.7954
   1051945.62547    843047.38147  21481539.7994   21481538.3694
     -1000.0004       -779.2214
 96  8 31  3 56  0.0020000  0  5G19G14G18G22G29
  -3724525.39545  -2797590.83345  24083062.6114   24083063.4204
      1740.9694       1356.5994
   7394193.07147   5787771.67046  21943526.4864   21943526.2874
     -3129.4694      -2438.5474
  -7632540.67347  -5877850.42546  22339053.2134   22339052.5804
      1373.3754       1070.1624
    636363.34247   -218571.37946  21989661.0024   21989660.2174
     -1924.2194      -1499.3914
   1082094.27247    866539.84347  21487276.4944   21487275.0294
     -1010.4534       -787.3664
 96  8 31  3 56 30.0020000  0  5G19G14G18G22G29
  -3776631.10545  -2838192.63645  24073147.2524   24073147.3344
      1732.9064       1350.3174
   7488332.26547   5861126.88047  21961440.5494   21961440.3384
     -3146.3284      -2451.6844
  -7673639.05447  -5909875.12946  22331232.2444   22331231.8574
      1366.7344       1064.9884
    694402.21047   -173346.28146  22000704.8544   22000704.4554
     -1944.9064      -1515.5114
   1112567.88947    890285.52147  21493075.5334   21493074.1744
     -1020.8284       -795.4504
 96  8 31  3 57  0.0020000  0  5G19G14G18G22G29
  -3828506.00645  -2878614.59445  24063275.3854   24063275.2444
      1725.4384       1344.4974
   7582968.28347   5934869.20346  21979448.9634   21979448.6234
     -3162.7034      -2464.4444
  -7714551.93947  -5941755.28846  22323446.6744   22323446.2174
      1360.7974       1060.3614
    753056.24947   -127641.82546  22011866.6894   22011866.2094
     -1965.4064      -1531.4854
   1143347.13947    914269.36047  21498932.5884   21498931.0184
     -1031.2974       -803.6084
 96  8 31  3 57 30.0020000  0  5G19G14G18G22G29
  -3880169.60745  -2918871.90245  24053444.7684   24053444.6154
      1718.6414       1339.2004
   7678078.96347   6008981.40646  21997547.9554   21997547.7214
     -3178.2034      -2476.5224
  -7755295.32147  -5973503.36346  22315693.6044   22315692.8894
      1355.2034       1056.0024
    812319.34047    -81462.78246  22023143.9944   22023143.6544
     -1985.8284      -1547.3994
   1174439.19547    938496.94647  21504849.3694   21504847.6824
     -1041.5944       -811.6314
 96  8 31  3 58  0.0020000  0  5G19G14G18G22G29
  -3931629.65645  -2958970.59745  24043651.8934   24043652.0924
      1711.6254       1333.7344
   7773649.06847   6083451.60746  22015734.5104   22015734.2754
     -3193.2664      -2488.2594
  -7795870.04047  -6005120.01146  22307972.3464   22307971.7484
      1349.4064       1051.4854
    872198.16147    -34803.95346  22034538.6664   22034538.3264
     -2006.4534      -1563.4704
   1205832.21347    962959.04447  21510823.0724   21510821.5494
     -1051.6414       -819.4604
 96  8 31  3 58 30.0030000  0  5G19G14G18G22G29
  -3982864.65745  -2998893.92245  24033901.9604   24033901.9254
      1704.2034       1327.9504
   7869681.06447   6158281.72346  22034008.7184   22034008.4954
     -3208.6874      -2500.2764
  -7836255.00247  -6036588.80646  22300287.5224   22300286.9484
      1342.8284       1046.3604
    932702.98947     12342.67846  22046052.4914   22046051.9054
     -2026.7974      -1579.3224
   1237544.17947    987669.67147  21516857.8664   21516856.2144
     -1062.2664       -827.7394
 96  8 31  3 59  0.0030000  0  5G19G14G18G22G29
  -4033891.62245  -3038655.14745  24024192.1944   24024192.4524
      1697.2194       1322.5084
   7966170.26147   6233468.09846  22052370.0624   22052369.7104
     -3224.2664      -2512.4154
  -7876440.27447  -6067901.98946  22292640.4684   22292639.5894
      1335.7344       1040.8324
    993801.72447     59952.09046  22057678.9524   22057678.5654
     -2046.7194      -1594.8464
   1269567.82447   1012623.17047  21522951.8124   21522950.1714
     -1073.0474       -836.1404
 96  8 31  3 59 30.0030000  0  5G19G14G18G22G29
  -4084704.56645  -3078249.59845  24014523.0304   24014523.2534
      1689.9384       1316.8344
   8063129.58947   6309020.81246  22070821.0074   22070820.4444
     -3240.0784      -2524.7364
  -7916400.05047  -6099039.46846  22285036.4524   22285035.6674
      1327.8594       1034.6964
   1055499.31347    108028.14346  22069419.4524   22069418.9954
     -2066.7504      -1610.4554
   1301918.97447   1037831.86647  21529107.6794   21529106.1444
     -1083.9844       -844.6634
 96  8 31  4  0  0.0030000  0  5G19G14G18G22G29
  -4135294.25345  -3117670.09445  24004896.1084   24004896.3784
      1682.8444       1311.3074
   8160571.21147   6384949.34246  22089363.3194   22089362.7924
     -3255.9064      -2537.0704
  -7956118.04847  -6129988.54346  22277478.3664   22277477.6514
      1320.0004       1028.5714
   1117798.52547    156572.99246  22081274.7264   22081274.2334
     -2086.3914      -1625.7594
   1334605.61047   1063301.97547  21535328.1794   21535326.6904
     -1095.1414       -853.3564
 96  8 31  4  0 30.0030000  0  5G19G14G18G22G29
  -4185681.76745  -3156933.04645  23995307.5934   23995307.6984
      1676.5784       1306.4254
   8258487.17747   6461247.49846  22107996.0464   22107995.7064
     -3271.8124      -2549.4644
  -7995602.73547  -6160755.81646  22269964.4524   22269963.5734
      1312.4224       1022.6664
   1180678.73647    205570.56646  22093240.3744   22093239.7764
     -2105.4844      -1640.6374
   1367626.34347   1089032.42147  21541611.6474   21541610.0074
     -1106.0784       -861.8794
 96  8 31  4  1  0.0030000  0  5G19G14G18G22G29
  -4235890.31445  -3196056.54345  23985753.0694   23985753.0224
      1670.3754       1301.5914
   8356874.61047   6537913.03246  22126718.5934   22126718.3004
     -3287.3594      -2561.5794
  -8034868.28147  -6191352.32946  22262492.6324   22262491.7184
      1305.1414       1016.9934
   1244132.92447    255015.40046  22105315.4764   22105314.8544
     -2124.8444      -1655.7224
   1400960.23947   1115006.89747  21547955.0304   21547953.4014
     -1116.4534       -869.9634
 96  8 31  4  1 30.0030000  0  5G19G14G18G22G29
  -4285897.18545  -3235022.88545  23976236.2494   23976236.4254
      1663.4384       1296.1854
   8455719.71347   6614935.17947  22145528.2654   22145528.0424
     -3302.1564      -2573.1094
  -8073914.01447  -6221777.56046  22255062.3044   22255061.0734
      1298.0784       1011.4894
   1308172.56047    304916.42546  22117501.7574   22117501.0654
     -2144.4224      -1670.9784
   1434615.03647   1141231.41647  21554359.1944   21554357.6474
     -1127.0624       -878.2314
 96  8 31  4  2  0.0030000  0  5G19G14G18G22G29
  -4335699.57145  -3273829.89345  23966759.8974   23966759.7574
      1656.5474       1290.8164
   8554993.38247   6692291.27546  22164419.5154   22164419.2104
     -3316.2344      -2584.0794
  -8112765.56047  -6252051.47546  22247669.0854   22247668.2414
      1291.9064       1006.6804
   1372792.55247    355269.67446  22129798.5304   22129798.0384
     -2163.6564      -1685.9664
   1468576.64547   1167695.00847  21560822.0544   21560820.4014
     -1137.2034       -886.1324
 96  8 31  4  2 30.0030000  0  5G19G14G18G22G29
  -4385286.30845  -3312468.86745  23957323.6324   23957323.8664
      1648.9534       1284.8994
   8654695.59647   6769981.30346  22183392.0934   22183391.7764
     -3330.9374      -2595.5364
  -8151427.97647  -6282178.01746  22240311.9994   22240311.2144
      1285.4534       1001.6524
   1437988.94447    406072.07046  22142205.3124   22142204.7144
     -2183.0624      -1701.0884
   1502845.28647   1194397.84747  21567342.9684   21567341.3974
     -1147.6724       -894.2904
 96  8 31  4  3  0.0030000  0  5G19G14G18G22G29
  -4434632.46545  -3350920.36245  23947933.8274   23947933.3474
      1640.8914       1278.6164
   8754852.35547   6848025.52146  22202451.3124   22202451.0894
     -3345.9844      -2607.2614
  -8189897.04047  -6312153.89746  22232991.2654   22232990.5624
      1279.2344        996.8064
   1503771.84947    457331.48846  22154722.9764   22154722.4014
     -2202.3594      -1716.1244
   1537433.69547   1221349.85547  21573924.9994   21573923.3354
     -1158.1724       -902.4724
 96  8 31  4  3 30.0030000  0  5G19G14G18G22G29
  -4483736.12645  -3389182.91445  23938589.2334   23938589.4334
      1632.7344       1272.2614
   8855462.76347   6926423.23346  22221596.8434   22221596.8434
     -3361.4694      -2619.3264
  -8228177.66547  -6341982.94246  22225706.8664   22225706.1284
      1272.7814        991.7784
   1570134.07447    509042.32146  22167351.3664   22167350.6044
     -2221.8754      -1731.3314
   1572340.59447   1248550.04147  21580567.3514   21580565.8974
     -1168.9224       -910.8484
 96  8 31  4  4  0.0030000  0  5G19G14G18G22G29
  -4532610.48745  -3427266.78645  23929288.6474   23929289.1874
      1625.6254       1266.7214
   8956535.33847   7005181.06446  22240830.1404   22240829.9524
     -3376.7974      -2631.2704
  -8266271.66947  -6371666.56846  22218457.9134   22218457.1404
      1266.6724        987.0174
   1637070.33247    561200.45346  22180088.9444   22180088.4874
     -2240.6094      -1745.9294
   1607555.43147   1275990.17947  21587268.5304   21587266.8434
     -1178.8914       -918.6164
 96  8 31  4  4 30.0030000  0  5G19G14G18G22G29
  -4581272.95345  -3465185.55145  23920028.7024   23920028.4684
      1618.4694       1261.1444
   9058079.00247   7084305.98946  22260153.4444   22260153.2334
     -3392.8284      -2643.7624
  -8304165.45347  -6401194.17946  22211246.9524   22211246.3784
      1259.4534        981.3924
   1704576.15747    613802.40546  22192934.8434   22192934.1984
     -2260.0784      -1761.1004
   1643077.82947   1303669.96347  21594028.4214   21594026.7454
     -1189.4224       -926.8224
 96  8 31  4  5  0.0030000  0  5G19G14G18G22G29
  -4629729.30445  -3502943.70845  23910807.3584   23910808.0154
      1611.9224       1256.0434
   9160091.76347   7163796.44346  22279565.8904   22279565.5504
     -3407.9064      -2655.5114
  -8341837.56647  -6430549.06146  22204078.0544   22204077.1754
      1251.7034        975.3534
   1772669.60047    666862.23746  22205892.5774   22205892.1674
     -2279.6564      -1776.3564
   1678915.19947   1331595.19347  21600847.8434   21600846.3194
     -1199.9534       -935.0284
 96  8 31  4  5 30.0030000  0  5G19G14G18G22G29
  -4677986.68745  -3540546.81445  23901624.7964   23901625.0304
      1605.3284       1250.9054
   9262548.25647   7243632.65846  22299062.7024   22299062.2694
     -3422.2814      -2666.7134
  -8379254.97647  -6459705.46646  22196957.8354   22196957.0734
      1242.9384        968.5234
   1841360.98347    720388.00546  22218964.2024   22218963.7454
     -2299.6094      -1791.9034
   1715085.79647   1359780.08547  21607730.7654   21607729.3354
     -1211.3284       -943.8924
 96  8 31  4  6  0.0030000  0  5G19G14G18G22G29
  -4726049.60845  -3577998.40045  23892478.3194   23892479.1044
      1598.6724       1245.7184
   9365423.24247   7323794.96846  22318639.1084   22318639.0854
     -3436.2344      -2677.5854
  -8416411.85247  -6488658.85646  22189887.1404   22189886.4954
      1234.0634        961.6074
   1910649.44147    774379.01646  22232149.0624   22232148.4404
     -2319.7504      -1807.5974
   1751599.33747   1388232.19647  21614679.0624   21614677.5734
     -1223.0944       -953.0604
 96  8 31  4  6 30.0030000  0  5G19G14G18G22G29
  -4773917.12645  -3615297.71645  23883369.5854   23883370.2764
      1592.2034       1240.6784
   9468708.31647   7404276.83546  22338293.7334   22338293.4524
     -3449.4844      -2687.9104
  -8453310.35247  -6517410.91346  22182865.6244   22182864.8864
      1225.7664        955.1424
   1980535.05147    828835.34946  22245447.8514   22245447.4404
     -2339.3754      -1822.8904
   1788455.56847   1416951.33947  21621692.5464   21621691.1754
     -1234.1254       -961.6564
 96  8 31  4  7  0.0030000  0  5G19G14G18G22G29
  -4821571.48345  -3652430.93845  23874301.1084   23874300.9094
      1584.6094       1234.7614
   9572393.02647   7485070.10546  22358024.2184   22358023.7374
     -3462.9224      -2698.3814
  -8489961.17047  -6545969.97646  22175891.1944   22175890.2574
      1217.6094        948.7874
   2051008.67647    883749.86646  22258858.7724   22258858.1634
     -2358.8284      -1838.0484
   1825650.71147   1445934.57347  21628770.3274   21628768.9684
     -1245.4534       -970.4834
 96  8 31  4  7 30.0030000  0  5G19G14G18G22G29
  -4868993.47045  -3689383.09745  23865276.8974   23865276.8044
      1576.5784       1228.5024
   9676485.15547   7566180.85246  22377832.2574   22377831.8354
     -3476.9534      -2709.3144
  -8526380.63847  -6574348.76646  22168960.8354   22168959.8394
      1210.2974        943.0884
   2122058.16147    939113.11246  22272378.9524   22272378.5774
     -2377.9224      -1852.9264
   1863170.01647   1475170.40147  21635910.4374   21635909.0654
     -1255.8754       -978.6044
 96  8 31  4  8  0.0030000  0  5G19G14G18G22G29
  -4916165.80245  -3726140.70645  23856300.3434   23856300.9874
      1568.3914       1222.1234
   9781020.90147   7647637.26346  22397724.7264   22397724.6444
     -3492.1874      -2721.1854
  -8562579.97847  -6602556.03346  22162072.2184   22162071.5384
      1203.0784        937.4634
   2193683.07047    994924.73746  22286008.8354   22286008.2024
     -2396.8754      -1867.6954
   1900998.01647   1504646.76647  21643108.4764   21643107.1634
     -1265.8284       -986.3604
 96  8 31  4  8 30.0030000  0  5G19G14G18G22G29
  -4963099.37545  -3762712.27445  23847368.8434   23847369.3234
      1560.8134       1216.2184
   9886022.18147   7729456.42746  22417705.8904   22417705.6324
     -3507.6874      -2733.2634
  -8598559.61847  -6630592.09946  22155225.4294   22155224.7374
      1195.6884        931.7054
   2265869.10947   1051173.60946  22299745.3354   22299744.6904
     -2415.2814      -1882.0374
   1939122.21347   1534353.94047  21650363.4444   21650362.2024
     -1275.6874       -994.0424
 96  8 31  4  9  0.0030000  0  5G19G14G18G22G29
  -5009817.53545  -3799115.99845  23838478.9524   23838479.5624
      1553.7664       1210.7264
   9991488.17047   7811637.71546  22437775.3194   22437775.0504
     -3523.5624      -2745.6334
  -8634319.13147  -6658456.64546  22148420.6084   22148419.8704
      1188.1254        925.8124
   2338600.05747   1107847.08546  22313585.5464   22313584.8314
     -2433.6094      -1896.3194
   1977545.21447   1564293.94147  21657675.2334   21657673.8864
     -1285.8754      -1001.9814
 96  8 31  4  9 30.0030000  0  5G19G14G18G22G29
  -5056333.21945  -3835361.93645  23829626.4834   23829626.8354
      1547.3754       1205.7474
  10097434.58147   7894193.34746  22457936.2654   22457936.2764
     -3539.4374      -2758.0034
  -8669843.78547  -6686138.17946  22141660.4914   22141659.6124
      1180.1884        919.6274
   2411887.32347   1164954.05246  22327531.6474   22327530.9334
     -2452.0784      -1910.7104
   2016280.04147   1594476.92847  21665046.2264   21665044.5154
     -1296.6254      -1010.3574
 96  8 31  4 10  0.0030000  0  5G19G14G18G22G29
  -5102661.27345  -3871461.68245  23820811.3514   23820811.8084
      1541.1724       1200.9134
  10203849.70147   7977114.19946  22478186.4994   22478186.3354
     -3554.6724      -2769.8744
  -8705122.53547  -6713628.10946  22134947.2264   22134946.2884
      1171.7664        913.0644
   2485722.26347   1222487.77746  22341581.9994   22341581.3194
     -2470.1724      -1924.8094
   2055350.64947   1624921.56747  21672481.0074   21672479.5424
     -1308.1254      -1019.3184
 96  8 31  4 10 30.0030000  0  5G19G14G18G22G29
  -5148801.64545  -3907415.17445  23812031.0544   23812031.3004
      1534.4384       1195.6664
  10310709.24747   8060381.35946  22498521.1794   22498521.0154
     -3569.5474      -2781.4654
  -8740153.63347  -6740925.06046  22128281.1084   22128280.1944
      1163.2974        906.4654
   2560097.74747   1280442.71046  22355735.0934   22355734.5774
     -2488.5314      -1939.1154
   2094766.59047   1655635.29847  21679981.8354   21679980.1594
     -1319.9844      -1028.5594
 96  8 31  4 11  0.0030000  0  5G19G14G18G22G29
  -5194735.24145  -3943207.54445  23803289.6794   23803289.4564
      1527.8914       1190.5644
  10417999.82047   8143984.39946  22518937.9134   22518937.7844
     -3582.9694      -2791.9244
  -8774940.63947  -6768031.81546  22121661.1944   22121660.3394
      1156.0004        900.7794
   2635017.53547   1338821.77246  22369991.8904   22369991.3624
     -2506.0164      -1952.7394
   2134530.68647   1686620.31647  21687548.6794   21687547.0504
     -1330.7194      -1036.9244
 96  8 31  4 11 30.0030000  0  5G19G14G18G22G29
  -5240466.83545  -3978842.53145  23794587.4444   23794587.8544
      1520.8594       1185.0854
  10525689.56747   8227898.48346  22539430.3434   22539430.2374
     -3596.0944      -2802.1514
  -8809501.15247  -6794962.08046  22115084.4764   22115083.9254
      1148.1564        894.6674
   2710465.92347   1397612.72846  22384349.1714   22384348.4794
     -2523.6874      -1966.5104
   2174620.59047   1717859.21447  21695177.6084   21695176.0384
     -1341.9374      -1045.6664
 96  8 31  4 12  0.0030000  0  5G19G14G18G22G29
  -5285980.70045  -4014307.83745  23785926.5074   23785927.2574
      1513.5634       1179.3994
  10633769.94247   8312116.94946  22559997.5464   22559997.6044
     -3609.1094      -2812.2934
  -8843825.12147  -6821708.02446  22108552.8974   22108552.1474
      1140.3284        888.5674
   2786444.43447   1456816.76846  22398807.8124   22398807.1324
     -2541.5164      -1980.4024
   2215046.11947   1749359.63247  21702870.0154   21702868.3514
     -1352.8284      -1054.1524
 96  8 31  4 12 30.0030000  0  5G19G14G18G22G29
  -5331291.55245  -4049614.95045  23777304.0464   23777304.4564
      1506.9694       1174.2614
  10742233.93147   8396634.33146  22580637.6014   22580637.5304
     -3621.9534      -2822.3014
  -8877931.75847  -6848284.61646  22102062.3974   22102061.7534
      1133.3594        883.1374
   2862955.11347   1516435.48446  22413367.0624   22413366.3354
     -2559.3754      -1994.3184
   2255783.83947   1781103.31247  21710622.4374   21710620.7844
     -1363.2664      -1062.2854
 96  8 31  4 13  0.0030000  0  5G19G14G18G22G29
  -5376396.13345  -4084761.32945  23768721.0224   23768721.3394
      1500.0314       1168.8564
  10851088.23347   8481455.84646  22601351.8044   22601351.6634
     -3634.9534      -2832.4314
  -8911818.03647  -6874689.49746  22095614.3354   22095613.7374
      1125.7664        877.2204
   2940010.42247   1576478.59246  22428030.2184   22428029.5734
     -2577.7504      -2008.6364
   2296852.81747   1813105.11447  21718437.2334   21718435.5814
     -1374.6874      -1071.1854
 96  8 31  4 13 30.0030000  0  5G19G14G18G22G29
  -5421289.18545  -4119742.89945  23760177.9054   23760178.4684
      1492.7974       1163.2184
  10960332.63747   8566581.32846  22622140.4914   22622140.2804
     -3647.9374      -2842.5494
  -8945471.87747  -6900913.26446  22089210.2184   22089209.6084
      1117.9694        871.1444
   3017623.46747   1636956.29646  22442799.7184   22442798.9794
     -2596.4064      -2023.1744
   2338272.43347   1845380.14747  21726319.2654   21726317.8234
     -1386.5784      -1080.4504
 96  8 31  4 14  0.0030000  0  5G19G14G18G22G29
  -5465955.02845  -4154547.40145  23751678.3044   23751678.7724
      1485.1414       1157.2524
  11069978.97646   8652020.02046  22643005.4684   22643005.5034
     -3661.6414      -2853.2264
  -8978889.55247  -6926953.00746  22082851.0304   22082850.1164
      1110.0314        864.9594
   3095804.13047   1697876.30246  22457676.7414   22457675.9214
     -2615.3754      -2037.9554
   2380052.45947   1877936.01147  21734269.6554   21734267.9914
     -1398.5314      -1089.7654
 96  8 31  4 14 30.0030000  0  5G19G14G18G22G29
  -5510394.88845  -4189175.84345  23743221.6634   23743221.9214
      1477.4694       1151.2744
  11180026.03846   8737770.96046  22663946.5854   22663946.6674
     -3674.7974      -2863.4784
  -9012072.23747  -6952809.64246  22076536.6324   22076535.7294
      1102.0004        858.7014
   3174541.59547   1759230.17746  22472660.1084   22472659.2414
     -2633.8124      -2052.3214
   2422185.77347   1910767.16647  21742287.6014   21742286.1124
     -1410.5004      -1099.0914
 96  8 31  4 15  0.0030000  0  5G19G14G18G22G29
  -5554607.67345  -4223627.32845  23734808.2574   23734808.6444
      1469.9384       1145.4064
  11290459.60846   8823823.08046  22684961.3824   22684961.5464
     -3687.6874      -2873.5234
  -9045003.55047  -6978470.40046  22070269.9764   22070269.0974
      1093.0784        851.7494
   3253825.11047   1821009.54946  22487747.1324   22487746.2654
     -2651.9534      -2066.4574
   2464676.72347   1943876.99647  21750373.2334   21750371.8154
     -1422.2664      -1108.2594
 96  8 31  4 15 30.0030000  0  5G19G14G18G22G29
  -5598597.14546  -4257904.80245  23726437.4214   23726437.5264
      1462.5314       1139.6354
  11401281.18246   8910177.53946  22706050.1944   22706050.2184
     -3700.6724      -2883.6404
  -9077662.78847  -7003919.15246  22064055.1944   22064054.3974
      1083.9694        844.6514
   3333649.43447   1883210.32546  22502936.9134   22502936.0224
     -2669.8124      -2080.3734
   2507510.20747   1977253.73447  21758524.2334   21758522.7224
     -1433.5004      -1117.0134
 96  8 31  4 16  0.0030000  0  5G19G14G18G22G29
  -5642377.74646  -4292019.51945  23718106.1554   23718106.5074
      1456.2034       1134.7044
  11512488.71346   8996832.74846  22727212.1874   22727211.9054
     -3713.0474      -2893.2834
  -9110051.27447  -7029156.92946  22057891.7024   22057890.7764
      1075.1884        837.8084
   3413996.63847   1945818.54446  22518226.9524   22518226.1324
     -2686.5624      -2093.4254
   2550672.40047   2010886.60747  21766737.7334   21766736.2454
     -1443.9694      -1125.1704
 96  8 31  4 16 30.0030000  0  5G19G14G18G22G29
  -5685962.97346  -4325981.99945  23709812.2494   23709812.1904
      1449.7034       1129.6394
  11624064.22546   9083774.68446  22748444.3904   22748444.2614
     -3725.2344      -2902.7804
  -9142170.35447  -7054184.78246  22051779.8194   22051778.9524
      1066.3444        830.9174
   3494856.73247   2008826.41346  22533613.8824   22533613.4134
     -2704.0784      -2107.0744
   2594159.05147   2044772.31147  21775012.9914   21775011.6554
     -1455.0474      -1133.8034
 96  8 31  4 17  0.0030000  0  5G19G14G18G22G29
  -5729354.27046  -4359793.35945  23701555.2724   23701555.5774
      1442.8914       1124.3304
  11736015.04846   9171009.08146  22769747.9054   22769747.7294
     -3738.2664      -2912.9344
  -9174023.52347  -7079005.43046  22045718.3354   22045717.3624
      1057.0944        823.7094
   3576243.90447   2072244.99446  22549101.1404   22549100.3784
     -2721.7974      -2120.8814
   2637975.96547   2078915.35247  21783351.1794   21783349.6794
     -1466.1254      -1142.4354
 96  8 31  4 17 30.0030000  0  5G19G14G18G22G29
  -5772534.22946  -4393440.03745  23693338.2024   23693338.8704
      1435.6414       1118.6814
  11848353.15446   9258545.25546  22791125.2334   22791125.0814
     -3751.0004      -2922.8574
  -9205608.85647  -7103617.36646  22039707.8904   22039706.9994
      1048.5944        817.0864
   3658160.84047   2136076.37646  22564689.6714   22564689.0974
     -2739.4064      -2134.6024
   2682126.38547   2113318.27447  21791752.5774   21791751.1594
     -1477.3594      -1151.1894
 96  8 31  4 18  0.0030000  0  5G19G14G18G22G29
  -5815490.60646  -4426912.49445  23685163.8974   23685164.0974
      1428.1094       1112.8134
  11961077.55046   9346382.43246  22812576.0304   22812575.8664
     -3763.8754      -2932.8904
  -9236941.97447  -7128032.77646  22033745.3974   22033744.6124
      1040.3134        810.6334
   3740611.06347   2200323.30846  22580379.2654   22580378.8084
     -2757.1724      -2148.4464
   2726614.51547   2147984.34947  21800218.2654   21800216.6594
     -1488.4844      -1159.8584
 96  8 31  4 18 30.0030000  0  5G19G14G18G22G29
  -5858204.36046  -4460195.90645  23677035.5074   23677035.6124
      1419.8444       1106.3724
  12074201.30546   9434530.79546  22834102.8824   22834102.6834
     -3777.4534      -2943.4704
  -9268016.27647  -7152246.51446  22027832.0304   22027830.9874
      1031.6254        803.8644
   3823603.90547   2264993.05946  22596172.2494   22596171.5934
     -2775.2814      -2162.5574
   2771441.55547   2182914.51147  21808748.7334   21808747.0464
     -1499.7504      -1168.6364
 96  8 31  4 19  0.0030000  0  5G19G14G18G22G29
  -5900679.11846  -4493293.09045  23668952.9834   23668952.9014
      1411.6884       1100.0164
  12187723.97246   9522990.00646  22855705.5074   22855705.6014
     -3790.7034      -2953.7954
  -9298834.55747  -7176260.74346  22021967.4994   22021966.7024
      1022.6884        796.8994
   3907117.62447   2330068.68746  22612064.3974   22612063.5424
     -2792.3444      -2175.8524
   2816591.26747   2218096.10447  21817340.2264   21817338.4914
     -1510.3914      -1176.9284
 96  8 31  4 19 30.0030000  0  5G19G14G18G22G29
  -5942912.76646  -4526202.38445  23660916.4684   23660916.6084
      1403.8914       1093.9414
  12301629.70446   9611747.70646  22877380.8274   22877380.8274
     -3803.0474      -2963.4134
  -9329389.16947  -7200069.52046  22016153.1014   22016152.1634
      1014.2194        790.3004
   3991143.02047   2395543.02946  22628054.1404   22628053.5074
     -2809.4374      -2189.1724
   2862060.40547   2253526.60647  21825992.9214   21825991.2454
     -1521.0004      -1185.1954
 96  8 31  4 20  0.0030000  0  5G19G14G18G22G29
  -5984916.72546  -4558932.70645  23652923.5304   23652923.3664
      1396.4534       1088.1454
  12415910.72046   9700797.83546  22899127.8354   22899127.8824
     -3815.6254      -2973.2144
  -9359681.05147  -7223673.57646  22010388.9054   22010388.0734
      1005.0634        783.1664
   4075684.10647   2461419.20646  22644141.5624   22644140.7184
     -2826.5314      -2202.4924
   2907851.22447   2289207.76847  21834706.5304   21834705.0544
     -1531.8754      -1193.6694
 96  8 31  4 20 30.0030000  0  5G19G14G18G22G29
  -6026713.15646  -4591501.32345  23644969.5304   23644969.3784
      1390.2034       1083.2754
  12530557.13246   9790132.68546  22920944.4444   22920944.3624
     -3827.2504      -2982.2734
  -9389693.21147  -7247059.65446  22004677.5624   22004676.5544
       995.8594        775.9944
   4160726.90547   2527686.32246  22660324.4444   22660323.8234
     -2842.8914      -2215.2394
   2953972.08047   2325146.09747  21843483.3514   21843481.8154
     -1542.9224      -1202.2774
 96  8 31  4 21  0.0030000  0  5G19G14G18G22G29
  -6068334.53046  -4623933.52545  23637048.9214   23637048.6984
      1384.2974       1078.6734
  12645545.18046   9879733.74446  22942825.8584   22942825.7414
     -3838.7344      -2991.2224
  -9419434.32447  -7270234.53446  21999017.7724   21999016.9294
       986.5944        768.7744
   4246258.33647   2594334.19246  22676600.6404   22676599.9954
     -2859.4064      -2228.1094
   3000432.45847   2361348.99347  21852324.0774   21852322.6244
     -1554.7034      -1211.4574
 96  8 31  4 21 30.0030000  0  5G19G14G18G22G29
  -6109776.26646  -4656225.75045  23629163.1714   23629163.4054
      1378.5474       1074.1924
  12760873.81246   9969600.18546  22964772.3194   22964772.4374
     -3849.8914      -2999.9154
  -9448902.11447  -7293196.43246  21993410.3824   21993409.5974
       977.9064        762.0054
   4332286.48747   2661369.12246  22692971.2964   22692970.8744
     -2875.6414      -2240.7594
   3047259.79247   2397837.82547  21861235.1014   21861233.5544
     -1567.0624      -1221.0884
 96  8 31  4 22  0.0030000  0  5G19G14G18G22G29
  -6151041.28246  -4688380.27645  23621310.2654   23621310.6044
      1372.3444       1069.3594
  12876546.79946  10059734.96446  22986783.9914   22986783.8044
     -3861.8444      -3009.2294
  -9478102.01547  -7315949.58346  21987853.9294   21987852.9564
       968.5474        754.7124
   4418791.64647   2728775.74246  22709432.8974   22709432.3584
     -2891.5314      -2253.1414
   3094458.11647   2434615.73847  21870216.7104   21870215.0814
     -1579.6414      -1230.8894
 96  8 31  4 22 30.0030000  0  5G19G14G18G22G29
  -6192109.48346  -4720381.42745  23613495.4214   23613494.9994
      1365.1564       1063.7584
  12992582.54346  10150152.41346  23008865.0774   23008865.1714
     -3874.1254      -3018.7994
  -9507021.28247  -7338484.06446  21982350.8044   21982349.8544
       959.2974        747.5044
   4505774.85747   2796554.86846  22725985.1014   22725984.3744
     -2907.6874      -2265.7314
   3142040.78947   2471693.15147  21879271.4214   21879269.7574
     -1592.7194      -1241.0804
 96  8 31  4 23  0.0030000  0  5G19G14G18G22G29
  -6232948.49546  -4752203.99945  23605724.1554   23605723.9564
      1356.9694       1057.3784
  13108983.92346  10240854.76746  23031015.5624   23031015.9724
     -3886.1414      -3028.1624
  -9535674.51047  -7360811.23446  21976898.1714   21976897.1404
       950.5164        740.6624
   4593242.08347   2864711.15446  22742629.5464   22742628.9954
     -2923.7034      -2278.2104
   3190006.13347   2509068.75347  21888398.9684   21888397.2924
     -1605.0784      -1250.7104
 96  8 31  4 23 30.0030000  0  5G19G14G18G22G29
  -6273526.78146  -4783823.40945  23598002.1404   23598002.0114
      1348.3754       1050.6824
  13225744.99246  10331837.40046  23053234.4374   23053234.2264
     -3897.8594      -3037.2934
  -9564054.31047  -7382925.35046  21971497.7334   21971496.6444
       941.5784        733.6974
   4681194.70047   2933245.66046  22759366.4374   22759365.7454
     -2939.7974      -2290.7514
   3238334.26947   2546727.04747  21897595.4134   21897593.7844
     -1616.5314      -1259.6354
 96  8 31  4 24  0.0030000  0  5G19G14G18G22G29
  -6313842.47146  -4815238.20145  23590330.2414   23590328.9294
      1339.4384       1043.7184
  13342863.67046  10423098.69246  23075521.2494   23075521.3434
     -3909.8124      -3046.6074
  -9592153.41547  -7404820.73946  21966150.8124   21966149.9334
       931.8754        726.1364
   4769643.80447   3002167.04346  22776197.7724   22776197.1634
     -2956.8594      -2304.0464
   3286999.47747   2584647.98347  21906856.0854   21906854.4564
     -1627.6874      -1268.3284
 96  8 31  4 24 30.0030000  0  5G19G14G18G22G29
  -6353897.61746  -4846449.97745  23582708.0224   23582708.2454
      1330.8284       1037.0094
  13460322.94446  10514625.38046  23097873.1164   23097872.9524
     -3920.7344      -3055.1184
  -9619973.44247  -7426498.66446  21960856.7884   21960855.9334
       922.7344        719.0144
   4858604.56847   3071487.11546  22793126.4914   22793125.6944
     -2973.8914      -2317.3174
   3335993.90747   2622825.46047  21916179.4994   21916177.7414
     -1638.5624      -1276.8024
 96  8 31  4 25  0.0030000  0  5G19G14G18G22G29
  -6393698.58546  -4877463.68745  23575134.5224   23575134.2294
      1322.8594       1030.8004
  13578104.05546  10606402.85746  23120286.2654   23120286.0424
     -3931.2814      -3063.3364
  -9647514.46847  -7447959.19546  21955615.9294   21955614.7924
       913.2974        711.6604
   4948078.24747   3141206.86546  22810152.5154   22810151.7294
     -2990.8914      -2330.5644
   3385307.16947   2661251.37547  21925563.5694   21925561.8474
     -1648.8284      -1284.8014
 96  8 31  4 25 30.0030000  0  5G19G14G18G22G29
  -6433275.22146  -4908302.57845  23567603.1324   23567603.0264
      1315.7344       1025.2484
  13696209.09546  10698432.74746  23142760.5624   23142760.4794
     -3942.4694      -3072.0544
  -9674761.21147  -7469190.41546  21950430.9764   21950429.9914
       903.2974        703.8684
   5038063.28947   3211325.08046  22827276.2334   22827275.5544
     -3008.0944      -2343.9694
   3434933.53147   2699921.26747  21935006.9444   21935005.3154
     -1659.7034      -1293.2754
 96  8 31  4 26  0.0030000  0  5G19G14G18G22G29
  -6472660.29946  -4938992.21245  23560108.3514   23560108.5974
      1309.9384       1020.7314
  13814644.54346  10790720.09446  23165298.1634   23165298.2454
     -3953.3124      -3080.5034
  -9701726.37047  -7490202.21246  21945299.5934   21945298.6554
       894.3914        696.9284
   5128548.27847   3281832.86746  22844494.7964   22844494.3394
     -3024.3124      -2356.6074
   3484884.95747   2738844.45347  21944512.7024   21944511.0264
     -1670.6094      -1301.7744
 96  8 31  4 26 30.0030000  0  5G19G14G18G22G29
  -6511875.98246  -4969549.85145  23552645.6714   23552645.7654
      1304.3914       1016.4084
  13933407.28446  10883262.47446  23187898.1084   23187898.3084
     -3964.3594      -3089.1114
  -9728429.55147  -7511009.87646  21940218.3514   21940217.3434
       885.6724        690.1344
   5219508.61147   3352711.04746  22861804.2104   22861803.7414
     -3039.6414      -2368.5514
   3535172.31347   2778029.40147  21954081.8274   21954080.1404
     -1681.9534      -1310.6134
 96  8 31  4 27  0.0030000  0  5G19G14G18G22G29
  -6550925.64646  -4999978.11845  23545214.7884   23545214.8004
      1298.6094       1011.9034
  14052514.51746  10976073.29246  23210563.4764   23210563.5814
     -3976.3444      -3098.4504
  -9754861.40247  -7531606.11246  21935188.4764   21935187.4914
       876.2194        682.7684
   5310928.11247   3423947.02646  22879200.5774   22879200.0264
     -3055.1094      -2380.6054
   3585807.53847   2817485.42647  21963717.3514   21963715.7804
     -1694.0164      -1320.0124
 96  8 31  4 27 30.0030000  0  5G19G14G18G22G29
  -6589804.38446  -5030273.21845  23537816.5544   23537816.7764
      1292.8444       1007.4114
  14171973.28546  11069158.03446  23233295.7184   23233295.9054
     -3987.7344      -3107.3254
  -9781019.87647  -7551989.32546  21930210.5154   21930209.4954
       867.5314        675.9984
   5402799.30447   3495534.95846  22896683.1014   22896682.6084
     -3069.9224      -2392.1474
   3636804.63147   2857223.41547  21973421.6244   21973420.0424
     -1706.1564      -1329.4724
 96  8 31  4 28  0.0030000  0  5G19G14G18G22G29
  -6628490.79746  -5060418.44645  23530454.6474   23530454.6834
      1286.0314       1002.1024
  14291772.79646  11162508.28946  23256093.0694   23256092.5894
     -3998.9844      -3116.0924
  -9806916.60947  -7572168.58146  21925282.5154   21925281.5544
       858.6254        669.0584
   5495121.40147   3567474.25346  22914251.2414   22914250.6204
     -3085.0474      -2403.9334
   3688172.69847   2897250.47647  21983196.9134   21983195.2144
     -1718.4534      -1339.0544
 96  8 31  4 28 30.0030000  0  5G19G14G18G22G29
  -6666959.78346  -5090394.23245  23523134.5544   23523134.3664
      1278.8444        996.5024
  14411906.34546  11256118.84146  23278953.5224   23278953.4294
     -4009.4694      -3124.2614
  -9832531.67347  -7592128.35947  21920408.2334   21920407.1444
       849.2814        661.7784
   5587900.23547   3639769.44546  22931906.6794   22931906.1404
     -3099.8284      -2415.4504
   3739902.00647   2937559.01947  21993040.6404   21993038.8824
     -1729.7974      -1347.8944
 96  8 31  4 29  0.0030000  0  5G19G14G18G22G29
  -6705197.54846  -5120189.87045  23515857.9294   23515857.9054
      1270.7344        990.1834
  14532362.44146  11349980.71946  23301875.2724   23301875.3084
     -4020.3914      -3132.7724
  -9857853.86047  -7611859.92047  21915589.4684   21915588.5194
       839.4224        654.0954
   5681138.80846   3712422.87746  22949649.4134   22949649.0624
     -3115.7664      -2427.8694
   3791978.45847   2978138.07247  22002950.5304   22002948.8314
     -1741.4844      -1357.0014
 96  8 31  4 29 30.0030000  0  5G19G14G18G22G29
  -6743203.68446  -5149805.01745  23508625.2334   23508625.1984
      1262.9694        984.1314
  14653129.93346  11444085.24646  23324856.8664   23324856.6904
     -4030.8594      -3140.9294
  -9882895.61347  -7631372.96446  21910824.3974   21910823.3904
       829.9384        646.7054
   5774851.80046   3785445.98746  22967482.4764   22967481.7844
     -3131.7974      -2440.3614
   3844391.92347   3018979.72847  22012924.3584   22012922.7534
     -1752.8444      -1365.8524
 96  8 31  4 30  0.0030000  0  5G19G14G18G22G29
  -6780979.40146  -5179240.60845  23501436.6554   23501436.9954
      1255.4064        978.2394
  14774219.58946  11538440.80146  23347899.3974   23347899.2454
     -4042.0314      -3149.6354
  -9907643.09947  -7650656.70847  21906114.9444   21906113.9134
       819.6564        638.6934
   5869045.36946   3858843.56746  22985406.6874   22985406.2534
     -3147.8444      -2452.8654
   3897145.73947   3060086.58947  22022963.1164   22022961.2414
     -1764.1874      -1374.6924
 96  8 31  4 30 30.0040000  0  5G19G14G18G22G29
  -6818543.62246  -5208511.40645  23494288.6444   23494288.5164
      1248.6414        972.9674
  14895646.31046  11633059.01646  23371006.3014   23371006.0434
     -4053.0164      -3158.1944
  -9932081.04247  -7669699.24646  21901464.5744   21901463.6954
       809.3444        630.6574
   5963714.28846   3932611.55046  23003421.4734   23003421.0624
     -3163.3594      -2464.9554
   3950235.31647   3101455.08547  22033065.6374   22033063.8554
     -1775.3284      -1383.3734
 96  8 31  4 31  0.0040000  0  5G19G14G18G22G29
  -6855895.61446  -5237616.81945  23487181.0354   23487181.5984
      1241.5634        967.4514
  15017404.36146  11727935.40946  23394176.1294   23394176.0474
     -4064.1254      -3166.8514
  -9956209.25947  -7688500.44247  21896873.3324   21896872.3244
       799.1884        622.7444
   6058850.80046   4006743.90146  23021525.8094   23021525.3634
     -3179.0784      -2477.2044
   4003677.95347   3143098.69147  22043235.4344   22043233.8404
     -1787.4844      -1392.8454
 96  8 31  4 31 30.0040000  0  5G19G14G18G22G29
  -6893039.16746  -5266559.83445  23480112.5824   23480112.3364
      1234.6724        962.0824
  15139484.76446  11823062.98646  23417406.8944   23417407.0004
     -4074.5474      -3174.9724
  -9980028.68647  -7707061.02546  21892340.3794   21892339.4414
       788.6414        614.5254
   6154447.64546   4081234.93446  23039717.2384   23039716.8984
     -3193.8284      -2488.6974
   4057478.61847   3185021.27347  22053473.5354   22053471.9184
     -1799.2814      -1402.0374
 96  8 31  4 32  0.0040000  0  5G19G14G18G22G29
  -6929968.93046  -5295336.23445  23473084.7694   23473084.8984
      1227.5474        956.5304
  15261880.83946  11918436.53946  23440697.9654   23440698.1174
     -4084.8754      -3183.0194
 -10003516.55047  -7725363.24347  21887870.7464   21887869.7854
       777.4534        605.8084
   6250489.61546   4156072.83146  23057993.1994   23057992.7074
     -3208.7974      -2500.3614
   4111637.99547   3227223.37647  22063779.5984   22063777.8874
     -1811.0944      -1411.2424
 96  8 31  4 32 30.0040000  0  5G19G14G18G22G29
  -6966684.49846  -5323945.74845  23466098.4574   23466098.8674
      1220.0004        950.6494
  15384568.82646  12014037.55046  23464045.1444   23464045.0274
     -4094.1874      -3190.2764
 -10026682.03947  -7743414.26147  21883462.3484   21883461.5274
       766.9844        597.6504
   6346975.92146   4231256.96146  23076354.0274   23076353.6414
     -3223.6414      -2511.9284
   4166146.22047   3269697.30547  22074152.1604   22074150.3914
     -1822.9224      -1420.4594
 96  8 31  4 33  0.0040000  0  6G19G 3G14G18G22G29
  -7003163.19646  -5352370.68545  23459156.3714   23459156.6054
      1212.1724        944.5504
     -7029.10554                  25461202.5124
      1405.2664
  15507525.17546  12109847.68346  23487442.5664   23487442.6374
     -4102.7194      -3196.9244
 -10049539.57347  -7761225.31546  21879112.7624   21879112.0234
       756.9534        589.8344
   6443905.14046   4306786.22446  23094798.9654   23094798.4964
     -3238.1254      -2523.2144
   4221021.19947   3312457.02047  22084594.6914   22084593.0164
     -1835.1254      -1429.9684
 96  8 31  4 33 30.0040000  0  6G19G 3G14G18G22G29
  -7039419.06746  -5380621.98745  23452257.1294   23452257.3164
      1205.0314        938.9854
    -49059.13144                  25453204.0354
      1396.8284
  15630735.76646  12205855.92445  23510889.0984   23510889.1444
     -4111.2504      -3203.5714
 -10072095.55747  -7778801.39647  21874820.6134   21874819.7934
       746.7344        581.8714
   6541262.18446   4382648.85646  23113325.1994   23113324.6134
     -3252.3284      -2534.2824
   4276249.63847   3355492.16047  22095104.3164   22095102.7584
     -1846.7344      -1439.0144
 96  8 31  4 34  0.0040000  0  6G19G 3G14G18G22G29
  -7075468.33746  -5408712.30445  23445397.3794   23445396.9224
      1198.1094        933.5924
    -90837.28244     -2163.67452  25445253.9884   25445253.4144
      1388.3134       1081.8024
  15754199.91346  12302061.73446  23534383.2694   23534383.2584
     -4119.8594      -3210.2804
 -10094349.65447  -7796142.23847  21870585.6524   21870584.6444
       736.7194        574.0674
   6639050.81546   4458847.78346  23131934.1844   23131933.6564
     -3267.1874      -2545.8604
   4331825.40547   3398797.94547  22105679.8404   22105678.4224
     -1858.5474      -1448.2184
 96  8 31  4 34 30.0040000  0  6G19G 3G14G18G22G29
  -7111311.10446  -5436641.70945  23438576.6214   23438576.3404
      1191.2344        928.2354
   -132376.63644    -34531.97243  25437349.1444   25437350.3874
      1380.8284       1075.9704
  15877920.75146  12398467.57446  23557926.6524   23557926.8874
     -4128.3754      -3216.9164
 -10116307.11747  -7813251.94146  21866407.3014   21866406.2694
       726.9844        566.4814
   6737278.73746   4535389.01446  23150626.2074   23150625.6684
     -3281.4694      -2556.9894
   4387760.41047   3442383.65647  22116323.9804   22116322.3754
     -1870.6094      -1457.6184
 96  8 31  4 35  0.0040000  0  6G19G 3G14G18G22G29
  -7146950.02446  -5464412.27645  23431794.7464   23431794.0554
      1184.7194        923.1574
   -173680.74845    -66716.98442  25429489.2074   25429490.6954
      1372.8754       1069.7734
  16001908.79246  12495081.61346  23581521.0354   23581521.0004
     -4137.6724      -3224.1604
 -10137962.07747  -7830125.92947  21862286.5824   21862285.6564
       716.5784        558.3734
   6835936.89246   4612265.49646  23169400.2464   23169399.6024
     -3295.8284      -2568.1784
   4444057.80747   3486251.74447  22127037.1054   22127035.4654
     -1882.3594      -1466.7744
 96  8 31  4 35 30.0040000  0  6G19G 3G14G18G22G29
  -7182403.77946  -5492038.54245  23425048.0354   23425047.8594
      1179.0634        918.7504
   -214752.61545    -98721.03442  25421674.2384   25421673.4184
      1365.5784       1064.0874
  16126183.62146  12591919.13446  23605169.5354   23605169.8754
     -4147.1094      -3231.5144
 -10159300.52747  -7846753.28247  21858226.1524   21858225.2154
       706.2194        550.3004
   6935033.07846   4689483.29846  23188257.8324   23188257.2584
     -3310.3754      -2579.5134
   4500692.16547   3530382.40947  22137814.2154   22137812.3874
     -1893.0784      -1475.1264
 96  8 31  4 36  0.0040000  0  6G19G 3G14G18G22G29
  -7217678.22846  -5519525.10745  23418335.6994   23418335.6524
      1172.2344        913.4294
   -255605.01344   -130554.01342  25413899.9654   25413899.6134
      1357.6414       1057.9024
  16250747.98946  12688982.27345  23628873.3634   23628873.5394
     -4157.4694      -3239.5864
 -10180327.65147  -7863138.04747  21854224.7304   21854223.5474
       695.5164        541.9604
   7034566.43146   4767041.75546  23207198.1604   23207197.7384
     -3325.2344      -2591.0924
   4557655.92547   3574769.75047  22148654.0194   22148652.3794
     -1904.7504      -1484.2214
 96  8 31  4 36 30.0040000  0  6G19G 3G14G18G22G29
  -7252746.01246  -5546850.63245  23411662.4344   23411662.5394
      1165.5314        908.2064
   -296221.60144   -162203.30741  25406170.6294   25406172.6564
      1350.0004       1051.9484
  16375618.24146  12786283.74745  23652635.5514   23652635.7974
     -4167.2664      -3247.2204
 -10201044.22147  -7879280.82647  21850282.4104   21850281.5554
       685.5944        534.2294
   7134526.88746   4844933.01446  23226220.1134   23226219.5044
     -3338.7974      -2601.6604
   4614963.57147   3619425.04547  22159559.2774   22159557.7774
     -1915.8444      -1492.8654
 96  8 31  4 37  0.0040000  0  6G19G 3G14G18G22G29
  -7287608.17546  -5574015.92345  23405028.1444   23405027.6994
      1158.7504        902.9224
   -336601.16944   -193667.86943  25398486.5514   25398485.0744
      1342.2344       1045.8974
  16500784.72146  12883816.05445  23676453.7234   23676453.9224
     -4177.0164      -3254.8174
 -10221458.78647  -7895188.27447  21846397.5824   21846396.6444
       675.3914        526.2784
   7234897.93746   4923144.22446  23245319.8634   23245319.4064
     -3352.4694      -2612.3134
   4672605.57447   3664340.89047  22170528.1994   22170526.6874
     -1926.7974      -1501.4004
 96  8 31  4 37 30.0040000  0  6G19G 3G14G18G22G29
  -7322268.55246  -5601023.98445  23398432.6134   23398432.0164
      1151.7974        897.5044
   -376754.96344   -224956.52543  25390845.0984   25390845.5784
      1334.5634       1039.9194
  16626234.50446  12981569.11745  23700326.5904   23700326.7304
     -4186.3594      -3262.0984
 -10241561.91947  -7910853.04647  21842572.0124   21842571.1334
       664.7344        517.9754
   7335678.05746   5001674.17746  23264497.4654   23264496.8324
     -3366.2034      -2623.0154
   4730579.19247   3709515.12747  22181560.2774   22181558.7664
     -1938.2504      -1510.3254
 96  8 31  4 38  0.0040000  0  6G19G 3G14G18G22G29
  -7356709.75446  -5627861.24845  23391878.8404   23391878.8284
      1144.4384        891.7694
   -416682.23844   -256068.63842  25383247.0354   25383245.8404
      1327.5314       1034.4404
  16751960.15946  13079537.14845  23724251.4184   23724251.4304
     -4195.0314      -3268.8564
 -10261343.55147  -7926267.29847  21838807.8404   21838807.0554
       654.2974        509.8424
   7436862.79846   5080519.42846  23283752.4804   23283751.9774
     -3379.1874      -2633.1334
   4788903.30847   3754962.48547  22192658.8874   22192657.4574
     -1949.8124      -1519.3344
 96  8 31  4 38 30.0040000  0  6G19G 3G14G18G22G29
  -7390922.97046  -5654520.87745  23385368.3244   23385368.1844
      1136.9064        885.9014
   -456395.95044   -287014.36841  25375690.1214   25375692.2194
      1320.4844       1028.9494
  16877941.38746  13177704.32245  23748224.6524   23748224.7814
     -4203.2664      -3275.2724
 -10280803.93047  -7941431.22247  21835104.5044   21835103.7774
       643.2504        501.2344
   7538448.47646   5159677.09446  23303083.8094   23303083.3984
     -3392.8914      -2643.8114
   4847582.03647   3800686.17147  22203825.0664   22203823.6024
     -1961.8444      -1528.7094
 96  8 31  4 39  0.0040000  0  6G19G 3G14G18G22G29
  -7424928.95846  -5681019.02246  23378896.8094   23378896.7384
      1130.0314        880.5444
   -495908.24744   -317803.15743  25368171.0044   25368171.5784
      1313.4384       1023.4584
  17004154.94546  13276052.53145  23772242.0044   23772241.9804
     -4211.1254      -3281.3964
 -10299934.79247  -7956338.37347  21831464.0744   21831463.2194
       631.8754        492.3704
   7640437.90046   5239149.36846  23322491.5194   23322491.0514
     -3406.6414      -2654.5254
   4906615.13047   3846685.97646  22215058.7694   22215057.3754
     -1973.7974      -1538.0244
 96  8 31  4 39 30.0040000  0  6G19G 3G14G18G22G29
  -7458724.77046  -5707353.39545  23372465.6604   23372465.4374
      1122.8914        874.9804
   -535196.47044   -348417.33543  25360695.2074   25360695.7464
      1305.4694       1017.2484
  17130604.80146  13374584.87245  23796304.9414   23796305.0124
     -4219.0164      -3287.5454
 -10318726.27647  -7970981.08047  21827888.2154   21827887.3594
       621.0164        483.9084
   7742844.05246   5318946.36046  23341979.2234   23341978.8014
     -3420.4064      -2665.2524
   4966018.26047   3892974.12747  22226362.7624   22226361.3444
     -1986.5314      -1547.9464
 96  8 31  4 40  0.0040000  0  6G19G 3G14G18G22G29
  -7492295.91246  -5733512.69946  23366077.6524   23366077.5594
      1115.0164        868.8434
   -574232.35444   -378834.86143  25353267.2624   25353267.1684
      1296.5944       1010.3334
  17257301.12946  13473309.26745  23820414.6764   23820414.9574
     -4227.5474      -3294.1924
 -10337198.70347  -7985375.17147  21824373.0274   21824372.0314
       610.3134        475.5684
   7845664.51546   5399066.20046  23361545.2624   23361544.8754
     -3434.4844      -2676.2224
   5025817.69047   3939571.07847  22237742.0824   22237740.6414
     -2000.3444      -1558.7094
 96  8 31  4 40 30.0040000  0  6G19G 3G14G18G22G29
  -7525647.57046  -5759500.98546  23359730.8714   23359730.9184
      1108.2664        863.5844
   -612992.42145   -409037.50142  25345890.8794   25345891.0554
      1287.0314       1002.8814
  17384247.85946  13572228.78245  23844571.7154   23844571.7974
     -4235.7974      -3300.6214
 -10355358.20847  -7999525.42847  21820917.4264   21820916.4184
       600.0784        467.5934
   7948893.55046   5479504.40446  23381188.7154   23381188.1644
     -3447.6094      -2686.4494
   5086023.33447   3986484.55647  22249199.0984   22249197.5394
     -2013.4224      -1568.9004
 96  8 31  4 41  0.0040000  0  6G19G 3G14G18G22G29
  -7558780.54246  -5785318.86145  23353425.7774   23353425.7304
      1100.9534        857.8864
   -651441.61345   -438997.87143  25338574.1444   25338574.8834
      1276.5944        994.7484
  17511466.33146  13671360.03445  23868780.3244   23868781.2504
     -4245.0164      -3307.8044
 -10373195.83747  -8013424.87347  21817523.0594   21817522.1804
       589.5944        459.4244
   8052529.72646   5560259.85446  23400910.1764   23400909.5194
     -3461.0474      -2696.9204
   5146629.15947   4033709.86047  22260731.8944   22260730.2194
     -2026.4064      -1579.0184
 96  8 31  4 41 30.0040000  0  6G19G 3G14G18G22G29
  -7591697.67546  -5810968.54845  23347161.5594   23347161.6054
      1093.8284        852.3344
   -689585.67045   -468720.49243  25331315.2624   25331317.2304
      1266.6564        987.0054
  17638951.45646  13770699.09145  23893039.7154   23893040.0784
     -4253.6874      -3314.5624
 -10390733.99547  -8027090.96547  21814185.4024   21814184.6054
       579.8134        451.8024
   8156555.51246   5641318.90146  23420705.4414   23420704.8094
     -3473.6874      -2706.7694
   5207607.83747   4081225.70147  22272335.7854   22272334.2274
     -2038.4694      -1588.4174
 96  8 31  4 42  0.0040000  0  6G19G 3G14G18G22G29
  -7624389.80146  -5836442.91546  23340940.7934   23340940.5944
      1085.9694        846.2094
   -727418.94845   -498200.94643  25324115.9804   25324116.2734
      1255.9534        978.6654
  17766703.44146  13870246.06745  23917350.2774   23917350.4534
     -4262.6874      -3321.5754
 -10407950.20647  -8040506.19147  21810909.3014   21810908.4344
       567.9694        442.5734
   8260972.69446   5722682.93446  23440575.7234   23440575.0084
     -3487.1724      -2717.2774
   5268947.40147   4129022.75647  22284008.6054   22284006.9884
     -2050.4374      -1597.7444
 96  8 31  4 42 30.0040000  0  6G19G 3G14G18G22G29
  -7656860.48546  -5861744.71946  23334761.6214   23334761.5394
      1078.8594        840.6704
   -764945.14845   -527442.10643  25316974.7384   25316974.2114
      1246.0314        970.9334
  17894711.49146  13969992.58545  23941709.7234   23941709.8054
     -4271.0164      -3328.0644
 -10424808.91047  -8053642.83947  21807701.3874   21807700.5664
       556.0474        433.2834
   8365781.65346   5804352.24646  23460519.8794   23460519.7504
     -3500.1094      -2727.3584
   5330621.27847   4177080.31047  22295744.5274   22295742.8524
     -2061.0624      -1606.0234
 96  8 31  4 43  0.0040000  0  6G19G 3G14G18G22G29
  -7689123.47046  -5886884.68546  23328622.0664   23328622.2774
      1072.1094        835.4104
   -802200.40945   -556472.13842  25309886.1764   25309887.4534
      1237.7504        964.4814
  18022951.94546  14069920.19345  23966112.9024   23966113.2774
     -4278.2974      -3333.7384
 -10441318.13547  -8066507.16647  21804559.7304   21804558.8164
       544.6254        424.3834
   8470982.31046   5886326.77745  23480538.6684   23480538.2114
     -3513.1874      -2737.5494
   5392609.85547   4225383.08747  22307540.4344   22307538.9104
     -2071.5624      -1614.2054
 96  8 31  4 43 30.0040000  0  6G19G 3G14G18G22G29
  -7721199.96946  -5911879.33246  23322518.1214   23322517.9454
      1066.0784        830.7104
   -839216.17545   -585315.55943  25302841.1764   25302840.3444
      1229.7194        958.2224
  18151397.38646  14170007.52645  23990554.9654   23990555.3984
     -4285.0164      -3338.9734
 -10457484.39347  -8079104.24347  21801483.4184   21801482.5514
       532.7664        415.1424
   8576565.45046   5968599.34046  23500630.5904   23500630.2624
     -3525.9224      -2747.4724
   5454913.99747   4273931.76246  22319396.8014   22319395.3124
     -2082.3124      -1622.5814
 96  8 31  4 44  0.0040000  0  6G19G 3G14G18G22G29
  -7753091.04546  -5936729.50646  23316449.4884   23316449.4534
      1060.1884        826.1204
   -875990.41345   -613970.78243  25295843.4184   25295842.9734
      1222.0474        952.2444
  18280050.04446  14270256.33345  24015037.0664   24015037.7464
     -4291.8754      -3344.3184
 -10473282.37947  -8091414.35547  21798477.1684   21798476.2664
       520.6094        405.6704
   8682538.19746   6051175.50345  23520796.6914   23520796.0704
     -3538.7814      -2757.4924
   5517550.60347   4322739.49547  22331316.0514   22331314.7154
     -2093.3444      -1631.1774
 96  8 31  4 44 30.0040000  0  6G19G 3G14G18G22G29
  -7784808.20746  -5961444.16346  23310414.0124   23310414.0944
      1054.2664        821.5064
   -912536.37545   -642448.14743  25288889.0124   25288888.8364
      1214.2344        946.1574
  18408917.87046  14370672.80945  24039559.6294   24039559.6644
     -4299.4064      -3350.1874
 -10488730.31847  -8103451.70947  21795537.5664   21795536.7344
       509.3444        396.8914
   8788900.06246   6134054.86746  23541036.8794   23541036.2344
     -3552.0784      -2767.8534
   5580527.73547   4371812.57447  22343300.1604   22343298.7424
     -2105.1874      -1640.4064
 96  8 31  4 45  0.0040000  0  6G19G 3G14G18G22G29
  -7816346.79646  -5986019.65946  23304412.6914   23304412.4804
      1048.0474        816.6604
   -948842.80545   -670738.85543  25281980.7234   25281981.7544
      1205.7504        939.5454
  18538012.75746  14471266.20645  24064126.0194   24064125.9844
     -4307.2504      -3356.2994
 -10503844.79247  -8115229.22047  21792661.3944   21792660.5164
       497.9384        388.0034
   8895659.79946   6217244.26545  23561352.4184   23561351.5044
     -3565.4374      -2778.2634
   5643868.69947   4421169.15647  22355353.5434   22355351.9964
     -2117.7664      -1650.2074
 96  8 31  4 45 30.0040000  0  6G19G 3G14G18G22G29
  -7847691.59846  -6010444.15946  23298447.3874   23298447.1174
      1041.2344        811.3514
   -984878.47745   -698818.57243  25275123.3554   25275122.9804
      1196.2504        932.1434
  18667345.78746  14572045.17445  24088737.1374   24088736.7624
     -4315.1724      -3362.4724
 -10518611.67247  -8126735.87347  21789851.3554   21789850.3944
       486.3134        378.9454
   9002817.65946   6300743.89346  23581744.1054   23581743.4264
     -3578.5944      -2788.5154
   5707584.78747   4470818.04547  22367478.3794   22367476.8324
     -2130.2194      -1659.9114
 96  8 31  4 46  0.0040000  0  6G19G 3G14G18G22G29
  -7878817.42446  -6034698.03046  23292524.5354   23292524.5824
      1033.9064        805.6414
  -1020617.50545   -726667.13343  25268322.2694   25268320.7814
      1186.2814        924.3754
  18796918.52146  14673010.93545  24113394.0824   24113393.7304
     -4323.0164      -3368.5844
 -10533030.59347  -8137971.39047  21787107.5354   21787106.4694
       474.9844        370.1184
   9110370.09846   6384550.98145  23602210.4494   23602209.9804
     -3591.4844      -2798.5594
   5771679.99747   4520762.35447  22379675.3634   22379673.9104
     -2142.8124      -1669.7244
 96  8 31  4 46 30.0040000  0  6G19G 3G14G18G22G29
  -7909713.93346  -6058773.20946  23286644.9964   23286644.7384
      1025.8284        799.3474
  -1056035.98945   -754265.94043  25261582.1054   25261582.6094
      1175.0164        915.5974
  18926734.91946  14774166.55145  24138097.3484   24138097.4414
     -4331.2034      -3374.9634
 -10547104.64247  -8148938.17147  21784429.4344   21784428.3914
       463.2034        360.9384
   9218311.64146   6468661.26445  23622751.1294   23622750.5434
     -3604.4844      -2808.6894
   5836164.37347   4571009.90947  22391946.2154   22391944.7624
     -2156.1724      -1680.1344
 96  8 31  4 47  0.0040000  0  6G19G 3G14G18G22G29
  -7940373.72246  -6082663.93146  23280810.7304   23280810.3444
      1018.2974        793.4784
  -1091126.32245   -781609.02045  25254905.2304   25254904.5624
      1164.5164        907.4154
  19056778.14746  14875498.92045  24162843.6914   24162844.1374
     -4338.2034      -3380.4184
 -10560818.27847  -8159624.12447  21781819.7384   21781818.6604
       451.0314        351.4534
   9326622.97946   6553059.71145  23643362.4344   23643362.0004
     -3616.2194      -2817.8334
   5901038.63047   4621561.26747  22404291.5194   22404289.9964
     -2168.7034      -1689.8994
 96  8 31  4 47 30.0040000  0  6G19G 3G14G18G22G29
  -7970806.91146  -6106378.07846  23275019.3794   23275019.2034
      1010.3444        787.2814
  -1125904.92445   -808709.19543  25248286.8324   25248286.4104
      1153.9224        899.1604
  19187027.20446  14976991.67245  24187629.2694   24187629.1764
     -4345.2974      -3385.9464
 -10574165.32047  -8170024.40947  21779279.7544   21779278.6994
       438.5474        341.7254
   9435282.94046   6637729.80246  23664039.3484   23664038.9734
     -3627.9224      -2826.9524
   5966281.19047   4672399.61647  22416706.5984   22416705.1564
     -2180.9844      -1699.4684
 96  8 31  4 48  0.0040000  0  6G19G 3G14G18G22G29
  -8001003.65046  -6129907.98846  23269273.3164   23269273.2464
      1002.9224        781.4984
  -1160372.07745   -835566.67044  25241727.6524   25241727.0194
      1143.9384        891.3804
  19317490.60446  15078651.45745  24212455.3324   24212455.8124
     -4352.2194      -3391.3394
 -10587132.70747  -8180128.86047  21776812.0904   21776811.0824
       425.9534        331.9124
   9544291.58546   6722671.58746  23684783.2934   23684782.8364
     -3639.4534      -2835.9374
   6031892.27747   4723525.12847  22429192.0904   22429190.6024
     -2192.9694      -1708.8074
 96  8 31  4 48 30.0040000  0  6G19G 3G14G18G22G29
  -8030978.74046  -6153265.17846  23263569.1914   23263569.0514
       995.5634        775.7634
  -1194532.17445   -862184.92442  25235227.2694   25235227.7854
      1133.6094        883.3324
  19448168.74546  15180478.56345  24237322.8484   24237322.6484
     -4359.3444      -3396.8914
 -10599718.34647  -8189935.84647  21774417.2074   21774416.2464
       413.2664        322.0254
   9653656.13546   6807890.71645  23705594.2934   23705593.8834
     -3651.4374      -2845.2764
   6097862.15947   4774930.21847  22441745.8944   22441744.3014
     -2204.8914      -1718.0974
 96  8 31  4 49  0.0040000  0  6G19G 3G14G18G22G29
  -8060743.74346  -6176458.66546  23257904.8634   23257904.4064
       988.7504        770.4554
  -1228398.03945   -888573.89244  25228782.5194   25228781.2894
      1124.0164        875.8564
  19579047.89046  15282462.29645  24262228.3714   24262228.2774
     -4365.9844      -3402.0664
 -10611934.90447  -8199455.23247  21772092.3014   21772091.3404
       401.2194        312.6384
   9763375.46146   6893386.28545  23726473.0984   23726472.5944
     -3663.3594      -2854.5664
   6164178.60247   4826605.36147  22454365.4884   22454363.7774
     -2216.2814      -1726.9724
 96  8 31  4 49 30.0040000  0  6G19G 3G14G18G22G29
  -8090294.41646  -6199485.14146  23252281.7694   23252281.5824
       981.1254        764.5134
  -1261963.44745   -914728.71045  25222395.6914   25222396.8524
      1113.4694        867.6384
  19710140.04646  15384612.01645  24287174.5984   24287174.8674
     -4373.5314      -3407.9464
 -10623796.35847  -8208697.91647  21769835.1134   21769833.9414
       389.4534        303.4704
   9873467.13446   6979171.99945  23747423.1684   23747422.8284
     -3676.1094      -2864.5014
   6230846.51947   4878554.37547  22467051.8874   22467050.3404
     -2228.3754      -1736.3964
 96  8 31  4 50  0.0040000  0  6G19G 3G14G18G22G29
  -8119627.05146  -6222341.72146  23246699.6054   23246699.3834
       974.4064        759.2784
  -1295214.65145   -940638.72944  25216067.6844   25216068.3284
      1103.2034        859.6394
  19841445.31646  15486927.78745  24312160.9734   24312160.7384
     -4380.1254      -3413.0844
 -10635307.87547  -8217667.92646  21767644.5664   21767643.5474
       378.0314        294.5704
   9983931.30946   7065247.97245  23768443.8094   23768443.0944
     -3688.2194      -2873.9374
   6297879.25247   4930787.66747  22479807.7384   22479806.1094
     -2240.5314      -1745.8694
 96  8 31  4 50 30.0040000  0  6G19G 3G14G18G22G29
  -8148755.68146  -6245039.33346  23241156.8404   23241156.8164
       967.5314        753.9204
  -1328153.73145   -966305.50144  25209800.0044   25209800.4964
      1092.9224        851.6274
  19972952.98145  15589401.28745  24337185.7854   24337186.0084
     -4386.8754      -3418.3444
 -10646477.33647  -8226371.40046  21765519.3164   21765518.1804
       366.6254        285.6824
  10094757.13246   7151605.74645  23789533.1764   23789532.8244
     -3699.9224      -2883.0564
   6365282.63647   4983309.77247  22492634.2774   22492632.6484
     -2253.0004      -1755.5844
 96  8 31  4 51  0.0040000  0  6G19G 3G14G18G22G29
  -8177673.27946  -6267572.51346  23235654.0354   23235653.7664
       960.3914        748.3564
  -1360791.48745   -991737.50643  25203588.9574   25203588.6174
      1082.9534        843.8604
  20104656.87445  15692027.68545  24362248.6684   24362248.7974
     -4393.2814      -3423.3364
 -10657295.67147  -8234801.26647  21763460.7464   21763459.8204
       354.6724        276.3684
  10205925.10646   7238230.13645  23810687.6054   23810687.2304
     -3711.0944      -2891.7614
   6433058.81847   5036122.37147  22505531.5824   22505529.8834
     -2265.2194      -1765.1064
 96  8 31  4 51 30.0040000  0  6G19G 3G14G18G22G29
  -8206370.08946  -6289933.64646  23230193.1684   23230193.4734
       952.9694        742.5734
  -1393117.39845  -1016926.51643  25197437.9344   25197437.0434
      1072.2974        835.5564
  20236557.08045  15794807.05545  24387348.2384   24387348.5904
     -4399.7664      -3428.3894
 -10667746.35947  -8242944.65747  21761471.8634   21761471.0194
       342.1414        266.6034
  10317425.50246   7325113.55045  23831905.4964   23831905.0044
     -3721.9694      -2900.2354
   6501209.46647   5089226.76547  22518500.3554   22518498.8554
     -2277.7974      -1774.9074
 96  8 31  4 52  0.0040000  0  6G19G 3G14G18G22G29
  -8234846.73946  -6312123.22346  23224774.2624   23224774.0514
       945.5634        736.8024
  -1425124.50945  -1041867.08944  25191346.6844   25191347.5164
      1061.6094        827.2284
  20368639.09245  15897728.09145  24412482.3094   24412482.9774
     -4405.7974      -3433.0884
 -10677813.17047  -8250788.92347  21759556.2854   21759555.4534
       329.0784        256.4254
  10429243.25546   7412244.25445  23853183.7854   23853183.3754
     -3732.5624      -2908.4904
   6569733.54247   5142622.14447  22531540.0354   22531538.4064
     -2290.2974      -1784.6474
 96  8 31  4 52 30.0040000  0  6G19G 3G14G18G22G29
  -8263095.54346  -6334135.26146  23219398.6524   23219398.4884
       937.7974        730.7514
  -1456805.25445  -1066553.36444  25185317.8794   25185318.0904
      1050.4694        818.5474
  20500914.93945  16000800.16745  24437654.1134   24437654.3594
     -4412.3594      -3438.2024
 -10687490.79147  -8258329.92347  21757714.5824   21757713.7854
       316.2504        246.4294
  10541386.79946   7499628.83145  23874524.2074   23874524.0434
     -3743.5164      -2917.0254
   6638629.69247   5196307.44747  22544650.5664   22544649.0314
     -2302.6254      -1794.2534
 96  8 31  4 53  0.0040000  0  6G19G 3G14G18G22G29
  -8291115.37146  -6355968.88246  23214066.6844   23214066.4964
       930.3754        724.9684
  -1488142.57545  -1090972.02244  25179355.0194   25179356.5194
      1038.6254        809.3184
  20633375.18445  16104015.93745  24462860.4344   24462860.5044
     -4418.2504      -3442.7924
 -10696791.76547  -8265577.43147  21755944.7074   21755943.6644
       304.0944        236.9564
  10653861.30246   7587271.29145  23895927.1054   23895927.0704
     -3754.5944      -2925.6574
   6707889.67447   5250276.25547  22557830.2234   22557828.7114
     -2314.5474      -1803.5434
 96  8 31  4 53 30.0040000  0  6G19G 3G14G18G22G29
  -8318910.44046  -6377627.35246  23208777.4184   23208776.9964
       923.0164        719.2334
  -1519111.39745  -1115103.54243  25173461.5044   25173461.4804
      1026.4384        799.8214
  20766017.41345  16207373.50245  24488101.2934   24488101.6214
     -4424.0474      -3447.3094
 -10705736.08647  -8272547.03147  21754242.6994   21754241.7504
       292.5784        227.9834
  10766672.98646   7675176.48645  23917394.6524   23917394.5004
     -3765.7974      -2934.3874
   6777513.04747   5304528.22847  22571079.2544   22571078.0124
     -2326.5004      -1812.8574
 96  8 31  4 54  0.0040000  0  6G19G 3G14G18G22G29
  -8346482.92146  -6399112.38346  23203530.6684   23203530.5274
       915.5004        713.3774
  -1549719.30245  -1138953.81645  25167637.0744   25167635.6334
      1014.3914        790.4344
  20898830.59545  16310864.28945  24513374.4804   24513374.6214
     -4430.0474      -3451.9854
 -10714336.44747  -8279248.60247  21752606.0514   21752605.2544
       281.1254        219.0584
  10879825.49746   7763347.27145  23938926.8014   23938926.5084
     -3777.4534      -2943.4704
   6847493.23347   5359058.23547  22584395.8874   22584394.3404
     -2338.6414      -1822.3174
 96  8 31  4 54 30.0040000  0  6G19G 3G14G18G22G29
  -8373847.12746  -6420435.13146  23198323.4574   23198323.0824
       908.6884        708.0684
  -1579978.13745  -1162532.08945  25161879.0664   25161878.8324
      1002.7344        781.3514
  21031818.47845  16414491.19745  24538681.2384   24538681.4614
     -4435.6874      -3456.3804
 -10722602.20247  -8285689.44447  21751033.2624   21751032.0194
       269.7034        210.1584
  10993315.36446   7851780.92845  23960523.3794   23960522.8984
     -3788.5784      -2952.1394
   6917828.55647   5413864.97547  22597780.1054   22597778.6764
     -2350.5474      -1831.5954
 96  8 31  4 55  0.0040000  0  6G19G 3G14G18G22G29
  -8401004.94246  -6441597.04846  23193155.4264   23193155.0624
       902.0004        702.8574
  -1609891.38645  -1185841.10045  25156186.5514   25156186.3054
       991.8594        772.8774
  21164966.97045  16518243.27945  24564018.7854   24564018.8554
     -4440.7504      -3460.3254
 -10730511.79547  -8291852.76347  21749527.9734   21749527.0704
       257.7194        200.8204
  11107135.04046   7940471.58045  23982182.4884   23982182.2304
     -3799.0164      -2960.2724
   6988526.26247   5468954.09247  22611233.5984   22611232.1444
     -2362.4374      -1840.8604
 96  8 31  4 55 30.0040000  0  6G19G 3G14G18G22G29
  -8427956.04146  -6462597.89846  23188026.9264   23188026.6804
       894.9534        697.3664
  -1639485.98845  -1208901.78843  25150554.6444   25150553.4964
       981.3444        764.6834
  21298277.15945  16622121.34345  24589386.4734   24589387.0824
     -4446.4374      -3464.7564
 -10738044.63947  -8297722.51147  21748094.5664   21748093.4884
       244.3914        190.4344
  11221261.79946   8029401.51945  24003899.9574   24003899.9104
     -3809.3444      -2968.3204
   7059589.81047   5524328.27446  22624756.5124   22624755.0824
     -2375.1254      -1850.7474
 96  8 31  4 56  0.0040000  0  6G19G 3G14G18G22G29
  -8454709.96446  -6483445.09446  23182935.7464   23182935.4654
       888.7194        692.5084
  -1668771.17345  -1231721.39044  25144981.7304   25144981.2624
       971.0634        756.6724
  21431757.41445  16726131.92645  24614787.1764   24614788.2194
     -4452.2664      -3469.2984
 -10745171.62847  -8303276.00247  21746738.1764   21746737.1684
       230.7034        179.7694
  11335692.59046   8118568.36245  24025675.0194   24025674.5984
     -3819.2974      -2976.0754
   7131033.60047   5579998.75746  22638352.0514   22638350.6804
     -2387.7344      -1860.5724
 96  8 31  4 56 30.0040000  0  6G19G 3G14G18G22G29
  -8481273.63946  -6504144.04446  23177880.7694   23177880.6524
       882.0474        687.3094
  -1697743.50145  -1254297.20644  25139468.6524   25139468.8284
       960.2664        748.2594
  21565410.20045  16830276.93445  24640220.6844   24640221.6564
     -4457.7814      -3473.5964
 -10751874.12347  -8308498.72347  21745463.0194   21745462.0824
       216.1724        168.4464
  11450423.99046   8207969.44445  24047507.9024   24047507.2694
     -3829.4374      -2983.9774
   7202854.49347   5635963.08347  22652018.9804   22652017.4804
     -2400.2194      -1870.3004
 96  8 31  4 57  0.0040000  0  6G19G 3G14G18G22G29
  -8507632.86246  -6524683.67946  23172864.8714   23172864.8014
       875.1254        681.9164
  -1726386.07045  -1276616.04545  25134018.4414   25134018.7934
       949.1094        739.5664
  21699225.42045  16934548.52745  24665684.4884   24665685.3914
     -4463.4064      -3477.9794
 -10758153.21547  -8313391.51547  21744267.9654   21744266.8754
       202.4384        157.7444
  11565459.16146   8297607.24145  24069398.3634   24069398.0824
     -3839.7034      -2991.9764
   7275043.23147   5692214.04046  22665756.0594   22665754.5824
     -2412.3594      -1879.7614
 96  8 31  4 57 30.0040000  0  6G19G 3G14G18G22G29
  -8533784.37946  -6545061.46746  23167888.1914   23167887.9344
       868.4384        676.7054
  -1754681.82045  -1298664.63644  25128633.8164   25128632.9024
       937.2814        730.3494
  21833211.08845  17038952.94745  24691180.6994   24691181.2154
     -4468.7344      -3482.1314
 -10764024.59947  -8317966.61547  21743150.5044   21743149.4264
       189.2504        147.4684
  11680813.92846   8387494.06345  24091350.1134   24091349.7154
     -3850.7504      -3000.5844
   7347591.66647   5748745.27846  22679561.5594   22679560.1054
     -2423.9374      -1888.7824
 96  8 31  4 58  0.0040000  0  6G19G 3G14G18G22G29
  -8559742.15546  -6565288.29546  23162948.6054   23162948.3834
       861.6094        671.3844
  -1782620.61045  -1320435.08244  25123317.1764   25123316.2624
       925.0314        720.8044
  21967343.46145  17143471.66345  24716705.6524   24716705.3484
     -4473.6414      -3485.9544
 -10769519.60147  -8322248.43447  21742105.0744   21742104.0314
       176.8754        137.8254
  11796511.74946   8477648.19645  24113366.1914   24113365.9224
     -3862.6874      -3009.8864
   7420468.43447   5805532.35646  22693429.5514   22693427.9804
     -2434.8594      -1897.2934
 96  8 31  4 58 30.0040000  0  6G19G 3G14G18G22G29
  -8585485.62746  -6585348.12746  23158049.8944   23158049.5554
       854.4534        665.8084
  -1810194.28045  -1341921.03443  25118070.0194   25118070.2074
       912.9534        711.3924
  22101612.72945  17248097.06545  24742255.8014   24742255.8944
     -4477.7814      -3489.1804
 -10774646.99347  -8326243.79347  21741129.3404   21741128.2154
       164.9694        128.5474
  11912562.15146   8568077.09745  24135449.9734   24135449.3984
     -3874.1094      -3018.7874
   7493676.02647   5862577.22646  22707360.5744   22707359.3094
     -2445.9534      -1905.9374
 96  8 31  4 59  0.0040000  0  6G19G 3G14G18G22G29
  -8611002.70946  -6605231.55846  23153194.2854   23153193.8284
       847.0474        660.0374
  -1837388.34045  -1363111.18043  25112895.4654   25112896.2504
       900.4384        701.6404
  22236024.11545  17352833.20345  24767833.6134   24767833.9884
     -4482.6254      -3492.9554
 -10779410.89947  -8329955.92447  21740222.9414   21740221.9694
       152.8284        119.0874
  12028970.30146   8658784.73745  24157602.0044   24157601.5354
     -3885.9694      -3028.0284
   7567247.03747   5919905.27746  22721360.3874   22721358.7814
     -2458.4534      -1915.6784
 96  8 31  4 59 30.0040000  0  6G19G 3G14G18G22G29
  -8636304.52246  -6624947.23746  23148379.2774   23148378.8554
       839.7504        654.3514
  -1864216.07745  -1384015.89545  25107789.8014   25107790.0124
       888.0314        691.9724
  22370572.39345  17457676.00544  24793437.8634   24793437.9804
     -4487.3284      -3496.6194
 -10783800.09547  -8333376.07247  21739387.3714   21739386.2814
       139.7344        108.8844
  12145720.69446   8749759.07045  24179818.6994   24179818.4304
     -3897.2344      -3036.8064
   7641194.38247   5977526.58046  22735432.4414   22735431.0124
     -2471.3284      -1925.7104
 96  8 31  5  0  0.0040000  0  6G19G 3G14G18G22G29
  -8661393.11446  -6644496.77046  23143604.9654   23143604.8484
       832.8444        648.9694
  -1890678.60845  -1404636.01744  25102754.2234   25102754.0004
       876.2664        682.8044
  22505258.14545  17562625.91744  24819067.2384   24819067.5194
     -4491.7034      -3500.0284
 -10787795.49647  -8336489.37147  21738627.1374   21738625.9884
       126.5634         98.6204
  12262784.15946   8840977.35245  24202094.9344   24202094.6414
     -3906.4534      -3043.9894
   7715530.36447   6035450.70846  22749578.0124   22749576.5824
     -2484.5314      -1935.9984
 96  8 31  5  0 30.0040000  0  7G19G 3G14G31G18G22G29
  -8686261.12546  -6663874.42546  23138873.0044   23138872.6644
       825.1884        643.0034
  -1916782.59645  -1424976.77144  25097786.9264   25097786.1524
       863.9694        673.2224
  22640085.67845  17667686.33144  24844723.8404   24844724.6484
     -4496.7664      -3503.9734
    -23991.60855                  25066217.3714
      2180.7814
 -10791374.80047  -8339278.43546  21737946.2774   21737945.3164
       112.1414         87.3824
  12380108.40746   8932398.83345  24224421.4654   24224420.2114
     -3914.9694      -3050.6254
   7790278.72847   6093696.17946  22763801.9494   22763800.6374
     -2498.4224      -1946.8224
 96  8 31  5  1  0.0040000  0  7G19G 3G14G31G18G22G29
  -8710918.50446  -6683087.94846  23134180.5434   23134180.2154
       818.6724        637.9264
  -1942521.19145  -1445032.79045  25092888.5984   25092888.7624
       852.0164        663.9084
  22775062.05245  17772862.72645  24870409.3944   24870409.2774
     -4501.6414      -3507.7724
    -89382.91545                  25353566.1994
      2178.7194
 -10794532.29547  -8341738.81146  21737345.3324   21737344.2774
        98.3594         76.6444
  12497671.22146   9024006.22745  24246792.6684   24246792.2814
     -3922.3284      -3056.3604
   7865418.11147   6152246.34046  22778100.4884   22778099.0594
     -2510.5314      -1956.2584
 96  8 31  5  1 30.0040000  0  7G19G 3G14G31G18G22G29
  -8735369.02046  -6702140.28646  23129527.8874   23129527.6054
       811.6564        632.4594
  -1967881.91445  -1464794.37045  25088062.6764   25088062.7114
       838.8284        653.6324
  22910194.40145  17878160.64845  24896124.3094   24896124.6844
     -4507.0004      -3511.9484
   -154699.91445    -39013.82953  25341137.0434   25341136.3634
      2176.0164       1695.5974
 -10797258.82847  -8343863.37847  21736826.3634   21736825.2624
        83.7974         65.2964
  12615461.32446   9115790.70945  24269207.5274   24269206.8714
     -3930.1564      -3062.4594
   7940914.13647   6211074.39546  22792466.8874   22792465.4224
     -2522.3444      -1965.4634
 96  8 31  5  2  0.0050000  0  8G19G 3G14G31G18G22G27G29
  -8759623.09846  -6721039.55246  23124912.4934   23124912.1884
       805.0474        627.3094
  -1992857.33145  -1484255.71545  25083310.0794   25083309.3644
       826.0474        643.6734
  23045479.32845  17983577.46045  24921868.1494   24921870.0244
     -4511.6874      -3515.6014
   -219948.21145    -89856.62142  25328720.3214   25328718.7744
      2173.7344       1693.8194
 -10799573.57047  -8345667.06247  21736385.8994   21736384.6814
        70.4064         54.8624
  12733484.17746   9207756.58145  24291666.3844   24291665.9504
     -3937.9534      -3068.5354
    -19485.43953                  25980202.9464
      1771.0944
   8016756.89047   6270172.63646  22806899.4624   22806898.1384
     -2533.8124      -1974.3994
 96  8 31  5  2 30.0050000  0  8G19G 3G14G31G18G22G27G29
  -8783666.30546  -6739774.50146  23120337.4624   23120337.0994
       798.1884        621.9644
  -2017434.93545  -1503407.07444  25078633.3994   25078634.1964
       812.5164        633.1294
  23180907.23345  18089105.70245  24947639.3454   24947639.4504
     -4516.5474      -3519.3874
   -285124.71745   -140643.47443  25316317.3294   25316317.0714
      2171.5784       1692.1394
 -10801475.65147  -8347149.19446  21736024.1034   21736023.0014
        56.7504         44.2214
  12851768.42446   9299926.11945  24314175.0634   24314174.2204
     -3947.6254      -3076.0714
    -72580.91643                  25970098.8684
      1768.8284
   8092946.31147   6329541.00746  22821397.6574   22821396.2744
     -2545.1874      -1983.2634
 96  8 31  5  3  0.0050000  0  8G19G 3G14G31G18G22G27G29
  -8807523.85346  -6758364.77746  23115797.2824   23115796.8374
       792.2664        617.3504
  -2041612.23145  -1522246.48043  25074032.2044   25074032.3564
       799.3594        622.8774
  23316467.78445  18194737.28845  24973435.7904   24973436.4584
     -4520.7344      -3522.6504
   -350237.57745   -191380.77242  25303927.0874   25303925.9974
      2169.1564       1690.2524
 -10802988.14547  -8348327.75846  21735736.1494   21735735.0834
        44.0634         34.3344
  12970341.35046   9392320.60245  24336739.0484   24336738.4154
     -3957.4064      -3083.6934
   -125617.60743    -12392.67352  25960006.9854   25960007.2434
      1766.9064       1376.8104
   8169466.54247   6389167.14846  22835959.1104   22835957.6574
     -2556.2664      -1991.8954
 96  8 31  5  3 30.0050000  0  8G19G 3G14G31G18G22G27G29
  -8831191.12446  -6776806.80146  23111293.4784   23111292.8804
       785.9694        612.4434
  -2065395.67345  -1540779.04845  25069506.7204   25069505.4664
       786.5164        612.8694
  23452146.62145  18300461.05545  24999254.2044   24999253.9584
     -4524.1414      -3525.3044
   -415261.06945   -242048.40143  25291554.0954   25291554.9384
      2165.9064       1687.7194
 -10804114.60947  -8349205.51347  21735521.9784   21735520.7594
        31.4224         24.4854
  13089225.89146   9484957.90545  24359361.0244   24359360.2634
     -3967.9844      -3091.9364
   -178588.98243    -53669.00343  25949927.4154   25949928.5874
      1764.8284       1375.1914
   8246343.93147   6449071.59446  22850588.4934   22850587.1224
     -2568.7664      -2001.6364
 96  8 31  5  4  0.0050000  0  7G19G 3G14G18G22G27G29
  -8854667.14346  -6795099.78546  23106826.2124   23106825.7204
       779.1884        607.1594
  -2088798.69145  -1559015.07345  25065053.0484   25065053.2354
       773.7504        602.9224
  23587927.65645  18406264.46145  25025092.8534   25025093.0524
     -4527.7344      -3528.1054
 -10804866.49147  -8349791.38947  21735378.5244   21735377.4934
        18.7034         14.5744
  13208426.20246   9577841.26245  24382044.7434   24382044.5094
     -3978.5944      -3100.2034
   -231494.32644    -94893.88242  25939858.9934   25939859.2744
      1762.1414       1373.0974
   8323601.47047   6509272.26346  22865290.0404   22865288.4464
     -2581.5784      -2011.6194
 96  8 31  5  4 30.0050000  0  8G19G 3G14G31G18G22G27G29
  -8877949.60946  -6813241.94846  23102396.1264   23102395.5874
       772.9534        602.3014
  -2111826.59745  -1576958.90144  25060671.2124   25060671.0604
       761.2974        593.2184
  23723804.40945  18512142.45144  25050949.4704   25050948.5444
     -4530.8914      -3530.5644
    -49680.25855                  25266865.7204
      2158.7814
 -10805238.07547  -8350080.92747  21735307.9544   21735306.8174
         5.9384          4.6274
  13327931.66246   9670962.40345  24404785.7284   24404785.4934
     -3988.3914      -3107.8374
   -284316.27243   -136053.77343  25929806.9384   25929808.1454
      1759.3284       1370.9054
   8401232.92647   6569764.29646  22880062.7674   22880061.1964
     -2594.0004      -2021.2994
 96  8 31  5  5  0.0050000  0  8G19G 3G14G31G18G22G27G29
  -8901035.98146  -6831231.31246  23098002.6104   23098002.0014
       766.2814        597.1024
  -2134475.64345  -1594607.49045  25056361.5174   25056361.1774
       749.0004        583.6364
  23859787.28945  18618103.12145  25076826.2354   25076826.5874
     -4534.4064      -3533.3044
   -114389.11045    -20157.92651  25254551.6344   25254549.8534
      2155.4384       1679.5624
 -10805219.32447  -8350066.31147  21735311.5794   21735310.5364
        -7.1094         -5.5404
  13447727.71346   9764309.97145  24427582.4704   24427581.9894
     -3997.7504      -3115.1304
   -337052.53844   -177146.92441  25919772.1654   25919771.1454
      1756.5634       1368.7504
   8479247.60547   6630554.94746  22894908.2984   22894906.8454
     -2606.7194      -2031.2094
 96  8 31  5  5 30.0050000  0  8G19G 3G14G31G18G22G27G29
  -8923914.45146  -6849058.66646  23093648.8374   23093648.4624
       759.0004        591.4294
  -2156757.65745  -1611970.06945  25052121.0324   25052120.0244
       736.3754        573.7994
  23995874.28145  18724144.92845  25102722.8214   25102723.1384
     -4538.0314      -3536.1284
   -179012.33645    -70513.68143  25242254.7594   25242254.1144
      2152.8444       1677.5414
 -10804800.70247  -8349740.10447  21735391.0014   21735389.8884
       -20.8124        -16.2184
  13567794.67546   9857868.63545  24450430.7434   24450430.6614
     -4006.5474      -3121.9854
   -389709.42043   -218178.20643  25909751.3844   25909750.2244
      1753.9064       1366.6804
   8557640.78247   6691640.52846  22909826.4624   22909825.0794
     -2619.3594      -2041.0594
 96  8 31  5  6  0.0050000  0  8G19G 3G14G31G18G22G27G29
  -8946570.38646  -6866712.62146  23089337.4544   23089336.8564
       751.4534        585.5484
  -2178648.89445  -1629028.13745  25047955.2824   25047954.7204
       723.0634        563.4254
  24132073.31945  18830274.05244  25128640.0404   25128640.2984
     -4541.8444      -3539.0994
   -243552.55345   -120804.73441  25229972.6424   25229972.9814
      2149.8444       1675.2034
 -10803959.92647  -8349084.94347  21735551.1104   21735550.0674
       -35.2814        -27.4924
  13688122.97146   9951630.95545  24473328.1814   24473327.7944
     -4015.2974      -3128.8034
   -442278.12244   -259140.74743  25899748.1344   25899748.8954
      1750.7974       1364.2574
   8636403.37847   6753013.97146  22924814.0244   22924812.5134
     -2631.4374      -2050.4714
 96  8 31  5  6 30.0050000  0  8G19G 3G14G31G18G22G27G29
  -8969004.02946  -6884193.36046  23085068.5014   23085068.2204
       744.2034        579.8994
  -2200144.46545  -1645777.90545  25043864.8844   25043865.2124
       709.9694        553.2224
  24268382.25845  18936488.79845  25154579.4154   25154579.3454
     -4545.3124      -3541.8024
   -308001.00445   -171024.30843  25217708.8294   25217708.1614
      2146.8754       1672.8904
 -10802683.77147  -8348090.52947  21735794.1424   21735792.9464
       -49.6874        -38.7184
  13808708.88846  10045593.99945  24496274.8134   24496274.4274
     -4023.6254      -3135.2924
   -494764.32244   -300039.03643  25889759.8134   25889760.4114
      1748.3754       1362.3704
   8715526.82747   6814668.60046  22939870.9154   22939869.4384
     -2643.3914      -2059.7854
 96  8 31  5  7  0.0050000  0  8G19G 3G14G31G18G22G27G29
  -8991213.88046  -6901499.71646  23080842.1814   23080841.7704
       736.3284        573.7624
  -2221246.50945  -1662221.04945  25039849.0564   25039848.4234
       696.6884        542.8734
  24404793.95345  19042783.61644  25180537.4854   25180537.5564
     -4548.8444      -3544.5544
   -372356.42945   -221171.36843  25205461.7514   25205460.6854
      2143.2974       1670.1014
 -10800981.07947  -8346763.75347  21736118.0484   21736116.9234
       -63.8444        -49.7484
  13929538.93546  10139747.28345  24519267.7594   24519267.7474
     -4031.7664      -3141.6364
   -547178.09944   -340880.87743  25879786.8684   25879786.1654
      1745.8754       1360.4224
   8795005.41947   6876599.95946  22954995.3134   22954993.7674
     -2655.2504      -2069.0264
 96  8 31  5  7 30.0050000  0  8G19G 3G14G31G18G22G27G29
  -9013191.48246  -6918625.09846  23076659.9314   23076659.4744
       728.8134        567.9064
  -2241941.26045  -1678346.79645  25035911.4934   25035911.1774
       682.7664        532.0254
  24541297.12945  19149149.71744  25206513.2594   25206513.8214
     -4551.4224      -3546.5624
   -436600.64345   -271231.75943  25193236.6264   25193236.2864
      2139.2974       1666.9854
 -10798860.15447  -8345111.08347  21736521.5484   21736520.3534
       -77.5944        -60.4634
  14050608.97546  10234087.56845  24542307.8064   24542307.4894
     -4039.6414      -3147.7724
   -599524.79844   -381670.47043  25869825.2044   25869824.2554
      1743.7194       1358.7424
   8874837.15647   6938806.49846  22970186.8064   22970185.3414
     -2666.9534      -2078.1454
 96  8 31  5  8  0.0050000  0  8G19G 3G14G31G18G22G27G29
  -9034951.25446  -6935580.74846  23072519.0404   23072518.9114
       721.6564        562.3304
  -2262215.71945  -1694145.04644  25032052.9464   25032052.7944
       668.7974        521.1404
  24677879.35845  19255577.41645  25232503.8994   25232503.2204
     -4554.2974      -3548.8034
   -500710.11445   -321187.19943  25181036.5324   25181035.7354
      2134.5004       1663.2474
 -10796328.23647  -8343138.15047  21737003.4544   21737002.2824
       -91.4064        -71.2264
  14171920.15646  10328615.76645  24565391.6034   24565391.1694
     -4047.8444      -3154.1644
   -651801.57644   -422405.53443  25859876.8294   25859878.0834
      1741.2504       1356.8184
   8955017.54647   7001284.71846  22985444.5714   22985443.0954
     -2678.6254      -2087.2404
 96  8 31  5  8 30.0050000  0  8G19G 3G14G31G18G22G27G29
  -9056497.52246  -6952370.02946  23068418.7674   23068418.6494
       714.7504        556.9484
  -2282083.47445  -1709626.39745  25028271.6814   25028271.8104
       655.7344        510.9624
  24814548.44645  19362072.79645  25258511.7904   25258512.0134
     -4556.9064      -3550.8364
   -564684.47145   -371037.31942  25168863.8374   25168864.8684
      2130.6564       1660.2524
 -10793383.89947  -8340843.85447  21737563.8374   21737562.7704
      -104.8284        -81.6844
  14293468.16346  10423328.50845  24588521.7744   24588521.6574
     -4055.2504      -3159.9354
   -704004.90444   -463083.41443  25849943.8374   25849944.7744
      1738.9844       1355.0534
   9035546.98647   7064034.92646  23000768.8764   23000767.6574
     -2689.9224      -2096.0434
 96  8 31  5  9  0.0050000  0  8G19G 3G14G31G18G22G27G29
  -9077819.45746  -6968984.50446  23064361.5244   23064361.4074
       707.0004        550.9094
  -2301544.45245  -1724790.76545  25024569.3534   25024569.0484
       641.9064        500.1874
  24951307.07745  19468637.97345  25284535.7284   25284535.7164
     -4560.0004      -3553.2474
   -628541.40345   -420795.93342  25156711.5634   25156710.1224
      2126.7034       1657.1714
 -10790020.85247  -8338223.29347  21738203.6104   21738202.5914
      -119.1874        -92.8734
  14415252.88446  10518225.68345  24611696.5954   24611696.2554
     -4063.5944      -3166.4374
   -756125.50044   -503696.79743  25840024.8924   25840025.7124
      1736.0784       1352.7884
   9116429.79747   7127060.48246  23016160.4934   23016159.3454
     -2702.0164      -2105.4674
 96  8 31  5  9 30.0050000  0  8G19G 3G14G31G18G22G27G29
  -9098920.89146  -6985427.15446  23060345.9934   23060345.6884
       700.0314        545.4794
  -2320590.70145  -1739631.97445  25020944.3924   25020943.9114
       628.0634        489.3994
  25088145.44345  19575265.27143  25310574.7594   25310576.0484
     -4562.5164      -3555.2074
   -692281.58945   -470463.57943  25144582.1264   25144582.1964
      2122.7504       1654.0914
 -10786219.74147  -8335261.38447  21738927.0404   21738925.8104
      -134.2034       -104.5744
  14537288.79446  10613318.58545  24634918.8064   24634918.7944
     -4072.0784      -3173.0484
   -808166.03644   -544247.81043  25830121.2904   25830122.8024
      1733.3754       1350.6824
   9197671.95647   7190366.04846  23031620.1734   23031618.7314
     -2713.9844      -2114.7934
 96  8 31  5 10  0.0050000  0  8G19G 3G14G31G18G22G27G29
  -9119810.92846  -7001705.08246  23056370.6344   23056370.1884
       692.7504        539.8054
  -2339224.93845  -1754152.13545  25017398.4784   25017398.3724
       614.3284        478.6974
  25225072.01245  19681961.28643  25336631.0484   25336631.9974
     -4565.8284      -3557.7884
   -755897.97145   -520034.76943  25132476.4154   25132476.6144
      2118.5784       1650.8404
 -10781955.52547  -8331938.61247  21739738.5094   21739737.3024
      -149.9844       -116.8714
  14659588.65246  10708617.18145  24658191.8534   24658191.6184
     -4081.0624      -3180.0494
   -860121.34944   -584732.40645  25820235.2354   25820236.2554
      1730.5164       1348.4544
   9279279.27447   7253956.16146  23047149.5244   23047148.2004
     -2726.5624      -2124.5944
 96  8 31  5 10 30.0050000  0  8G19G 3G14G31G18G22G27G29
  -9140491.40646  -7017819.72046  23052435.4074   23052435.0674
       685.8594        534.4364
  -2357451.02945  -1768354.26145  25013929.8294   25013929.5714
       600.4064        467.8494
  25362089.76845  19788728.36743  25362704.7204   25362705.3064
     -4568.7974      -3560.1014
   -819400.56445   -569517.28641  25120392.7044   25120391.0404
      2114.7034       1647.8214
 -10777228.70447  -8328255.37147  21740637.8604   21740636.8534
      -165.2344       -128.7544
  14782148.18246  10804118.10345  24681513.9384   24681513.3884
     -4089.7664      -3186.8304
   -912003.29945   -625159.83743  25810362.7594   25810361.8924
      1728.1254       1346.5914
   9361266.34247   7317842.16946  23062751.3844   23062750.2244
     -2739.3914      -2134.5904
 96  8 31  5 11  0.0050000  0  8G19G 3G14G31G18G22G27G29
  -9160976.36546  -7033782.00846  23048537.2674   23048536.7044
       679.7974        529.7124
  -2375247.80245  -1782221.83945  25010543.5014   25010543.1964
       585.8914        456.5384
  25499191.05944  19895560.50744  25388794.1494   25388795.4504
     -4571.4224      -3562.1474
   -882779.27845   -618903.25543  25108331.8684   25108331.3174
      2110.2974       1644.3874
 -10772054.07747  -8324223.19347  21741622.6344   21741621.4854
      -179.8594       -140.1504
  14904967.50146  10899821.46445  24704886.1494   24704885.6924
     -4098.1724      -3193.3814
   -963813.30244   -665531.19044  25800503.5484   25800503.8644
      1725.8284       1344.8014
   9443635.90047   7382026.23746  23078425.6104   23078424.2744
     -2752.0004      -2144.4164
 96  8 31  5 11 30.0050000  0  8G19G 3G14G31G18G22G27G29
  -9181280.92546  -7049603.72046  23044673.3294   23044672.8844
       673.9694        525.1704
  -2392593.38045  -1795737.86545  25007242.7044   25007242.5404
       570.7664        444.7524
  25636383.60144  20002463.79343  25414901.2124   25414900.7434
     -4574.7034      -3564.7044
   -946001.24545   -668167.10843  25096300.7434   25096300.7434
      2104.6414       1639.9804
 -10766431.65947  -8319842.07447  21742692.5794   21742691.5014
      -194.6254       -151.6564
  15028037.24746  10995719.96245  24728305.7284   24728305.6344
     -4106.2034      -3199.6394
  -1015545.92544   -705842.29643  25790658.1034   25790658.2314
      1723.0784       1342.6584
   9526388.56447   7446508.82246  23094172.9464   23094171.6454
     -2764.6874      -2154.3024
 96  8 31  5 12  0.0050000  0  8G19G 3G14G31G18G22G27G29
  -9201407.39346  -7065286.66346  23040843.6654   23040843.3134
       667.6254        520.2274
  -2409489.41745  -1808903.57145  25004027.2124   25004026.5324
       555.5944        432.9304
  25773684.22444  20109451.29843  25441028.8454   25441029.4784
     -4578.5784      -3567.7234
  -1009059.51645   -717303.41643  25084301.2124   25084301.5754
      2099.2504       1635.7794
 -10760381.72947  -8315127.83247  21743843.8604   21743842.7944
      -208.6094       -162.5534
  15151335.65046  11091796.63645  24751768.2744   24751767.8294
     -4113.5784      -3205.3864
  -1067196.32844   -746089.28543  25780830.0634   25780830.1454
      1720.2194       1340.4304
   9609517.76147   7511284.81146  23109991.9624   23109990.6964
     -2777.2344      -2164.0794
 96  8 31  5 12 30.0050000  0  8G19G 3G14G31G18G22G27G29
  -9221340.88346  -7080819.23046  23037050.2354   23037050.0014
       661.1414        515.1754
  -2425934.70545  -1821718.06045  25000898.2514   25000898.3334
       540.7504        421.3644
  25911087.26644  20216518.58243  25467175.1964   25467176.9194
     -4581.5474      -3570.0374
  -1071965.46045   -766321.01343  25072330.5634   25072330.7744
      2094.5004       1632.0784
 -10753922.13247  -8310094.37746  21745072.9544   21745071.8884
      -222.0944       -173.0604
  15274837.10246  11188031.52645  24775270.1574   24775270.0174
     -4119.8754      -3210.2924
  -1118759.87544   -786268.61143  25771016.9234   25771016.8764
      1717.3284       1338.1784
   9693011.36347   7576344.75446  23125880.0564   23125878.8254
     -2788.8594      -2173.1374
 96  8 31  5 13  0.0050000  0  8G19G 3G14G31G18G22G27G29
  -9241062.54046  -7096186.74046  23033297.1734   23033296.9034
       653.4064        509.1484
  -2441930.74345  -1834182.48545  24997854.1964   24997854.2674
       525.6724        409.6144
  26048580.50144  20323656.14543  25493339.7124   25493340.6494
     -4584.7814      -3572.5574
  -1134719.99345   -815220.61443  25060388.7594   25060388.5014
      2089.0944       1627.8654
 -10747043.49147  -8304734.38947  21746381.9784   21746380.7704
      -236.7344       -184.4684
  15398535.01646  11284419.50045  24798808.6264   24798807.8064
     -4126.8124      -3215.6984
  -1170230.78944   -826375.74242  25761222.5484   25761223.2394
      1714.0944       1335.6574
   9776858.43247   7641680.12246  23141835.6654   23141834.1884
     -2801.0944      -2182.6704
 96  8 31  5 13 30.0050000  0  8G19G 3G14G31G18G22G27G29
  -9260548.90146  -7111370.89146  23029589.0324   23029588.4814
       645.4534        502.9504
  -2457483.11445  -1846301.18445  24994894.3374   24994893.0954
       511.2504        398.3774
  26186163.67944  20430863.82743  25519520.8454   25519521.2084
     -4587.3284      -3574.5414
  -1197321.16745   -864000.70743  25048476.7044   25048476.1884
      2084.4064       1624.2134
 -10739727.70747  -8299033.77447  21747774.0714   21747773.0754
      -250.9374       -195.5364
  15522443.05246  11380971.21845  24822387.9234   24822387.4424
     -4133.8594      -3221.1894
  -1221614.17044   -866414.67842  25751444.5794   25751442.9384
      1711.4064       1333.5634
   9861067.66447   7707297.69946  23157860.1814   23157858.6924
     -2812.8284      -2191.8144
 96  8 31  5 14  0.0050000  0  8G19G 3G14G31G18G22G27G29
  -9279782.53046  -7126358.11046  23025929.0954   23025928.6964
       636.9224        496.3034
  -2472605.28645  -1858084.67944  24992016.5634   24992016.0834
       497.0474        387.3094
  26323819.16044  20538127.82743  25545716.2284   25545716.7434
     -4589.2974      -3576.0754
  -1259788.98845   -912676.91444  25036589.2204   25036589.0324
      2080.3134       1621.0234
 -10731981.69847  -8292997.91747  21749248.0564   21749246.9194
      -265.4694       -206.8594
  15646577.51445  11477699.36345  24846009.5484   24846008.9384
     -4141.6874      -3227.2894
  -1272913.75844   -906388.36341  25741682.7124   25741680.8724
      1708.9224       1331.6274
   9945634.89947   7773194.23446  23173952.6734   23173951.3604
     -2824.8594      -2201.1894
 96  8 31  5 14 30.0050000  0  8G19G 3G14G31G18G22G27G29
  -9298761.52647  -7141146.92646  23022317.4154   23022317.0524
       628.6884        489.8864
  -2487304.06445  -1869538.24445  24989219.9314   24989219.4034
       483.0944        376.4374
  26461521.16644  20645428.07742  25571919.9384   25571921.4504
     -4590.5004      -3577.0134
  -1322128.19445   -961252.89743  25024726.5404   25024724.7244
      2075.7974       1617.5044
 -10723785.07347  -8286610.92647  21750808.0634   21750807.0324
      -280.7974       -218.8034
  15770954.01245  11574616.11545  24869677.9784   24869677.9664
     -4149.9374      -3233.7184
  -1324138.63944   -946303.78143  25731935.2904   25731934.3064
      1706.3914       1329.6554
  10030564.44247   7839373.08846  23190114.5094   23190113.3604
     -2836.9224      -2210.5884
 96  8 31  5 15  0.0050000  0  8G19G 3G14G31G18G22G27G29
  -9317506.28647  -7155753.21446  23018750.5244   23018750.0204
       620.9224        483.8354
  -2501589.23045  -1880669.51345  24986501.2824   24986500.8134
       469.1414        365.5644
  26599252.40745  20752751.11843  25598128.3764   25598128.3534
     -4591.6724      -3577.9264
  -1384325.48245  -1009718.30644  25012890.4544   25012889.8924
      2070.6564       1613.4984
 -10715135.41047  -8279870.92646  21752453.6734   21752452.5364
      -295.8754       -230.5524
  15895582.29645  11671729.06545  24893393.8924   24893392.9784
     -4158.5944      -3240.4634
  -1375292.84044   -986164.14843  25722201.2434   25722201.8174
      1703.9534       1327.7564
  10115858.65147   7905836.09546  23206345.4154   23206343.9744
     -2849.5164      -2220.4024
 96  8 31  5 15 30.0050000  0  8G19G 3G14G31G18G22G27G29
  -9336024.60847  -7170183.05546  23015226.5174   23015226.0484
       613.9534        478.4054
  -2515446.75445  -1891467.56045  24983864.4624   24983864.1224
       454.9064        354.4724
  26737018.29245  20860101.17342  25624344.7904   25624344.8024
     -4592.3914      -3578.4864
  -1446369.19045  -1058064.02045  25001084.2434   25001083.9504
      2065.7974       1609.7124
 -10706037.51847  -8272781.64847  21754185.1264   21754183.8604
      -310.3754       -241.8514
  16020463.89845  11769039.40045  24917157.3604   24917156.4814
     -4166.4224      -3246.5624
  -1426369.13444  -1025963.78443  25712481.8294   25712481.6184
      1701.3914       1325.7594
  10201529.15647   7972592.32446  23222647.8924   23222646.5564
     -2861.5784      -2229.8014
 96  8 31  5 16  0.0050000  0  8G19G 3G14G31G18G22G27G29
  -9354330.09447  -7184447.05246  23011743.0794   23011742.6104
       606.6254        472.6954
  -2528870.75545  -1901927.79545  24981309.3924   24981308.7474
       439.8914        342.7724
  26874811.44945  20967472.45843  25650566.3534   25650566.4114
     -4593.8914      -3579.6554
  -1508250.82045  -1106283.45245  24989308.6034   24989308.2634
      2059.6094       1604.8904
 -10696495.54047  -8265346.33847  21756001.0714   21755999.7594
      -325.8124       -253.8804
  16145574.83945  11866528.43445  24940965.4464   24940965.1534
     -4174.0164      -3252.4804
  -1477367.95544  -1065703.09145  25702776.4154   25702776.4504
      1698.5784       1323.5674
  10287571.88047   8039638.58846  23239021.5404   23239020.1454
     -2874.5474      -2239.9074
 96  8 31  5 16 30.0050000  0  8G19G 3G14G31G18G22G27G29
  -9372437.81247  -7198556.93546  23008297.4934   23008297.1064
       600.6094        468.0074
  -2541845.03545  -1912037.61644  24978840.7284   24978841.1264
       424.9694        331.1444
  27012647.25445  21074876.99543  25676795.5244   25676796.5914
     -4595.2344      -3580.7024
  -1569941.26945  -1154353.90044  24977568.9854   24977568.1654
      2053.0944       1599.8134
 -10686494.77247  -8257553.52447  21757904.1654   21757902.7354
      -340.6874       -265.4714
  16270892.02045  11964178.18445  24964812.7284   24964812.5634
     -4180.3124      -3257.3864
  -1528282.63244  -1105376.80543  25693087.9464   25693089.6104
      1695.6884       1321.3154
  10373994.14047   8106980.60546  23255467.0794   23255465.5444
     -2886.8914      -2249.5254
 96  8 31  5 17  0.0050000  0  8G19G 3G14G31G18G22G27G29
  -9390354.11047  -7212517.66046  23004887.8134   23004887.3214
       593.8284        462.7234
  -2554351.67345  -1921783.01645  24976460.7284   24976460.1304
       408.7344        318.4944
  27150536.36545  21182323.04244  25703035.0874   25703035.3104
     -4597.5004      -3582.4684
  -1631431.56345  -1202268.40745  24965867.7674   24965865.7634
      2046.2974       1594.5174
 -10676048.57547  -8249413.62446  21759891.8844   21759890.6534
      -355.7344       -277.1964
  16396403.57045  12061979.40145  24988697.0404   24988696.7594
     -4187.0164      -3262.6104
  -1579103.58444  -1144977.49044  25683417.2204   25683416.6104
      1692.3754       1318.7344
  10460795.79747   8174618.25046  23271984.7204   23271983.5484
     -2899.7974      -2259.5824
 96  8 31  5 17 30.0050000  0  8G19G 3G14G31G18G22G27G29
  -9408074.11247  -7226325.44246  23001515.8134   23001515.2984
       587.3914        457.7074
  -2566375.86245  -1931152.49445  24974172.6884   24974172.7244
       392.7664        306.0514
  27288495.70145  21289823.83043  25729287.7744   25729287.7514
     -4599.8914      -3584.3304
  -1692724.02945  -1250028.75245  24954204.3844   24954203.1884
      2039.6414       1589.3304
 -10665149.86447  -8240921.11547  21761965.7904   21761964.5714
      -370.9694       -289.0674
  16522103.12545  12159927.10445  25012616.7124   25012616.2674
     -4193.0164      -3267.2854
  -1629836.08944  -1184509.24243  25673762.1814   25673761.7244
      1689.5314       1316.5184
  10547964.79047   8242542.12746  23288572.5954   23288571.1884
     -2911.5314      -2268.7264
 96  8 31  5 18  0.0050000  0  8G19G 3G14G31G18G22G27G29
  -9425591.29847  -7239975.18146  22998182.4384   22998181.9464
       580.5474        452.3744
  -2577919.37045  -1940147.41245  24971976.1884   24971976.0244
       376.8594        293.6574
  27426531.85445  21397384.45643  25755554.9544   25755556.3954
     -4602.5314      -3586.3884
  -1753806.83645  -1297625.72945  24942580.5244   24942580.5364
      2032.6724       1583.9004
 -10653784.19847  -8232064.75046  21764128.6424   21764127.4464
      -386.6254       -301.2664
  16647988.71745  12258019.77844  25036572.0404   25036570.9504
     -4199.3124      -3272.1924
  -1680474.64644  -1223967.81643  25664126.0174   25664126.2744
      1686.4534       1314.1194
  10635492.16347   8310745.27046  23305228.4624   23305227.1144
     -2923.4844      -2278.0404
 96  8 31  5 18 30.0050000  0  8G19G 3G14G31G18G22G27G29
  -9442913.05047  -7253472.63446  22994886.1424   22994885.6144
       573.8134        447.1274
  -2588999.08845  -1948780.92545  24969867.6104   24969866.8844
       361.7344        281.8714
  27564631.31245  21504994.42842  25781834.8534   25781834.9934
     -4604.1874      -3587.6794
  -1814695.24845  -1345071.23945  24930993.6034   24930993.8954
      2026.4384       1579.0424
 -10641959.01047  -8222850.31447  21766378.7674   21766377.5244
      -401.8594       -313.1374
  16774062.31145  12356258.94445  25060563.2674   25060562.3534
     -4205.9374      -3277.3544
  -1731020.33144  -1263354.01343  25654507.6654   25654508.0404
      1683.1094       1311.5144
  10723364.06147   8379216.87446  23321950.2124   23321949.0404
     -2934.9224      -2286.9524
 96  8 31  5 19  0.0050000  0  8G19G 3G14G31G18G22G27G29
  -9460010.36147  -7266795.20546  22991632.5564   22991632.1574
       566.2504        441.2344
  -2599625.06045  -1957060.89245  24967845.7434   24967845.3804
       346.9694        270.3654
  27702783.75045  21612645.70143  25808124.8684   25808125.0914
     -4605.7974      -3588.9334
  -1875398.52445  -1392372.47745  24919442.0874   24919441.7474
      2020.4844       1574.4034
 -10629675.19247  -8213278.50546  21768716.3134   21768715.0364
      -416.8914       -324.8504
  16900347.94245  12454663.34545  25084594.1574   25084593.9464
     -4212.8754      -3282.7604
  -1781465.76245  -1302662.07244  25644908.0404   25644907.3604
      1680.1094       1309.1764
  10811588.36847   8447963.07246  23338738.7044   23338737.4624
     -2946.4694      -2295.9504
 96  8 31  5 19 30.0050000  0  8G19G 3G14G31G18G22G27G29
  -9476875.67847  -7279936.99046  22988423.1344   22988422.5604
       558.3134        435.0494
  -2609799.12945  -1964988.70345  24965909.4074   24965908.6454
       331.5474        258.3484
  27840989.63545  21720338.59844  25834423.9314   25834424.7514
     -4607.4374      -3590.2114
  -1935907.32145  -1439522.17144  24907927.4464   24907926.7554
      2013.6884       1569.1074
 -10616932.06747  -8203348.78847  21771141.3294   21771140.1344
      -432.2814       -336.8434
  17026844.52445  12553232.10245  25108666.3924   25108666.2044
     -4220.0314      -3288.3364
  -1831810.67345  -1341891.82343  25635328.0094   25635327.8924
      1676.3914       1306.2784
  10900170.67647   8516988.23546  23355595.1034   23355593.7084
     -2958.8914      -2305.6294
 96  8 31  5 20  0.0050000  0  7G19G 3G31G18G22G27G29
  -9493516.19547  -7292903.61246  22985256.9544   22985256.6614
       551.0164        429.3634
  -2619521.42045  -1972564.49045  24964059.1344   24964058.6884
       316.5944        246.6964
  -1996223.06045  -1486521.42845  24896450.2044   24896449.3134
      2007.4224       1564.2254
 -10603744.26147  -8193072.56747  21773650.7744   21773649.4504
      -446.9064       -348.2394
  17153550.96145  12651964.39344  25132777.7204   25132777.7674
     -4227.1414      -3293.8764
  -1882052.67445  -1381041.38345  25625767.3604   25625767.3844
      1673.1414       1303.7464
  10989122.21547   8586301.11346  23372522.0954   23372520.6304
     -2971.2344      -2315.2484
 96  8 31  5 20 30.0050000  0  7G19G 3G31G18G22G27G29
  -9509940.98747  -7305702.13446  22982131.0564   22982130.8804
       543.7814        423.7264
  -2628796.40145  -1979791.71045  24962294.8064   24962294.3494
       301.5474        234.9724
  -2056355.69445  -1533377.98945  24885007.3294   24885006.7084
      2001.2974       1559.4524
 -10590126.43047  -8182461.26646  21776242.4074   21776241.0714
      -461.2664       -359.4284
  17280467.36445  12750860.28645  25156928.3294   25156928.1534
     -4234.1094      -3299.3064
  -1932200.53945  -1420117.60043  25616224.5564   25616224.8134
      1670.0004       1301.2994
  11078440.52547   8655899.78446  23389518.8764   23389517.5174
     -2983.5164      -2324.8174
 96  8 31  5 21  0.0050000  0  7G19G 3G31G18G22G27G29
  -9526156.22747  -7318337.37546  22979045.6184   22979045.2204
       537.2974        418.6734
  -2637610.16345  -1986659.55845  24960617.3214   24960616.9464
       285.7344        222.6504
  -2116299.41045  -1580087.38045  24873600.4234   24873599.7434
      1994.6884       1554.3024
 -10576072.41947  -8171510.07547  21778916.6184   21778915.3644
      -475.9844       -370.8974
  17407579.25945  12849908.52644  25181117.9384   25181116.8494
     -4240.0474      -3303.9334
  -1982265.46745  -1459129.20043  25606696.7824   25606696.2084
      1667.5784       1299.4124
  11168125.23047   8725783.96446  23406585.3294   23406584.0174
     -2995.5314      -2334.1804
 96  8 31  5 21 30.0050000  0  7G19G 3G31G18G22G27G29
  -9542184.64847  -7330827.05046  22975995.4784   22975994.9854
       530.9534        413.7304
  -2645939.65745  -1993150.04245  24959032.6964   24959032.3684
       269.3754        209.9034
  -2176036.38145  -1626635.65045  24862232.6034   24862233.1304
      1987.6094       1548.7874
 -10561558.52147  -8160200.53847  21781678.6574   21781677.4154
      -491.8914       -383.2914
  17534870.59745  12949096.59145  25205339.8214   25205338.9544
     -4246.2504      -3308.7664
  -2032258.37645  -1498084.65643  25597183.3214   25597183.1224
      1665.1414       1297.5124
  11258166.27647   8795945.80546  23423719.5634   23423718.2164
     -3007.2034      -2343.2754
 96  8 31  5 22  0.0050000  0  7G19G 3G31G18G22G27G29
  -9558021.06147  -7343167.10346  22972981.9544   22972981.5444
       524.7034        408.8604
  -2653787.77445  -1999265.44245  24957538.9464   24957538.5604
       253.7194        197.7034
  -2235561.10345  -1673018.50745  24850905.0014   24850904.5914
      1980.5634       1543.2954
 -10546560.21347  -8148513.53347  21784532.6104   21784531.1924
      -508.0624       -395.8934
  17662348.37245  13048429.92344  25229597.9074   25229596.8764
     -4252.2194      -3313.4174
  -2082183.32745  -1536987.16045  25587683.0874   25587682.2084
      1663.1564       1295.9664
  11348548.51547   8866373.51346  23440918.7044   23440917.3804
     -3018.4064      -2352.0054
 96  8 31  5 22 30.0050000  0  7G19G 3G31G18G22G27G29
  -9573662.42447  -7355355.17246  22970005.5484   22970005.2674
       518.1254        403.7344
  -2661159.29945  -2005009.45745  24956136.1264   24956135.4934
       237.6724        185.1994
  -2294867.33345  -1719231.15945  24839619.8374   24839620.5874
      1973.1094       1537.4884
 -10531068.67847  -8136442.20547  21787480.9074   21787479.6534
      -524.7504       -408.8964
  17790002.93045  13147901.01644  25253890.2594   25253890.7044
     -4258.1564      -3318.0444
  -2132050.20145  -1575844.44944  25578194.6034   25578194.1224
      1661.3754       1294.5784
  11439273.53547   8937068.32646  23458182.9154   23458181.5794
     -3029.9064      -2360.9664
 96  8 31  5 23  0.0050000  0  7G19G 3G31G18G22G27G29
  -9589115.33947  -7367396.39646  22967065.0564   22967064.5874
       511.8914        398.8764
  -2668052.84545  -2010381.02845  24954824.1424   24954823.4744
       221.8914        172.9024
  -2353946.91145  -1765267.16645  24828377.5484   24828376.7394
      1965.4534       1531.5224
 -10515082.70147  -8123985.59747  21790522.5484   21790521.3764
      -540.8914       -421.4734
  17917833.75445  13247509.46645  25278214.7354   25278213.4464
     -4264.0314      -3322.6224
  -2181874.43745  -1614668.47145  25568712.6104   25568712.9504
      1660.0634       1293.5554
  11530335.12746   9008025.39446  23475511.2204   23475509.7674
     -3040.9694      -2369.5864
 96  8 31  5 23 30.0050000  0  7G19G 3G31G18G22G27G29
  -9604366.01247  -7379280.03046  22964162.7124   22964162.0914
       504.6564        393.2394
  -2674478.37445  -2015387.91345  24953601.3844   24953600.7744
       206.5004        160.9094
  -2412799.10745  -1811125.99045  24817178.0244   24817177.5564
      1958.0784       1525.7754
 -10498622.01247  -8111159.08547  21793655.0954   21793653.8294
      -556.3124       -433.4904
  18045848.75445  13347261.42144  25302575.6964   25302575.2864
     -4270.2974      -3327.5044
  -2231648.07545  -1653453.10045  25559241.2124   25559240.5674
      1658.0784       1292.0094
  11621732.31046   9079243.96446  23492903.6424   23492902.4704
     -3052.2974      -2378.4134
 96  8 31  5 24  0.0050000  0  7G19G 3G31G18G22G27G29
  -9619383.56147  -7390982.00946  22961304.7674   22961304.2864
       496.8444        387.1514
  -2680434.01945  -2020028.66845  24952467.8374   24952467.8954
       190.6254        148.5394
  -2471419.64145  -1856804.29345  24806023.3454   24806022.8414
      1950.2504       1519.6754
 -10481704.76147  -8097976.80647  21796874.3214   21796872.8804
      -571.2034       -445.0934
  18174057.56245  13447164.40245  25326973.2044   25326972.9814
     -4276.7344      -3332.5204
  -2281347.62745  -1692179.98745  25549783.5244   25549783.1854
      1655.4224       1289.9394
  11713490.80446   9150744.07846  23510364.9854   23510363.7434
     -3064.8754      -2388.2144
 96  8 31  5 24 30.0050000  0  7G19G 3G31G18G22G27G29
  -9634175.90847  -7402508.50246  22958489.7824   22958489.3134
       489.2814        381.2584
  -2685904.75145  -2024291.54745  24951426.6814   24951426.5874
       174.0944        135.6574
  -2529811.87445  -1902304.73345  24794911.1344   24794910.5714
      1942.5474       1513.6734
 -10464350.05547  -8084453.65447  21800176.6424   21800175.4704
      -585.9224       -456.5624
  18302453.43045  13547213.13744  25351406.8064   25351406.5834
     -4283.0004      -3337.4034
  -2330973.04745  -1730849.09943  25540340.3604   25540339.7044
      1652.7974       1287.8944
  11805619.86046   9222532.94146  23527896.3604   23527895.1064
     -3076.8444      -2397.5414
 96  8 31  5 25  0.0050000  0  7G19G 3G31G18G22G27G29
  -9648739.09947  -7413856.42646  22955718.6884   22955718.3134
       481.5944        375.2684
  -2690880.61445  -2028168.81945  24950479.7044   24950479.3534
       157.6564        122.8494
  -2587971.70245  -1947624.05945  24783843.8604   24783843.7434
      1934.8754       1507.6954
 -10446546.52547  -8070580.76847  21803564.6494   21803563.2204
      -601.0784       -468.3734
  18431035.01445  13647406.59844  25375874.4624   25375874.1694
     -4288.8594      -3341.9684
  -2380508.39545  -1769448.01945  25530913.7124   25530913.7944
      1649.4064       1285.2524
  11898101.21646   9294596.31946  23545494.8064   23545493.6814
     -3088.6724      -2406.7574
 96  8 31  5 25 30.0050000  0  7G19G 3G31G18G22G27G29
  -9663071.01247  -7425024.14046  22952991.3764   22952991.0714
       474.0634        369.3994
  -2695353.22945  -2031653.95945  24949628.9384   24949629.4074
       140.6094        109.5664
  -2645902.28445  -1992764.72744  24772820.2284   24772819.3604
      1927.3284       1501.8144
 -10428280.19947  -8056347.26147  21807040.6734   21807039.4664
      -616.7194       -480.5604
  18559778.29745  13747726.05845  25400373.3684   25400372.1614
     -4293.9224      -3345.9134
  -2429934.31745  -1807961.66444  25521508.6104   25521507.4744
      1645.7974       1282.4394
  11990938.27346   9366936.87046  23563161.1964   23563160.0604
     -3100.4064      -2415.9014
 96  8 31  5 26  0.0050000  0  7G19G 3G31G18G22G27G29
  -9677185.39947  -7436022.35846  22950305.6264   22950305.0174
       466.6884        363.6534
  -2699316.44045  -2034742.15745  24948874.6574   24948874.3174
       123.2664         96.0514
  -2703609.17245  -2037731.11145  24761838.7124   24761838.2314
      1919.4384       1495.6664
 -10409541.28347  -8041745.50647  21810606.5014   21810605.2474
      -633.0164       -493.2594
  18688671.63845  13848162.44145  25424901.2204   25424901.7704
     -4299.2974      -3350.1014
  -2479258.86045  -1846396.32644  25512122.1494   25512122.9114
      1642.2664       1279.6884
  12084123.39246   9439548.63546  23580894.2824   23580892.9234
     -3112.2974      -2425.1664
 96  8 31  5 26 30.0050000  0  7G19G 3G31G18G22G27G29
  -9691087.40047  -7446855.07646  22947659.9704   22947659.4544
       459.9224        358.3814
  -2702765.11745  -2037429.41245  24948218.2284   24948217.7354
       106.7664         83.1944
  -2761086.51145  -2082518.63445  24750901.2984   24750901.2984
      1912.1884       1490.0164
 -10390307.57547  -8026758.20047  21814266.4784   21814265.3294
      -649.3914       -506.0194
  18817721.41145  13948720.72245  25449458.9154   25449457.6264
     -4304.0314      -3353.7914
  -2528485.48445  -1884754.67644  25502755.1494   25502755.6654
      1639.3134       1277.3864
  12177657.11946   9512432.04646  23598692.7434   23598691.3844
     -3123.3754      -2433.7994
 96  8 31  5 27  0.0050000  0  7G19G 3G31G18G22G27G29
  -9704771.30747  -7457517.84746  22945055.9544   22945055.6614
       452.2814        352.4274
  -2705721.35345  -2039732.94345  24947655.8534   24947656.2394
        90.3284         70.3864
  -2818333.81545  -2127126.89245  24740007.6424   24740008.0994
      1904.3914       1483.9414
 -10370572.88347  -8011380.51147  21818021.8454   21818020.5914
      -666.1564       -519.0834
  18946919.80245  14049394.79243  25474044.3294   25474043.5564
     -4309.1254      -3357.7604
  -2577607.01945  -1923031.13244  25493407.4934   25493407.7744
      1635.4694       1274.3914
  12271544.28846   9585590.86746  23616558.9314   23616557.5604
     -3135.9224      -2443.5754
 96  8 31  5 27 30.0050000  0  7G19G 3G31G18G22G27G29
  -9718226.97647  -7468002.77246  22942495.6264   22942495.4154
       444.6254        346.4614
  -2708184.12545  -2041651.97045  24947187.0404   24947186.3724
        73.8594         57.5534
  -2875353.23045  -2171557.57845  24729156.8994   24729155.6924
      1896.7974       1478.0244
 -10350347.80147  -7995620.69947  21821870.5484   21821869.2944
      -682.1254       -531.5264
  19076264.24145  14150182.68244  25498656.5324   25498656.1104
     -4314.0944      -3361.6314
  -2626625.24845  -1961227.11445  25484079.2744   25484078.8294
      1632.5004       1272.0784
  12365806.24346   9659041.73146  23634496.5014   23634495.2354
     -3148.3914      -2453.2914
 96  8 31  5 28  0.0050000  0  7G19G 3G31G18G22G27G29
  -9731447.48247  -7478304.45446  22939979.6034   22939979.4274
       436.7034        340.2884
  -2710160.90245  -2043192.30345  24946811.1734   24946811.0674
        57.7034         44.9634
  -2932137.16745  -2215804.78345  24718351.3214   24718350.7354
      1888.5314       1471.5834
 -10329642.95047  -7979487.04147  21825810.7904   21825809.3604
      -698.3444       -544.1644
  19205766.62645  14251093.65945  25523300.7744   25523301.0674
     -4319.4694      -3365.8204
  -2675558.13045  -1999356.60845  25474767.9544   25474768.6694
      1629.6884       1269.8864
  12460451.02246   9732790.89046  23652506.9784   23652505.4544
     -3161.3444      -2463.3854
 96  8 31  5 28 30.0050000  0  7G19G 3G31G18G22G27G29
  -9744439.63247  -7488428.20146  22937507.3844   22937507.2784
       429.4534        334.6394
  -2711647.10245  -2044350.36045  24946528.3454   24946528.3214
        41.4064         32.2654
  -2988668.58645  -2259855.20345  24707593.8604   24707593.3214
      1880.2504       1465.1304
 -10308446.88247  -7962970.62347  21829844.0954   21829842.8174
      -714.6564       -556.8754
  19335425.59745  14352126.61844  25547974.1344   25547973.7244
     -4324.2974      -3369.5824
  -2724412.06245  -2037424.55844  25465470.7204   25465470.3684
      1627.2034       1267.9504
  12555478.93046   9806838.59946  23670589.7744   23670588.3804
     -3173.6564      -2472.9794
 96  8 31  5 29  0.0050000  0  7G19G 3G31G18G22G27G29
  -9757220.14547  -7498387.03746  22935075.2434   22935074.9744
       422.6564        329.3434
  -2712642.90745  -2045126.29645  24946338.4784   24946337.8924
        24.8914         19.3954
  -3044950.73745  -2303711.40245  24696883.6734   24696882.7824
      1871.8444       1458.5804
 -10286775.00547  -7946083.44747  21833967.8454   21833966.5794
      -730.1564       -568.9534
  19465213.98245  14453260.45144  25572671.8924   25572671.3534
     -4328.3124      -3372.7114
  -2773197.91545  -2075439.47345  25456187.2124   25456187.0014
      1625.2814       1266.4534
  12650862.97746   9881163.82046  23688740.8844   23688739.3954
     -3185.2344      -2482.0014
 96  8 31  5 29 30.0050000  0  7G19G 3G31G18G22G27G29
  -9769805.05847  -7508193.44546  22932680.5324   22932680.1574
       416.4844        324.5334
  -2713138.16045  -2045512.17945  24946244.9234   24946244.5364
         8.1884          6.3804
  -3100971.98445  -2347364.30145  24686223.2434   24686222.3174
      1862.8444       1451.5674
 -10264634.66847  -7928831.22647  21838181.1574   21838179.7394
      -745.9064       -581.2264
  19595125.79645  14554490.44543  25597393.1734   25597393.4894
     -4332.5474      -3376.0114
  -2821934.28545  -2113415.84045  25446913.4154   25446913.5204
      1623.9064       1265.3814
  12746585.87846   9955753.08146  23706956.3764   23706955.2394
     -3196.2974      -2490.6214
 96  8 31  5 30  0.0050000  0  7G19G 3G31G18G22G27G29
  -9782209.68747  -7517859.38446  22930319.7744   22930319.3644
       410.6884        320.0164
  -2713131.95445  -2045507.32745  24946245.6964   24946245.1224
        -8.5164         -6.6364
  -3156713.18345  -2390798.97645  24675615.9314   24675615.2634
      1853.4224       1444.2254
 -10242011.11947  -7911202.47247  21842486.2514   21842484.9744
      -762.1564       -593.8884
  19725168.23545  14655822.21243  25622139.4934   25622138.6384
     -4336.6564      -3379.2134
  -2870621.39845  -2151353.81745  25437648.4854   25437648.4854
      1622.0944       1263.9694
  12842638.42746  10030599.21046  23725234.8064   23725233.3644
     -3206.8914      -2498.8764
 96  8 31  5 30 30.0050000  0  7G19G 3G31G18G22G27G29
  -9794440.10547  -7527389.56946  22927992.4154   22927992.0524
       404.6094        315.2804
  -2712619.31645  -2045107.84845  24946343.1264   24946342.8104
       -25.4534        -19.8344
  -3212174.51245  -2434015.56945  24665061.6034   24665060.9704
      1844.1884       1437.0294
 -10218906.29247  -7893198.70347  21846882.9704   21846881.8684
      -777.9374       -606.1854
  19855326.95845  14757244.60243  25646907.9544   25646907.0874
     -4340.3284      -3382.0744
  -2919248.38745  -2189244.93045  25428394.7124   25428394.7354
      1619.7034       1262.1064
  12939006.53846  10105691.23846  23743573.0954   23743571.8644
     -3217.5784      -2507.2044
 96  8 31  5 31  0.0050000  0  7G19G 3G31G18G22G27G29
  -9806478.92147  -7536770.45046  22925701.6814   22925701.2474
       398.0634        310.1794
  -2711605.61345  -2044317.93845  24946535.8844   24946536.0484
       -41.8444        -32.6064
  -3267356.75946  -2477014.70245  24654561.1884   24654561.1534
      1834.7504       1429.6754
 -10195335.12047  -7874831.56447  21851368.6654   21851367.5174
      -793.4694       -618.2874
  19985591.44745  14858749.38943  25671696.4314   25671696.3374
     -4343.9374      -3384.8864
  -2967797.80145  -2227075.60444  25419156.0484   25419154.9814
      1617.1094       1260.0854
  13035702.79446  10181038.95946  23761973.8294   23761972.5284
     -3228.8444      -2515.9824
 96  8 31  5 31 30.0050000  0  7G19G 3G31G18G22G27G29
  -9818315.29047  -7545993.58446  22923449.2514   22923448.6534
       391.0634        304.7244
  -2710103.84945  -2043147.71145  24946821.7434   24946821.0634
       -58.1414        -45.3044
  -3322254.38446  -2519792.04945  24644114.5874   24644114.0134
      1825.2664       1422.2854
 -10171284.56947  -7856090.87247  21855945.2354   21855943.9234
      -809.6724       -630.9134
  20115973.57145  14960345.88142  25696507.1344   25696507.7674
     -4347.9224      -3387.9914
  -3016263.58745  -2264841.10944  25409933.4314   25409932.3534
      1614.0314       1257.6874
  13132746.26446  10256657.23346  23780440.6034   23780439.1494
     -3240.4844      -2525.0534
 96  8 31  5 32  0.0050000  0  7G19G 3G31G18G22G27G29
  -9829940.44747  -7555052.13246  22921237.2514   22921236.7124
       383.9534        299.1844
  -2708121.67245  -2041603.12445  24947199.1494   24947198.1534
       -73.8284        -57.5284
  -3376885.13646  -2562361.44845  24633718.6104   24633718.1884
      1816.9224       1415.7834
 -10146762.98347  -7836983.12847  21860611.5794   21860610.3604
      -824.8594       -642.7484
  20246461.10645  15062024.45243  25721338.4934   25721338.0364
     -4351.1564      -3390.5114
  -3064639.98345  -2302536.96745  25400727.4544   25400728.0284
      1611.2814       1255.5444
  13230130.12346  10332540.75246  23798972.0564   23798970.4154
     -3251.5944      -2533.7094
 96  8 31  5 32 30.0050000  0  7G19G 3G31G18G22G27G29
  -9841339.25747  -7563934.31346  22919067.9384   22919067.4354
       376.0944        293.0604
  -2705656.58145  -2039682.25245  24947668.0324   24947667.5874
       -90.3594        -70.4104
  -3431251.51546  -2604724.84145  24623373.3924   24623373.2514
      1807.6094       1408.5274
 -10121780.38547  -7817516.16147  21865365.4624   21865364.3724
      -840.6254       -655.0324
  20377064.94445  15163793.72643  25746191.8064   25746191.8064
     -4355.7344      -3394.0794
  -3112930.68245  -2340166.03344  25391537.9624   25391537.7744
      1608.0944       1253.0604
  13327859.56546  10408693.55046  23817568.9784   23817567.4894
     -3263.6094      -2543.0724
 96  8 31  5 33  0.0060000  0  7G19G 3G31G18G22G27G29
  -9852509.27147  -7572638.21246  22916942.6234   22916942.3074
       368.6564        287.2654
  -2702701.08945  -2037379.26045  24948230.5534   24948230.5294
      -106.6414        -83.0974
  -3485339.86446  -2646871.58845  24613080.8654   24613079.7524
      1798.1724       1401.1734
 -10096322.06547  -7797678.50847  21870209.9364   21870208.5534
      -856.5004       -667.4034
  20507819.68345  15265680.50343  25771073.3964   25771073.1154
     -4361.0474      -3398.2184
  -3161133.08345  -2377726.32644  25382365.0064   25382364.7484
      1605.3134       1250.8934
  13425947.26346  10485125.51046  23836234.5924   23836233.3384
     -3275.2034      -2552.1064
 96  8 31  5 33 30.0060000  0  7G19G 3G31G18G22G27G29
  -9863468.20247  -7581177.62646  22914857.2794   22914856.7874
       361.9694        282.0544
  -2699262.31146  -2034699.67245  24948884.9364   24948884.6194
      -122.8124        -95.6984
  -3539158.15646  -2688807.90445  24602839.1234   24602837.9754
      1789.6414       1394.5254
 -10070399.14347  -7777478.81747  21875142.9824   21875141.4944
      -871.7034       -679.2494
  20638728.06045  15367687.03843  25795984.6784   25795984.1624
     -4366.2974      -3402.3094
  -3209254.39845  -2415223.41745  25373208.0374   25373207.9434
      1602.7034       1248.8604
  13524360.80546  10561811.36946  23854962.3814   23854961.0214
     -3285.7664      -2560.3374
 96  8 31  5 34  0.0060000  0  7G19G 3G31G18G22G27G29
  -9874234.98547  -7589567.31946  22912808.1544   22912807.5334
       356.0474        277.4394
  -2695332.22945  -2031637.25645  24949632.7254   24949632.6544
      -139.1724       -108.4464
  -3592723.47846  -2730547.07745  24592646.0844   24592645.7324
      1781.4064       1388.1094
 -10044025.93747  -7756928.28047  21880161.7404   21880160.2054
      -886.5314       -690.8044
  20769797.05945  15469818.73143  25820925.7014   25820926.1114
     -4371.6724      -3406.4984
  -3257305.15745  -2452665.52945  25364064.5844   25364064.9594
      1600.8444       1247.4114
  13623091.28546  10638744.19446  23873749.9674   23873748.5844
     -3296.2194      -2568.4824
 96  8 31  5 34 30.0060000  0  7G19G 3G31G18G22G27G29
  -9884837.87547  -7597829.30046  22910790.5294   22910790.1314
       350.6254        273.2144
  -2690903.42745  -2028186.21045  24950475.2714   24950474.6394
      -156.3914       -121.8634
  -3646032.87246  -2772086.84445  24582501.2014   24582500.2174
      1772.3594       1381.0594
 -10017201.17447  -7736025.85447  21885266.3114   21885264.9984
      -902.2344       -703.0404
  20901025.81745  15572074.93643  25845897.9364   25845897.2214
     -4376.9534      -3410.6134
  -3305295.32345  -2490060.41645  25354932.2094   25354931.7524
      1598.1564       1245.3174
  13722134.24746  10715920.52946  23892597.3964   23892596.2134
     -3306.9064      -2576.8104
 96  8 31  5 35  0.0060000  0  7G19G 3G31G18G22G27G29
  -9895278.27947  -7605964.66246  22908803.7324   22908803.1464
       345.5474        269.2574
  -2685953.05546  -2024328.76145  24951417.3964   24951416.0964
      -173.6094       -135.2804
  -3699079.84346  -2813422.12445  24572406.8734   24572405.9474
      1764.1724       1374.6794
  -9989893.22947  -7714746.92446  21890462.6074   21890461.1544
      -918.1874       -715.4714
  21032397.68444  15674442.61141  25870896.5924   25870897.0844
     -4380.9374      -3413.7184
  -3353196.54545  -2527386.00245  25345816.6154   25345816.1824
      1595.3914       1243.1624
  13821498.80646  10793347.43546  23911505.8964   23911504.7134
     -3317.2814      -2584.8944
 96  8 31  5 35 30.0060000  0  7G19G 3G31G18G22G27G29
  -9905552.09447  -7613970.23146  22906848.5924   22906847.9714
       339.5314        264.5704
  -2680469.52945  -2020055.85745  24952460.7714   24952460.3964
      -191.9064       -149.5374
  -3751866.61646  -2854554.66045  24562361.9754   24562361.5644
      1755.0474       1367.5694
  -9962093.16647  -7693084.52846  21895752.9044   21895751.8144
      -935.1094       -728.6574
  21163888.69144  15776903.14243  25895918.2644   25895919.4004
     -4384.8124      -3416.7374
  -3401005.71745  -2564639.86845  25336719.3184   25336719.0254
      1592.2194       1240.6904
  13921189.60446  10871028.56246  23930476.5064   23930475.4514
     -3328.7504      -2593.8314
 96  8 31  5 36  0.0060000  0  7G19G 3G31G18G22G27G29
  -9915646.63347  -7621836.09646  22904927.6004   22904927.0144
       333.2664        259.6884
  -2674433.28246  -2015352.27545  24953609.4124   24953608.8734
      -210.5314       -164.0504
  -3804372.56846  -2895468.35845  24552370.5064   24552370.2834
      1745.2664       1359.9474
  -9933783.60247  -7671025.11547  21901140.0764   21901138.8694
      -952.2504       -742.0134
  21295475.10645  15879438.02642  25920959.1544   25920959.8574
     -4387.5784      -3418.8924
  -3448734.65945  -2601831.21445  25327636.7404   25327637.3504
      1589.7814       1238.7914
  14021221.25846  10948975.29546  23949511.7174   23949510.4864
     -3339.9844      -2602.5854
 96  8 31  5 36 30.0060000  0  7G19G 3G31G18G22G27G29
  -9925537.38847  -7629543.17746  22903045.6074   22903044.9864
       326.0634        254.0754
  -2667839.80145  -2010214.48445  24954864.2174   24954862.7524
      -228.7194       -178.2224
  -3856576.81546  -2936146.96745  24542436.0454   24542435.6114
      1735.2034       1352.1064
  -9904958.12647  -7648563.70546  21906625.3264   21906624.1434
      -969.3594       -755.3454
  21427136.22045  15982031.08742  25946012.9674   25946010.9164
     -4389.6414      -3420.4994
  -3496387.75145  -2638963.47845  25318568.0924   25318567.6704
      1587.1564       1236.7454
  14121590.25146  11027184.88046  23968611.4984   23968610.5494
     -3351.1254      -2611.2664
 96  8 31  5 37  0.0060000  0  7G19G 3G31G18G22G27G29
  -9935196.74447  -7637069.93646  22901207.3184   22901206.7564
       317.8444        247.6704
  -2660708.74346  -2004657.79145  24956221.2794   24956220.8114
      -246.5164       -192.0904
  -3908478.26946  -2976589.64345  24532559.5144   24532559.0214
      1724.7194       1343.9374
  -9875618.66847  -7625701.78347  21912208.3814   21912207.2094
      -986.4374       -768.6534
  21558860.40144  16084673.30143  25971079.2564   25971078.7524
     -4392.2344      -3422.5204
  -3543969.13445  -2676039.86745  25309513.9044   25309514.3504
      1584.9844       1235.0534
  14222294.60346  11105655.78646  23987774.5534   23987773.1584
     -3362.4844      -2620.1184
 96  8 31  5 37 30.0060000  0  7G19G 3G31G18G22G27G29
  -9944605.70647  -7644401.58246  22899417.2404   22899416.7134
       309.3284        241.0354
  -2653059.55946  -1998697.38545  24957676.9124   24957675.6354
      -263.5004       -205.3254
  -3960062.41446  -3016785.07145  24522743.4674   24522742.9044
      1714.1414       1335.6944
  -9845784.79447  -7602454.61447  21917885.3264   21917884.0964
     -1002.6254       -781.2664
  21690667.39144  16187380.04242  25996161.1934   25996159.8574
     -4394.9844      -3424.6634
  -3591496.27845  -2713073.95345  25300470.0214   25300469.2484
      1583.5004       1233.8964
  14323334.31746  11184388.00946  24007001.8814   24007000.8504
     -3373.4844      -2628.6894
 96  8 31  5 38  0.0060000  0  7G19G 3G31G18G22G27G29
  -9953766.01847  -7651539.47846  22897673.6544   22897673.1744
       301.4064        234.8624
  -2644907.62346  -1992345.21045  24959228.4984   24959227.3504
      -279.7664       -217.9994
  -4011330.58846  -3056734.26445  24512987.5844   24512986.6584
      1703.7664       1327.6104
  -9815467.23547  -7578830.55047  21923654.9204   21923653.7834
     -1018.4064       -793.5634
  21822558.96244  16290152.69442  26021260.2254   26021260.5064
     -4397.8594      -3426.9034
  -3638981.59745  -2750075.46945  25291433.8894   25291434.1114
      1582.0784       1232.7884
  14424690.89746  11263367.14446  24026289.3734   24026287.8964
     -3383.5314      -2636.5184
 96  8 31  5 38 30.0060000  0  7G19G 3G31G18G22G27G29
  -9962685.60847  -7658489.79946  22895976.3504   22895975.6934
       293.7344        228.8844
  -2636274.04146  -1985617.73445  24960870.7324   24960870.2054
      -295.4844       -230.2484
  -4062282.26146  -3096436.84845  24503291.7714   24503291.8424
      1693.3134       1319.4644
  -9784672.87547  -7554834.94947  21929514.6784   21929513.4244
     -1034.2194       -805.8854
     88004.69954  16393007.29142  26046376.8814   26046376.3424
     -4401.5474      -3429.7774
  -3686404.17345  -2787028.09245  25282409.3964   25282408.8224
      1579.5474       1230.8164
  14526358.90746  11342588.95746  24045636.2714   24045634.9944
     -3394.0164      -2644.6874
 96  8 31  5 39  0.0060000  0  7G19G 3G31G18G22G27G29
  -9971394.85347  -7665276.20646  22894319.3344   22894318.7834
       287.1884        223.7824
  -2627169.64246  -1978523.37645  24962603.2484   24962602.8614
      -311.4224       -242.6664
  -4112918.37246  -3135893.54945  24493655.6314   24493655.1744
      1682.6094       1311.1244
  -9753409.95847  -7530474.23247  21935463.7954   21935462.6114
     -1049.8124       -818.0364
      4399.72354  16495942.37242  26071515.6074   26071515.7484
     -4405.0314      -3432.4924
  -3733750.01845  -2823920.92945  25273399.3964   25273399.7014
      1576.8914       1228.7464
  14628340.64846  11422055.23446  24065042.8344   24065041.8144
     -3404.7504      -2653.0524
 96  8 31  5 39 30.0060000  0  7G19G 3G31G18G22G27G29
  -9979917.96647  -7671917.58046  22892697.3114   22892696.7834
       281.0784        219.0224
  -2617580.29746  -1971051.14745  24964428.3654   24964428.5414
      -328.0944       -255.6574
  -4163236.78046  -3175102.67445  24484080.2644   24484079.3504
      1671.8594       1302.7484
  -9721680.12447  -7505749.69047  21941501.9044   21941500.5804
     -1065.5944       -830.3334
    136597.33744  16598953.50742  26096671.2324   26096670.7994
     -4407.9224      -3434.7444
  -3781011.10045  -2860747.71945  25264405.9594   25264406.6624
      1573.8914       1226.4084
  14730642.97746  11501771.32146  24084510.2254   24084508.8074
     -3415.4064      -2661.3564
 96  8 31  5 40  0.0060000  0  7G19G 3G31G18G22G27G29
  -9988276.92547  -7678431.05046  22891106.5844   22891106.0214
       276.2814        215.2844
  -2607484.15846  -1963184.01045  24966349.1784   24966348.3814
      -344.7344       -268.6244
  -4213231.78946  -3214059.80645  24474566.7644   24474566.0844
      1661.2814       1294.5054
  -9689479.24447  -7480658.10247  21947629.5294   21947628.4044
     -1080.8594       -842.2284
    268861.51744  16702016.48443  26121841.0454   26121841.1394
     -4409.4534      -3435.9374
  -3828183.08045  -2897505.07245  25255429.4434   25255429.1154
      1571.0164       1224.1684
  14833257.00946  11581730.28746  24104037.0064   24104035.7754
     -3425.3914      -2669.1364
 96  8 31  5 40 30.0060000  0  6G19G 3G31G18G27G29
  -9996479.82847  -7684822.91646  22889545.4594   22889545.0254
       270.7034        210.9384
  -2596875.53846  -1954917.54045  24968368.0064   24968367.3854
      -362.6254       -282.5654
  -4262905.09246  -3252766.24645  24465114.2564   24465113.6704
      1650.3444       1285.9824
  -9656817.96847  -7455207.75847  21953844.9594   21953843.5884
     -1096.6564       -854.5374
  -3875257.69845  -2934186.56345  25246471.1784   25246471.3654
      1567.4534       1221.3924
  14936180.36546  11661930.28746  24123622.8344   24123621.9204
     -3436.0624      -2677.4514
 96  8 31  5 41  0.0060000  0  6G19G 3G31G18G27G29
 -10004520.46647  -7691088.33146  22888015.5374   22888014.9044
       264.9224        206.4334
  -2585722.88246  -1946227.13945  24970490.5684   24970490.2874
      -381.0474       -296.9204
  -4312255.60146  -3291221.17045  24455723.3574   24455722.3384
      1639.5474       1277.5694
  -9623680.44747  -7429386.31647  21960150.7324   21960149.2214
     -1112.8754       -867.1754
  -3922242.90445  -2970798.35945  25237530.5144   25237530.0454
      1564.7974       1219.3224
  15039413.96546  11742372.04446  24143267.5144   24143266.1544
     -3446.3594      -2685.4754
 96  8 31  5 41 30.0060000  0  6G19G 3G31G18G27G29
 -10012371.65147  -7697206.12146  22886521.6784   22886520.9044
       258.3284        201.2954
  -2574013.35046  -1937102.82145  24972718.6544   24972718.2564
      -399.6094       -311.3844
  -4361274.29746  -3329417.53645  24446395.2794   24446394.7644
      1628.2194       1268.7424
  -9590044.37247  -7403176.39847  21966551.5144   21966550.3184
     -1129.5624       -880.1794
  -3969152.27845  -3007351.08945  25228603.9124   25228603.6434
      1562.5004       1217.5324
  15142954.43346  11823052.91246  24162970.6864   24162969.5254
     -3456.3914      -2693.2914
 96  8 31  5 42  0.0060000  0  6G19G 3G31G18G27G29
 -10020028.75647  -7703172.68546  22885064.4284   22885063.6434
       251.9534        196.3274
  -2561756.74746  -1927552.21045  24975051.4044   24975050.6194
      -417.5164       -325.3374
  -4409962.76946  -3367356.57445  24437130.1864   24437129.2484
      1617.6414       1260.4994
  -9555912.16547  -7376579.87447  21973046.7714   21973045.3184
     -1145.9844       -892.9754
  -4015992.53745  -3043849.96645  25219690.4514   25219689.9364
      1560.0784       1215.6454
  15246793.27146  11903966.27746  24182730.4434   24182729.3894
     -3466.4374      -2701.1204
 96  8 31  5 42 30.0060000  0  6G19G 3G31G18G27G29
 -10027479.27247  -7708978.27746  22883646.5844   22883645.8114
       244.9224        190.8484
  -2548959.65046  -1917580.43445  24977486.0614   24977485.6744
      -435.5474       -339.3874
  -4458331.48346  -3405046.46145  24427925.6624   24427924.9124
      1606.9694       1252.1834
  -9521273.69947  -7349588.87547  21979638.1394   21979636.6744
     -1163.3124       -906.4774
  -4062757.78945  -3080290.40145  25210790.8504   25210791.1194
      1557.6884       1213.7824
  15350948.95246  11985126.53246  24202550.7094   24202549.2794
     -3477.3444      -2709.6194
 96  8 31  5 43  0.0060000  0  6G19G 3G31G18G27G29
 -10034721.83047  -7714621.82746  22882268.4204   22882267.4824
       237.8284        185.3214
  -2535634.83646  -1907197.45145  24980022.1934   24980021.7014
      -452.6254       -352.6954
  -4506380.69446  -3442487.37845  24418782.4904   24418781.3774
      1596.2344       1243.8194
  -9486111.62947  -7322189.85647  21986329.3574   21986328.0574
     -1180.7034       -920.0284
  -4109457.68045  -3116679.88645  25201904.3264   25201904.3144
      1555.4844       1212.0664
  15455439.82346  12066547.97646  24222434.7254   24222433.6934
     -3488.9224      -2718.6404
 96  8 31  5 43 30.0060000  0  6G19G 3G31G18G27G29
 -10041749.50047  -7720097.91646  22880931.0454   22880930.3654
       230.7664        179.8174
  -2521799.15146  -1896416.38645  24982654.6704   24982653.8144
      -469.7974       -366.0754
  -4554107.39846  -3479677.00545  24409700.1074   24409699.1464
      1585.5784       1235.5154
  -9450437.40047  -7294391.76247  21993117.7644   21993116.3344
     -1197.4064       -933.0444
  -4156081.98445  -3153010.47945  25193032.3184   25193031.5104
      1552.7034       1209.8994
  15560285.51446  12148245.90046  24242386.0844   24242384.8304
     -3500.6874      -2727.8084
 96  8 31  5 44  0.0060000  0  6G19G 3G31G18G27G29
 -10048574.58247  -7725416.15946  22879632.1464   22879631.5614
       224.0784        174.6064
  -2507448.17146  -1885233.79445  24985386.1784   24985385.4754
      -487.1414       -379.5904
  -4601522.13746  -3516623.52045  24400677.4904   24400676.4944
      1575.1414       1227.3824
  -9414268.43647  -7266208.16347  22000000.5844   21999999.2254
     -1213.8914       -945.8894
  -4202623.11345  -3189276.25945  25184175.9514   25184175.2714
      1550.0944       1207.8654
  15665471.90946  12230209.31445  24262401.9754   24262401.0724
     -3511.7664      -2736.4414
 96  8 31  5 44 30.0060000  0  6G19G 3G31G18G27G29
 -10055193.81847  -7730574.00846  22878372.5684   22878371.8774
       217.2344        169.2744
  -2492574.09846  -1873643.59845  24988215.7254   24988215.1974
      -504.4694       -393.0934
  -4648615.25546  -3553319.44145  24391716.0144   24391715.2754
      1564.3134       1218.9454
  -9377603.09047  -7237637.76547  22006977.8034   22006976.5024
     -1230.3754       -958.7344
  -4249093.44345  -3225486.89045  25175332.9904   25175331.9594
      1548.0784       1206.2954
  15770985.72846  12312427.85446  24282481.0844   24282479.9714
     -3522.3284      -2744.6714
 96  8 31  5 45  0.0060000  0  6G19G 3G31G18G27G29
 -10061601.46647  -7735566.97446  22877153.4674   22877152.8814
       210.0474        163.6734
  -2477174.72646  -1861644.07645  24991146.9674   24991146.4634
      -522.0784       -406.8144
  -4695362.55046  -3589745.87545  24382820.0294   24382819.7014
      1552.3134       1209.5944
  -9340447.43047  -7208685.29647  22014048.1864   22014046.9904
     -1246.3444       -971.1774
  -4295505.05745  -3261651.74745  25166500.8814   25166500.4594
      1546.2194       1204.8464
  15876814.18446  12394891.57045  24302619.7404   24302618.3464
     -3532.5164      -2752.6104
 96  8 31  5 45 30.0060000  0  6G19G 3G31G18G27G29
 -10067791.23247  -7740390.16146  22875975.5374   22875975.1034
       202.9064        158.1094
  -2461232.60046  -1849221.63445  24994179.7484   24994178.9394
      -540.5474       -421.2054
  -4741743.08546  -3625886.53745  24373994.6464   24373993.9434
      1539.9534       1199.9634
  -9302816.25247  -7179362.30147  22021209.0764   22021207.5064
     -1262.2814       -983.5964
  -4341866.27645  -3297777.34845  25157678.5764   25157677.4864
      1544.7814       1203.7264
  15982929.93546  12477579.14645  24322812.8184   24322811.7284
     -3541.5624      -2759.6594
 96  8 31  5 46  0.0060000  0  6G19G 3G31G18G27G29
 -10073773.59647  -7745051.73646  22874837.3654   22874836.7914
       196.0004        152.7274
  -2444748.79346  -1836377.09645  24997316.6624   24997316.4514
      -558.2814       -435.0244
  -4787752.91146  -3661738.32445  24365238.8894   24365237.8464
      1527.4384       1190.2114
  -9264704.55847  -7149664.88647  22028461.8344   22028460.5574
     -1278.3754       -996.1364
  -4388194.97245  -3333877.60845  25148862.7564   25148862.1234
      1543.9384       1203.0684
  16089314.38346  12560476.10845  24343056.8654   24343055.7284
     -3550.8914      -2766.9284
 96  8 31  5 46 30.0060000  0  6G19G 3G31G18G27G29
 -10079540.56147  -7749545.46946  22873739.6624   22873738.8074
       188.8594        147.1634
  -2427724.95546  -1823111.76045  25000556.3654   25000555.9674
      -576.3284       -449.0874
  -4833379.19246  -3697291.24345  24356556.4044   24356555.4324
      1514.6724       1180.2644
  -9226102.49247  -7119585.36247  22035807.5294   22035806.2524
     -1294.8124      -1008.9454
  -4434491.82245  -3369953.05345  25140052.5844   25140052.1624
      1542.7974       1202.1794
  16196001.92146  12643609.23045  24363358.9754   24363357.8384
     -3561.3594      -2775.0854
 96  8 31  5 47  0.0060000  0  6G19G 3G31G18G27G29
 -10085104.84447  -7753881.27246  22872680.9824   22872680.2444
       182.2974        142.0504
  -2410163.02246  -1809427.14345  25003898.3574   25003897.2094
      -594.2664       -463.0644
  -4878633.53646  -3732554.34945  24347944.6394   24347943.7834
      1502.6884       1170.9254
  -9187017.81847  -7089129.76947  22043244.7644   22043243.4754
     -1310.7504      -1021.3644
  -4480753.74045  -3406001.26645  25131249.6934   25131249.2254
      1541.3284       1201.0354
  16302998.90746  12726983.48745  24383719.6864   24383718.0924
     -3571.5944      -2783.0604
 96  8 31  5 47 30.0060000  0  6G19G 3G31G18G27G29
 -10090474.38147  -7758065.31646  22871659.0064   22871658.3034
       175.8594        137.0334
  -2392059.87946  -1795320.76845  25007342.8184   25007342.2324
      -612.4534       -477.2364
  -4923540.24346  -3767546.56445  24339399.4594   24339399.0844
      1491.1564       1161.9404
  -9147449.83247  -7058297.58247  22050774.4044   22050773.1624
     -1327.0944      -1034.0994
  -4526956.35045  -3442003.26845  25122456.9984   25122456.3074
      1538.7344       1199.0144
  16410299.69646  12810594.47945  24404138.2714   24404137.0184
     -3581.9224      -2791.1084
 96  8 31  5 48  0.0060000  0  6G19G 3G31G18G27G29
 -10095657.79547  -7762104.33346  22870672.8264   22870672.1354
       169.7974        132.3094
  -2373424.41346  -1780799.63145  25010889.2094   25010888.9984
      -630.0314       -490.9334
  -4968099.96146  -3802268.41045  24330919.7874   24330919.2714
      1479.5784       1152.9184
  -9107394.69747  -7027085.78747  22058396.6544   22058395.3184
     -1343.1094      -1046.5794
  -4573069.23145  -3477935.35445  25113682.2954   25113681.3574
      1535.4534       1196.4574
  16517918.07146  12894452.93745  24424617.4364   24424616.5574
     -3592.4844      -2799.3384
 96  8 31  5 48 30.0060000  0  6G19G 3G31G18G27G29
 -10100664.82847  -7766005.90546  22869719.9754   22869719.3074
       164.0164        127.8044
  -2354257.00546  -1765863.98345  25014537.2254   25014536.3464
      -647.6414       -504.6554
  -5012318.65946  -3836724.51245  24322505.8034   24322505.0644
      1468.1564       1144.0184
  -9066864.72347  -6995503.99947  22066109.4204   22066108.1194
     -1358.9224      -1058.9004
  -4619080.12345  -3513787.98845  25104926.7014   25104926.2444
      1531.8134       1193.6204
  16625836.17646  12978544.94745  24445153.5684   24445152.4204
     -3601.8594      -2806.6444
 96  8 31  5 49  0.0060000  0  6G19G 3G31G18G27G29
 -10105493.87947  -7769768.79646  22868801.3264   22868800.5414
       158.0474        123.1534
  -2334568.74046  -1750522.47045  25018283.1544   25018282.4864
      -664.7664       -517.9994
  -5056183.32346  -3870904.75045  24314158.0924   24314157.5534
      1456.2504       1134.7404
  -9025861.44047  -6963553.39747  22073912.2094   22073910.8504
     -1374.5474      -1071.0754
  -4664968.04945  -3549544.78945  25096194.5374   25096193.8574
      1527.5634       1190.3084
  16734030.40946  13062852.12845  24465742.5534   24465741.4394
     -3610.9374      -2813.7184
 96  8 31  5 49 30.0060000  0  6G19G 3G31G18G27G29
 -10110134.81247  -7773385.09846  22867917.7954   22867917.2094
       151.7344        118.2354
  -2314357.54446  -1734773.46845  25022129.5144   25022128.9634
      -682.3914       -531.7334
  -5099672.68846  -3904792.53745  24305882.5064   24305881.3464
      1443.1094       1124.5014
  -8984378.26347  -6931228.84747  22081806.1004   22081804.6934
     -1390.7504      -1083.7014
  -4710724.78045  -3585199.35445  25087487.1394   25087485.8034
      1523.4064       1187.0704
  16842502.14946  13147375.54345  24486383.7324   24486382.4904
     -3620.3284      -2821.0354
 96  8 31  5 50  0.0060000  0  6G19G 3G31G18G27G29
 -10114588.56447  -7776855.54746  22867070.0924   22867069.6464
       145.2194        113.1574
  -2293614.84446  -1718610.32045  25026076.5064   25026076.2254
      -700.5624       -545.8934
  -5142761.21946  -3938367.98845  24297682.8654   24297682.1394
      1429.5944       1113.9694
  -8942406.09747  -6898523.26347  22089793.0064   22089791.6704
     -1407.3914      -1096.6684
  -4756369.63245  -3620766.74245  25078801.2644   25078800.9594
      1519.8914       1184.3304
  16951256.61646  13232119.26045  24507079.4044   24507078.1974
     -3629.8284      -2828.4374
 96  8 31  5 50 30.0060000  0  6G19G 3G31G18G27G29
 -10118850.79247  -7780176.75946  22866259.0294   22866258.4324
       138.7664        108.1294
  -2272326.58646  -1702022.05545  25030127.5534   25030127.0494
      -718.6564       -559.9924
  -5185452.79046  -3971634.13645  24289558.9754   24289558.2834
      1416.3444       1103.6444
  -8899937.45747  -6865430.81847  22097874.5144   22097873.1074
     -1424.0944      -1109.6834
  -4801930.86245  -3656268.97945  25070131.0214   25070129.7214
      1517.5164       1182.4804
  17060286.63346  13317077.69545  24527827.0534   24527825.8934
     -3639.0314      -2835.6094
 96  8 31  5 51  0.0060000  0  6G19G 3G31G18G27G29
 -10122917.91047  -7783345.92846  22865485.0844   22865484.4634
       132.2194        103.0284
  -2250492.71046  -1685008.64145  25034282.4754   25034281.8304
      -737.4224       -574.6144
  -5227747.18246  -4004590.78045  24281510.4674   24281509.8224
      1403.1094       1093.3324
  -8856964.03847  -6831945.04547  22106051.9824   22106050.6464
     -1441.2034      -1123.0154
  -4847428.99445  -3691722.03845  25061472.9364   25061472.4084
      1515.5634       1180.9584
  17169599.06846  13402256.20745  24548628.3654   24548626.7484
     -3648.7344      -2843.1704
 96  8 31  5 51 30.0060000  0  6G19G 3G31G18G27G29
 -10126786.20347  -7786360.16846  22864749.0684   22864748.5884
       125.8914         98.0974
  -2228080.18546  -1667544.32945  25038547.7174   25038547.2364
      -756.5164       -589.4934
  -5269640.36746  -4037234.80145  24273538.5374   24273537.7054
      1389.8914       1083.0324
  -8813462.95647  -6798048.10847  22114330.0454   22114328.7794
     -1458.7194      -1136.6644
  -4892870.35745  -3727130.86545  25052825.7954   25052825.1974
      1514.0314       1179.7654
  17279203.98646  13487662.62045  24569485.4434   24569484.1074
     -3658.1094      -2850.4754
 96  8 31  5 52  0.0060000  0  6G19G 3G31G18G27G29
 -10130463.76147  -7789225.79546  22864049.3184   22864048.6744
       119.0784         92.7884
  -2205101.12746  -1649638.56345  25042919.9364   25042919.7484
      -775.5944       -604.3594
  -5311137.22546  -4069569.99545  24265641.8814   24265641.0374
      1376.4844       1072.5854
  -8769436.07847  -6763741.45847  22122707.9904   22122706.8654
     -1476.4844      -1150.5074
  -4938261.06145  -3762500.20345  25044188.3184   25044187.5104
      1511.7344       1177.9754
  17389096.13546  13573292.84745  24590397.3574   24590395.9514
     -3668.2664      -2858.3894
 96  8 31  5 52 30.0060000  0  6G19G 3G31G18G27G29
 -10133946.14147  -7791939.32846  22863386.3574   22863385.7254
       112.8594         87.9424
  -2181565.38846  -1631299.01545  25047399.1234   25047397.9514
      -793.5474       -618.3484
  -5352244.23646  -4101601.41045  24257819.2484   24257818.8854
      1363.8284       1062.7234
  -8724889.31547  -6729029.70247  22131185.1234   22131183.8224
     -1493.5004      -1163.7664
  -4983590.69445  -3797821.97245  25035562.2714   25035561.9204
      1509.8754       1176.5264
  17499288.55446  13659157.04745  24611366.1934   24611364.5764
     -3678.1724      -2866.1084
 96  8 31  5 53  0.0060000  0  6G19G 3G31G18G27G29
 -10137251.65547  -7794515.05046  22862757.7954   22862757.0924
       107.2504         83.5714
  -2157503.68146  -1612549.62345  25051978.0924   25051977.3534
      -810.8444       -631.8264
  -5392981.27746  -4133344.53745  24250067.5534   24250066.8614
      1351.7194       1053.2874
  -8679848.90447  -6693933.27947  22139756.0614   22139754.9004
     -1509.4534      -1176.1974
  -5028867.48645  -3833102.57245  25026946.7404   25026946.5414
      1508.3284       1175.3214
  17609771.86546  13745247.92345  24632390.4754   24632389.4204
     -3687.6254      -2873.4744
 96  8 31  5 53 30.0060000  0  6G19G 3G31G18G27G29
 -10140364.55547  -7796940.67946  22862165.2714   22862164.3464
       100.5164         78.3244
  -2132905.85046  -1593382.46945  25056658.2874   25056657.9824
      -828.6254       -645.6824
  -5433327.90346  -4164783.44345  24242390.0294   24242389.3264
      1338.2504       1042.7924
  -8634308.75047  -6658447.45147  22148422.0374   22148420.9004
     -1526.2034      -1189.2494
  -5074075.38345  -3868329.49045  25018343.6784   25018343.1034
      1505.7504       1173.3124
  17720559.60346  13831576.00645  24653472.5684   24653471.6314
     -3698.0944      -2881.6314
 96  8 31  5 54  0.0060000  0  6G19G 3G31G18G27G29
 -10143292.63847  -7799222.29646  22861608.0454   22861607.2834
        94.6414         73.7464
  -2107792.17746  -1573813.36045  25061437.3504   25061437.1864
      -845.7974       -659.0624
  -5473287.63546  -4195920.88145  24234785.6784   24234784.8114
      1325.7194       1033.0284
  -8588289.74747  -6622588.48747  22157179.1314   22157178.0534
     -1541.7814      -1201.3884
  -5119224.32845  -3903510.45145  25009752.1074   25009751.6274
      1504.0314       1171.9724
  17831654.15046  13918143.16745  24674613.2254   24674611.7254
     -3708.1874      -2889.4974
 96  8 31  5 54 30.0060000  0  6G19G 3G31G18G27G29
 -10146034.74747  -7801358.99546  22861086.1864   22861085.4594
        88.1724         68.7054
  -2082160.17546  -1553840.36245  25066314.8894   25066313.8574
      -862.9844       -672.4554
  -5512873.00146  -4226766.59445  24227252.6544   24227252.2094
      1313.1884       1023.2634
  -8541795.64747  -6586359.33447  22166026.6314   22166025.4474
     -1557.8754      -1213.9294
  -5164318.49345  -3938648.75645  25001170.7874   25001169.8854
      1502.2194       1170.5604
  17943047.13946  14004942.87845  24695810.9904   24695809.3144
     -3717.8594      -2897.0334
 96  8 31  5 55  0.0060000  0  6G19G 3G31G18G27G29
 -10148573.95647  -7803337.59146  22860603.0294   22860602.2684
        81.1884         63.2634
  -2056006.93846  -1533461.20545  25071291.7254   25071290.8464
      -880.6414       -686.2134
  -5552067.70746  -4257307.90345  24219794.2094   24219793.5884
      1299.8134       1012.8414
  -8494813.55747  -6549749.92247  22174966.9364   22174965.6824
     -1574.3284      -1226.7494
  -5209350.94045  -3973738.95245  24992601.6464   24992601.3074
      1499.9844       1168.8194
  18054722.51546  14091962.63545  24717061.9904   24717060.7254
     -3727.1564      -2904.2784
 96  8 31  5 55 30.0060000  0  6G19G 3G31G18G27G29
 -10150921.29047  -7805166.67546  22860156.3814   22860155.5254
        74.8754         58.3444
  -2029329.58546  -1512673.64445  25076368.6394   25076367.8074
      -898.1724       -699.8744
  -5590869.46846  -4287543.02045  24212410.6704   24212410.0964
      1286.5784       1002.5284
  -8447339.71647  -6512757.32247  22184000.9364   22183999.7054
     -1590.8754      -1239.6434
  -5254322.28046  -4008781.54445  24984043.7564   24984043.3464
      1497.6414       1166.9934
  18166668.29246  14179193.09345  24738364.2644   24738363.1974
     -3736.3594      -2911.4494
 96  8 31  5 56  0.0060000  0  6G19G 3G31G18G27G29
 -10153075.14147  -7806844.99146  22859746.3654   22859745.8144
        68.4844         53.3644
  -2002121.74346  -1491472.71945  25081545.5844   25081545.6544
      -915.6874       -713.5234
  -5629271.18146  -4317466.41045  24205103.0764   24205102.0574
      1273.4384        992.2894
  -8399371.85947  -6475379.77947  22193129.0684   22193127.8034
     -1607.1724      -1252.3424
  -5299219.02146  -4043765.99445  24975499.9984   24975499.9044
      1495.2664       1165.1424
  18278890.65446  14266639.07245  24759719.5764   24759718.2874
     -3745.0944      -2918.2554
 96  8 31  5 56 30.0060000  0  6G19G 3G31G18G27G29
 -10155022.84747  -7808362.67846  22859375.8114   22859375.0494
        61.5944         47.9954
  -1974383.26546  -1469858.31845  25086824.1934   25086823.6894
      -933.4064       -727.3304
  -5667271.22446  -4347076.81245  24197872.0534   24197871.2564
      1259.9694        981.7944
  -8350904.94447  -6437613.36247  22202351.9904   22202350.7954
     -1623.7194      -1265.2354
  -5344037.43646  -4078689.40445  24966971.4434   24966970.4244
      1492.9844       1163.3644
  18391375.49946  14354289.57445  24781125.0534   24781123.6934
     -3753.6724      -2924.9394
 96  8 31  5 57  0.0060000  0  6G19G 3G31G18G27G29
 -10156771.49847  -7809725.25546  22859042.9124   22859042.3384
        54.8754         42.7604
  -1946110.85346  -1447827.86345  25092204.2564   25092203.3304
      -951.6564       -741.5504
  -5704858.88546  -4376365.88445  24190719.0374   24190717.8424
      1245.9064        970.8364
  -8301948.43847  -6399465.44047  22211668.2014   22211666.8184
     -1640.1724      -1278.0564
  -5388796.60346  -4113566.66445  24958453.8654   24958453.3504
      1490.8444       1161.6964
  18504114.32946  14442137.99545  24802578.3034   24802576.9674
     -3762.4534      -2931.7824
 96  8 31  5 57 30.0060000  0  6G19G 3G31G18G27G29
 -10158323.59947  -7810934.68046  22858747.6234   22858746.8614
        48.4534         37.7564
  -1917291.60346  -1425371.28645  25097688.4284   25097688.1114
      -969.6414       -755.5644
  -5742029.43746  -4405329.92845  24183645.7014   24183644.4364
      1232.1564        960.1224
  -8252499.51647  -6360933.82447  22221077.8504   22221076.5614
     -1656.2974      -1290.6214
  -5433494.15546  -4148395.91345  24949948.1314   24949947.6034
      1489.0164       1160.2724
  18617123.21146  14530196.84245  24824083.2254   24824082.3574
     -3771.3124      -2938.6854
 96  8 31  5 58  0.0060000  0  6G19G 3G31G18G27G29
 -10159659.72747  -7811975.80746  22858493.1544   22858492.5334
        40.9534         31.9124
  -1887916.61546  -1402481.68045  25103278.3344   25103277.3504
      -988.2814       -770.0894
  -5778770.20946  -4433959.08045  24176654.0294   24176653.2444
      1217.7034        948.8604
  -8202555.12947  -6322016.13147  22230582.0214   22230580.8264
     -1673.1414      -1303.7464
  -5478129.62046  -4183176.78745  24941454.6704   24941453.7444
      1486.9534       1158.6654
  18730399.28146  14618463.88445  24845638.5924   24845637.9004
     -3779.9844      -2945.4424
 96  8 31  5 58 30.0060000  0  6G19G 3G31G18G27G29
 -10160778.67647  -7812847.70846  22858280.3964   22858279.8344
        33.7814         26.3234
  -1857988.06846  -1379160.72945  25108973.4984   25108973.0414
     -1006.9844       -784.6634
  -5815088.25046  -4462258.82546  24169743.1004   24169742.6664
      1203.4534        937.7564
  -8152104.44547  -6282703.91947  22240182.3964   22240181.1194
     -1690.1874      -1317.0294
  -5522709.32446  -4217914.20145  24932971.2644   24932970.7484
      1485.1414       1157.2524
  18843932.27046  14706931.12945  24867243.2794   24867242.6824
     -3788.8284      -2952.3344
 96  8 31  5 59  0.0060000  0  6G19G 3G31G18G27G29
 -10161687.51547  -7813555.88546  22858107.3574   22858106.7484
        26.7504         20.8444
  -1827498.94346  -1355402.95645  25114775.6544   25114775.0574
     -1025.6874       -799.2374
  -5850970.44546  -4490218.95745  24162914.9514   24162914.2014
      1188.7034        926.2624
  -8101141.31247  -6242992.40147  22249880.3964   22249879.2954
     -1707.4224      -1330.4594
  -5567222.42346  -4252599.70745  24924500.6234   24924499.6624
      1482.1254       1154.9034
  18957731.09146  14795605.51345  24888898.7564   24888897.6544
     -3797.9694      -2959.4564
 96  8 31  5 59 30.0060000  0  6G19G 3G31G18G27G29
 -10162396.51147  -7814108.34046  22857972.4124   22857971.6274
        20.5314         15.9984
  -1796455.51446  -1331213.26745  25120682.7644   25120681.6974
     -1043.7344       -813.3004
  -5886417.23746  -4517839.81345  24156169.2874   24156168.5964
      1174.5314        915.2194
  -8049664.25247  -6202880.40447  22259675.9124   22259674.8464
     -1724.2814      -1343.5964
  -5611640.64846  -4287211.29045  24916048.3734   24916047.9984
      1479.2664       1152.6754
  19071808.48946  14884496.97645  24910607.0534   24910605.5064
     -3807.0474      -2966.5304
 96  8 31  6  0  0.0060000  0  6G19G 3G31G18G27G29
 -10162907.27847  -7814506.32946  22857875.4364   22857874.7214
        13.6414         10.6294
  -1764867.19446  -1306598.98045  25126693.9204   25126692.6894
     -1062.0624       -827.5814
  -5921432.15846  -4545124.14345  24149506.3184   24149505.1354
      1159.6884        903.6534
  -7997677.88047  -6162371.54547  22269568.8504   22269567.7014
     -1741.5474      -1357.0504
  -5655970.67446  -4321754.15645  24907612.4984   24907611.8774
      1475.9844       1150.1184
  19186162.38646  14973603.88245  24932367.5064   24932366.3814
     -3816.5944      -2973.9694
 96  8 31  6  0 30.0060000  0  7G19G 3G10G31G18G27G29
 -10163231.06747  -7814758.62646  22857813.7094   22857812.9594
         7.9694          6.2094
  -1732745.86946  -1281569.37345  25132806.3264   25132806.2794
     -1079.4694       -841.1444
    -57308.78654    -10473.69753  26213042.5454   26213044.2444
       956.6254        745.4224
  -5956010.53746  -4572068.31745  24142926.1154   24142925.2714
      1145.4064        892.5244
  -7945192.38847  -6121473.76947  22279556.5374   22279555.4714
     -1757.4224      -1369.4204
  -5700211.90446  -4356227.82545  24899193.2254   24899192.7684
      1473.4534       1148.1454
  19300796.67846  15062929.29045  24954181.9674   24954181.0064
     -3825.6874      -2981.0554
 96  8 31  6  1  0.0060000  0  7G19G 3G10G31G18G27G29
 -10163374.94847  -7814870.73146  22857786.3574   22857785.6894
         1.7814          1.3884
  -1700090.21446  -1256123.38945  25139020.3814   25139019.5494
     -1097.3444       -855.0734
    -85762.59444    -32645.47743  26207628.6464   26207627.8264
       940.4534        732.8214
  -5990147.90346  -4598668.84145  24136430.3654   24136429.3934
      1130.7664        881.1164
  -7892221.89447  -6080198.06547  22289636.5764   22289635.2994
     -1773.7814      -1382.1674
  -5744363.45446  -4390631.61745  24890791.8734   24890791.3114
      1470.3134       1145.6984
  19415712.97446  15152474.43645  24976050.0684   24976048.9434
     -3835.2664      -2988.5194
 96  8 31  6  1 30.0060000  0  7G19G 3G10G31G18G27G29
 -10163334.04947  -7814838.85546  22857794.2174   22857793.4324
        -4.5944         -3.5804
  -1666899.25546  -1230260.29745  25145336.2644   25145335.6194
     -1115.2814       -869.0504
   -113733.69544    -54441.10143  26202305.2874   26202307.8074
       924.4694        720.3654
  -6023855.91246  -4624934.79546  24130015.6704   24130014.8734
      1116.6094        870.0854
  -7838763.56947  -6038542.23547  22299809.1544   22299807.8894
     -1790.0164      -1394.8174
  -5788441.98246  -4424978.49645  24882403.6234   24882403.2714
      1468.5944       1144.3594
  19530910.62346  15242238.81045  24997971.2874   24997970.2564
     -3844.3594      -2995.6054
 96  8 31  6  2  0.0060000  0  7G19G 3G10G31G18G27G29
 -10163096.15047  -7814653.47346  22857839.2404   22857838.3034
       -11.0784         -8.6324
  -1633171.04346  -1203978.56145  25151754.8964   25151754.2874
     -1133.2344       -883.0404
   -141231.27544    -75867.74143  26197073.3504   26197075.2254
       908.6094        708.0074
  -6057142.45346  -4650872.33645  24123681.5064   24123680.7094
      1102.5004        859.0914
  -7784822.17747  -5996509.99047  22310073.9124   22310072.7524
     -1806.0944      -1407.3464
  -5832476.31346  -4459290.95445  24874024.0844   24874023.5924
      1466.9224       1143.0564
  19646366.30446  15332204.27745  25019941.7644   25019940.1234
     -3852.5314      -3001.9724
 96  8 31  6  2 30.0060000  0  7G19G 3G10G31G18G27G29
 -10162672.41347  -7814323.28846  22857919.9824   22857919.1154
       -17.1724        -13.3814
  -1598900.57746  -1177274.29845  25158276.0064   25158275.6784
     -1151.4844       -897.2614
   -168245.62844    -96917.89343  26191932.4674   26191932.7604
       892.4384        695.4064
  -6090003.87646  -4676478.62345  24117427.8034   24117427.2994
      1088.4384        848.1334
  -7730394.93447  -5954099.15847  22320430.9984   22320429.8734
     -1822.2974      -1419.9724
  -5876453.65546  -4493558.99345  24865655.8424   24865654.8464
      1465.0314       1141.5834
  19762070.91646  15422363.68845  25041959.9284   25041958.4864
     -3860.9064      -3008.4984
 96  8 31  6  3  0.0060000  0  7G19G 3G10G31G18G27G29
 -10162059.36547  -7813845.57946  22858036.6624   22858035.7604
       -23.7344        -18.4944
  -1564077.28846  -1150139.25445  25164902.7174   25164902.1544
     -1170.0164       -911.7004
   -194775.80844   -117590.73342  26186883.9204   26186885.7134
       876.4694        682.9634
  -6122444.58446  -4701757.08246  24111254.7404   24111253.6504
      1074.3134        837.1274
  -7675475.24647  -5911304.60947  22330882.0064   22330880.8114
     -1839.0624      -1433.0364
  -5920373.01646  -4527781.84745  24857298.0924   24857297.2954
      1462.9064       1139.9274
  19878021.87746  15512715.08345  25064024.1934   25064022.8114
     -3869.1564      -3014.9274
 96  8 31  6  3 30.0070000  0  7G19G 3G10G31G18G27G29
 -10161254.44947  -7813218.35846  22858189.8394   22858189.1124
       -30.0474        -23.4134
  -1528706.10546  -1122577.28545  25171633.5114   25171633.3704
     -1188.1724       -925.8484
   -220845.48144   -137904.74943  26181922.9404   26181922.8944
       861.1564        671.0314
  -6154471.06846  -4726712.76245  24105160.3084   24105159.5464
      1060.4694        826.3394
  -7620062.55047  -5868125.89147  22341426.4794   22341425.3904
     -1855.1564      -1445.5764
  -5964239.96546  -4561963.87445  24848950.5034   24848950.0694
      1461.1094       1138.5274
  19994211.22146  15603252.21645  25086134.5814   25086133.6444
     -3876.6874      -3020.7954
 96  8 31  6  4  0.0070000  0  7G19G 3G10G31G18G27G29
 -10160259.31647  -7812442.92946  22858379.1984   22858378.4364
       -36.1254        -28.1494
  -1492790.59046  -1094591.16445  25178467.9724   25178466.9404
     -1206.1874       -939.8864
   -246442.42344   -157850.39243  26177051.8234   26177051.9174
       845.1724        658.5754
  -6186072.52846  -4751337.25346  24099146.7694   24099145.7024
      1046.2034        815.2234
  -7564171.15047  -5824574.16147  22352062.5424   22352061.5694
     -1870.8594      -1457.8124
  -6008029.33346  -4596085.43745  24840617.7694   24840616.9254
      1458.1094       1136.1894
  20110627.48446  15693966.16845  25108287.8314   25108286.9404
     -3884.3444      -3026.7614
 96  8 31  6  4 30.0070000  0  8G19G 3G10G31G18G 2G27G29
 -10159082.37047  -7811525.83246  22858602.9954   22858602.2224
       -42.2814        -32.9464
  -1456326.49946  -1066177.57845  25185407.0654   25185406.6674
     -1224.5784       -954.2174
   -271554.08744   -177417.86343  26172273.2454   26172273.8434
       829.2504        646.1694
  -6217231.69946  -4775617.10546  24093217.3154   24093216.3784
      1031.3594        803.6574
  -7507804.97247  -5780652.47647  22362788.7144   22362787.6834
     -1886.5944      -1470.0734
    -62053.34144                  26411481.3704
      2137.3284
  -6051726.75846  -4630135.36345  24832302.4644   24832301.6904
      1455.4534       1134.1194
  20227280.69546  15784864.77345  25130485.8624   25130484.4334
     -3892.2814      -3032.9464
 96  8 31  6  5  0.0070000  0  8G19G 3G10G31G18G 2G27G29
 -10157704.64947  -7810452.28446  22858865.0504   22858864.2534
       -49.6724        -38.7054
  -1419296.72246  -1037323.19445  25192453.7144   25192452.5654
     -1244.1564       -969.4724
   -296184.97145   -196610.77842  26167585.9954   26167586.4874
       812.7194        633.2874
  -6247940.89546  -4799546.32445  24087373.6904   24087372.8234
      1015.5784        791.3604
  -7450960.72647  -5736358.26347  22373605.7064   22373604.6044
     -1903.2034      -1483.0154
   -126078.52044                  26399298.1984
      2130.8284
  -6095343.58446  -4664122.47445  24824002.5424   24824002.2024
      1452.1724       1131.5634
  20344171.69546  15875948.64945  25152729.7374   25152728.7654
     -3900.6724      -3039.4854
 96  8 31  6  5 30.0070000  0  8G19G 3G10G31G18G 2G27G29
 -10156116.45447  -7809214.72246  22859167.4644   22859166.5154
       -56.1724        -43.7704
  -1381693.98446  -1008022.35545  25199609.3004   25199608.3974
     -1262.7504       -983.9614
   -320327.53345   -215423.13143  26162991.5814   26162990.9604
       796.5944        620.7224
  -6278171.66046  -4823102.75345  24081620.6834   24081619.6284
       999.5314        778.8564
  -7393630.41347  -5691685.29947  22384515.0894   22384514.1514
     -1918.9534      -1495.2884
   -189918.25144    -46423.62453  26387150.0734   26387150.6714
      2125.0944       1655.9174
  -6138874.40746  -4698042.58845  24815718.5114   24815718.0654
      1449.8594       1129.7614
  20461310.60346  15967225.71545  25175020.6984   25175019.3864
     -3908.6564      -3045.7064
 96  8 31  6  6  0.0070000  0  8G19G 3G10G31G18G 2G27G29
 -10154324.86047  -7807818.66646  22859508.5424   22859507.7574
       -63.3914        -49.3954
  -1343527.93546   -978282.57045  25206871.9724   25206871.1634
     -1281.7664       -998.7784
   -343977.84644   -233851.91643  26158491.5654   26158492.6794
       780.1414        607.9024
  -6307894.95246  -4846263.74745  24075964.6984   24075963.5504
       981.8284        765.0614
  -7335810.34847  -5646630.71047  22395518.0734   22395516.8784
     -1935.8284      -1508.4374
   -253578.10845    -96028.70343  26375035.2764   26375035.2654
      2118.9064       1651.0964
  -6182327.64946  -4731902.23645  24807449.8784   24807448.7294
      1446.9844       1127.5204
  20578700.26546  16058698.17545  25197359.0654   25197358.2694
     -3917.4534      -3052.5614
 96  8 31  6  6 30.0070000  0  8G19G 3G10G31G18G 2G27G29
 -10152320.85447  -7806257.10946  22859889.7224   22859888.8664
       -70.3594        -54.8254
  -1304792.67446   -948099.23045  25214242.9174   25214242.4364
     -1300.5004      -1013.3774
   -367149.13045   -251907.46642  26154082.6044   26154084.0114
       764.6724        595.8484
  -6337088.95046  -4869012.29545  24070409.1514   24070408.1554
       964.5944        751.6314
  -7277479.25047  -5601177.91747  22406618.0264   22406616.9014
     -1952.9064      -1521.7454
   -317062.80245   -145497.28843  26362954.5264   26362954.4094
      2113.2814       1646.7134
  -6225709.17946  -4765706.00645  24799194.6834   24799194.3194
      1445.1254       1126.0714
  20696348.69246  16150372.25345  25219747.0654   25219745.7184
     -3925.8594      -3059.1114
 96  8 31  6  7  0.0070000  0  8G19G 3G10G31G18G 2G27G29
 -10150102.46247  -7804528.48846  22860311.7064   22860310.9564
       -77.5624        -60.4384
  -1265503.23445   -917484.08345  25221719.5654   25221719.0504
     -1318.6094      -1027.4884
   -389853.42245   -269599.12343  26149761.9094   26149763.0694
       748.7664        583.4544
  -6365776.96446  -4891366.56946  24064949.9094   24064948.7964
       947.6094        738.3974
  -7218636.32647  -5555326.29547  22417815.5344   22417814.6444
     -1970.0784      -1535.1264
   -380372.54345   -194829.55544  26350906.9174   26350906.4254
      2107.2814       1642.0374
  -6269030.57446  -4799462.92245  24790950.4094   24790949.9404
      1442.7034       1124.1844
  20814253.72645  16242246.29245  25242183.3944   25242182.1984
     -3934.6414      -3065.9544
 96  8 31  6  7 30.0070000  0  8G19G 3G10G31G18G 2G27G29
 -10147673.18647  -7802635.54546  22860774.1514   22860773.4954
       -84.0314        -65.4794
  -1225691.27145   -886461.75845  25229295.2534   25229294.3624
     -1335.1564      -1040.3814
   -412080.51545   -286918.88743  26145532.2064   26145532.5584
       733.3444        571.4374
  -6393957.48646  -4913325.40845  24059587.3704   24059586.3744
       931.6884        725.9904
  -7159278.34947  -5509073.33147  22429110.9794   22429109.8664
     -1986.8284      -1548.1784
   -443511.13545   -244028.45143  26338893.1364   26338892.2454
      2102.1724       1638.0564
  -6312277.02546  -4833161.44145  24782721.3154   24782720.6944
      1440.7974       1122.6994
  20932423.48045  16334326.60445  25264670.4794   25264669.6124
     -3942.9064      -3072.3944
 96  8 31  6  8  0.0070000  0  8G19G 3G10G31G18G 2G27G29
 -10145050.19047  -7800591.64446  22861273.4644   22861272.7264
       -90.8444        -70.7874
  -1185376.48245   -855047.63145  25236966.7924   25236966.5114
     -1352.7194      -1054.0674
   -433848.86945   -303881.20943  26141389.5114   26141389.8274
       717.7664        559.2984
  -6421676.38546  -4934924.52146  24054312.5424   24054311.8274
       916.3444        714.0344
  -7099412.35747  -5462424.50847  22440503.1284   22440502.0854
     -2004.2034      -1561.7174
   -506486.48345   -293100.13243  26326908.5194   26326909.0114
      2096.1564       1633.3694
  -6355460.78646  -4866811.09845  24774503.7454   24774503.1364
      1437.9844       1120.5074
  21050837.81845  16426597.50445  25287204.1444   25287203.3114
     -3951.4224      -3079.0304
 96  8 31  6  8 30.0070000  0  8G19G 3G10G31G18G 2G27G29
 -10142225.14247  -7798390.31046  22861810.7614   22861810.1164
       -97.4694        -75.9504
  -1144521.27045   -823212.39145  25244741.0734   25244740.7804
     -1370.8124      -1068.1664
   -455142.01445   -320473.26443  26137337.3084   26137337.7294
       701.7344        546.8064
  -6448947.12946  -4956174.44345  24049123.2454   24049122.8354
       901.7974        702.6994
  -7039025.14147  -5415369.54147  22451994.4174   22451993.3744
     -2021.4694      -1575.1704
   -569284.50745   -342033.65643  26314958.6514   26314959.9764
      2090.5314       1628.9854
  -6398558.29146  -4900393.55645  24766302.1594   24766301.5734
      1435.3134       1118.4254
  21169508.39145  16519068.07645  25309786.0894   25309784.9054
     -3959.9064      -3085.6414
 96  8 31  6  9  0.0070000  0  8G19G 3G10G31G18G 2G27G29
 -10139194.32047  -7796028.61846  22862387.4874   22862386.8784
      -104.5164        -81.4414
  -1103124.74046   -790955.34145  25252619.0654   25252618.3044
     -1389.0624      -1082.3864
   -475940.01545   -336679.48343  26133379.8474   26133380.0584
       684.6254        533.4744
  -6475773.85246  -4977078.36346  24044018.2224   24044017.5654
       886.3284        690.6454
  -6978122.49447  -5367912.93547  22463583.8474   22463582.7224
     -2038.8284      -1588.6974
   -631910.55445   -390833.14643  26303040.6204   26303041.3944
      2084.4844       1624.2744
  -6441569.50446  -4933908.76845  24758117.5344   24758117.2064
      1431.8754       1115.7474
  21288434.46045  16611737.71945  25332417.0654   25332416.3154
     -3968.5474      -3092.3744
 96  8 31  6  9 30.0070000  0  8G19G 3G10G31G18G 2G27G29
 -10135958.98347  -7793507.56746  22863003.4564   22863002.8824
      -111.2814        -86.7134
  -1061173.06845   -758265.72345  25260601.8624   25260600.7844
     -1408.2034      -1097.3014
   -496226.28445   -352486.96443  26129519.4334   26129519.8314
       667.5944        520.2034
  -6502132.47846  -4997617.53646  24039002.3944   24039002.2414
       870.7194        678.4824
  -6916704.35347  -5320054.65547  22475271.3944   22475270.4214
     -2055.8444      -1601.9564
   -694367.95245   -439501.22943  26291155.8004   26291155.1904
      2079.0784       1620.0614
  -6484479.03446  -4967344.75345  24749952.2294   24749951.8314
      1428.6724       1113.2514
  21407611.69345  16704603.06645  25355095.4174   25355094.4684
     -3976.7194      -3098.7424
 96  8 31  6 10  0.0070000  0  8G19G 3G10G31G18G 2G27G29
 -10132522.48647  -7790829.77346  22863657.1904   22863656.5934
      -118.0314        -91.9724
  -1018627.52945   -725113.33445  25268698.2534   25268698.1364
     -1428.2974      -1112.9594
   -515997.64545   -367893.20543  26125757.1124   26125757.1014
       650.2664        506.7004
  -6528012.03646  -5017783.41046  24034077.6204   24034076.6124
       854.2034        665.6134
  -6854782.56747  -5271803.92247  22487054.7144   22487053.5894
     -2072.3284      -1614.8014
   -756657.58445   -488038.57444  26279302.1594   26279302.7804
      2073.5944       1615.7874
  -6527286.19846  -5000700.96745  24741806.3394   24741805.5424
      1424.8444       1110.2684
  21527036.88745  16797661.66345  25377821.3004   25377820.1284
     -3985.1094      -3105.2804
 96  8 31  6 10 30.0070000  0  8G19G 3G10G31G18G 2G27G29
 -10128877.99947  -7787989.91346  22864350.7614   22864350.0464
      -124.8124        -97.2564
   -975490.35745   -691499.96345  25276906.9094   25276907.2724
     -1447.1094      -1127.6184
   -535243.55945   -382890.02043  26122094.6284   26122094.9564
       633.1094        493.3324
  -6553386.65646  -5037555.82246  24029248.9954   24029248.2224
       837.5784        652.6584
  -6792373.18647  -5223173.25947  22498930.5654   22498929.5114
     -2088.0314      -1627.0374
   -818799.59445   -536460.92643  26267477.6204   26267478.3114
      2069.2974       1612.4394
  -6569982.46746  -5033970.76845  24733681.4174   24733680.9134
      1421.7344       1107.8454
  21646705.37045  16890909.78945  25400593.5194   25400593.8234
     -3992.5784      -3111.1004
 96  8 31  6 11  0.0070000  0  8G19G 3G10G31G18G 2G27G29
 -10125019.93947  -7784983.62646  22865085.0504   22865084.2654
      -132.2974       -103.0884
   -931791.44145   -657448.84145  25285222.6204   25285221.6474
     -1466.1564      -1142.4594
   -553972.16745   -397483.72243  26118530.8474   26118530.0614
       615.6254        479.7084
  -6578250.74846  -5056930.42546  24024517.5504   24024516.4834
       820.0634        639.0104
  -6729489.98747  -5174173.36947  22510897.1754   22510896.1084
     -2104.1874      -1639.6274
   -880794.11145   -584768.32444  26255679.8784   26255679.4334
      2063.6414       1608.0324
  -6612575.39546  -5067160.04345  24725576.2144   24725575.1474
      1417.7664       1104.7524
  21766600.28845  16984334.40745  25423409.0734   25423407.5264
     -4000.4224      -3117.2124
 96  8 31  6 11 30.0070000  0  8G19G 3G10G31G18G 2G27G29
 -10120939.99347  -7781804.44246  22865861.2694   22865860.5304
      -139.7194       -108.8724
   -887519.61545   -622951.30445  25293646.9564   25293647.6364
     -1485.3124      -1157.3864
   -572180.00545   -411671.64743  26115065.5504   26115063.7104
       598.3594        466.2544
  -6602590.18546  -5075896.20046  24019885.8784   24019884.7654
       802.5784        625.3864
  -6666117.56047  -5124792.26647  22522956.2614   22522955.2294
     -2120.7194      -1652.5084
   -942620.25745   -632944.51343  26243914.5734   26243914.3154
      2058.0474       1603.6734
  -6655052.67746  -5100259.20545  24717493.1124   24717492.2334
      1414.1884       1101.9644
  21886736.85645  17077947.30645  25446270.1984   25446268.9564
     -4008.7034      -3123.6654
 96  8 31  6 12  0.0070000  0  8G19G 3G10G31G18G 2G27G29
 -10116647.12647  -7778459.34546  22866678.1444   22866677.4174
      -147.0314       -114.5704
   -842697.94845   -588025.31245  25302176.3004   25302176.1124
     -1503.1254      -1171.2664
   -589885.24145   -425467.94143  26111696.5114   26111695.4914
       581.4694        453.0934
  -6626417.65646  -5094463.03946  24015352.0814   24015351.3194
       785.4844        612.0664
  -6602253.21347  -5075027.83747  22535109.3394   22535108.2264
     -2137.5004      -1665.5844
  -1004277.16645   -680988.84843  26232181.2454   26232181.4444
      2051.9224       1598.9004
  -6697438.13846  -5133286.82945  24709427.2614   24709426.6634
      1411.0634       1099.5294
  22007109.28845  17171743.99245  25469176.4874   25469175.4684
     -4016.6254      -3129.8384
 96  8 31  6 12 30.0070000  0  8G19G 3G10G31G18G 2G27G29
 -10112128.93947  -7774938.67146  22867538.5584   22867537.7264
      -154.2194       -120.1704
   -797344.39845   -552684.88245  25310807.1124   25310806.8434
     -1520.5624      -1184.8544
   -607083.27745   -438868.98343  26108423.9404   26108424.3624
       565.0004        440.2604
  -6649735.84646  -5112633.03946  24010914.3864   24010913.6944
       768.9534        599.1844
  -6537871.84647  -5024860.56147  22547360.5504   22547359.5894
     -2154.6254      -1678.9294
  -1065743.38445   -728884.58443  26220485.4174   26220486.2024
      2045.4064       1593.8234
  -6739737.39046  -5166247.26945  24701378.1754   24701377.7064
      1408.8284       1097.7884
  22127725.42745  17265730.57645  25492129.2374   25492128.9794
     -4024.5784      -3136.0354
 96  8 31  6 13  0.0070000  0  8G19G 3G10G31G18G 2G27G29
 -10107401.08547  -7771254.61546  22868437.6984   22868436.8084
      -161.0474       -125.4914
   -751462.38945   -516932.65545  25319537.8314   25319536.7764
     -1538.4374      -1198.7824
   -623785.00745   -451883.31642  26105245.2844   26105246.8544
       548.3134        427.2564
  -6672555.21746  -5130414.35146  24006572.0194   24006570.8004
       752.2504        586.1694
  -6472979.18647  -4974294.85847  22559709.2144   22559708.1714
     -2171.7194      -1692.2484
  -1126999.49145   -776616.58343  26208828.5974   26208828.8084
      2038.3134       1588.2954
  -6781970.09546  -5199155.85945  24693341.4174   24693340.5264
      1406.5314       1095.9984
  22248585.26145  17359907.05845  25515127.9874   25515127.1204
     -4032.8754      -3142.5004
 96  8 31  6 13 30.0070000  0  8G19G 3G10G31G18G 2G27G29
 -10102479.03947  -7767419.24646  22869374.2294   22869373.3744
      -167.1724       -130.2644
   -705048.48445   -480765.97945  25328370.2064   25328369.7264
     -1555.9844      -1212.4554
   -639983.99745   -464505.87943  26102163.3864   26102162.5894
       531.4694        414.1314
  -6694879.53646  -5147809.89346  24002324.0194   24002322.9874
       735.9694        573.4824
  -6407577.76847  -4923332.73147  22572154.8544   22572153.9054
     -2188.3124      -1705.1794
  -1188055.27045   -824192.48444  26197209.5894   26197210.0694
      2031.8754       1583.2794
  -6824134.64646  -5232011.33045  24685317.5034   24685317.0114
      1404.4064       1094.3434
  22369688.79745  17454273.42245  25538173.1044   25538172.0264
     -4040.7194      -3148.6124
 96  8 31  6 14  0.0070000  0  8G19G 3G10G31G18G 2G27G29
 -10097360.01547  -7763430.38346  22870348.4174   22870347.7844
      -174.0624       -135.6334
   -658100.55245   -444183.16445  25337303.9954   25337303.5614
     -1574.0474      -1226.5304
   -655669.51345   -476728.37443  26099178.2534   26099176.9174
       514.1414        400.6294
  -6716711.08346  -5164821.47546  23998169.6984   23998168.6324
       719.4224        560.5884
  -6341677.27947  -4871981.71347  22584695.2694   22584694.1204
     -2204.9374      -1718.1334
  -1248900.11645   -871604.05544  26185631.6364   26185631.6364
      2024.3914       1577.4474
  -6866226.75246  -5264810.36045  24677307.8234   24677307.4834
      1401.6564       1092.2004
  22491029.62845  17548824.70444  25561263.4014   25561262.4644
     -4048.6874      -3154.8214
 96  8 31  6 14 30.0070000  0  8G19G 3G10G31G18G 2G27G29
 -10092039.97347  -7759284.88546  22871360.8704   22871359.9794
      -180.9224       -140.9784
   -610603.14745   -407172.19145  25346342.7764   25346342.1204
     -1592.7814      -1241.1284
   -670838.32045   -488548.20543  26096292.1754   26096293.2064
       496.7034        387.0414
  -6738042.10446  -5181443.02646  23994110.3474   23994109.1634
       702.2504        547.2084
  -6275290.36747  -4820251.66547  22597328.5894   22597327.2764
     -2221.1094      -1730.7354
  -1309533.70845   -918851.00345  26174093.1904   26174093.2494
      2017.5314       1572.1024
  -6908234.45646  -5297543.62345  24669314.2144   24669313.2414
      1398.3914       1089.6554
  22612604.17445  17643558.10445  25584398.5114   25584397.2694
     -4056.5314      -3160.9334
 96  8 31  6 15  0.0070000  0  8G19G 3G10G31G18G 2G27G29
 -10086517.36847  -7754981.54446  22872411.6984   22872410.8664
      -187.3124       -145.9584
   -562545.19245   -369724.42345  25355487.6284   25355487.4524
     -1610.9694      -1255.3004
   -685477.95145   -499955.69344  26093506.2224   26093507.3824
       479.3914        373.5514
  -6758853.03646  -5197659.31746  23990149.9484   23990149.0114
       685.2194        533.9374
  -6208418.45347  -4768143.69947  22610053.7534   22610052.4644
     -2237.0004      -1743.1174
  -1369968.02145   -965942.64945  26162592.8004   26162593.1514
      2011.6884       1567.5494
  -6950136.30546  -5330194.39145  24661340.5894   24661339.3704
      1395.1094       1087.0984
  22734406.14745  17738468.71545  25607576.0894   25607574.9524
     -4063.4844      -3166.3514
 96  8 31  6 15 30.0070000  0  8G19G 3G10G31G18G 2G27G29
 -10080785.55347  -7750515.18646  22873502.6674   22873501.7654
      -194.8124       -151.8024
   -513931.82345   -331843.86645  25364738.1444   25364738.0504
     -1629.8284      -1269.9964
   -699595.78845   -510956.59843  26090819.4254   26090821.1124
       461.8594        359.8904
  -6779144.12746  -5213470.53646  23986289.1124   23986288.0584
       667.6094        520.2154
  -6141055.73447  -4715653.27047  22622872.5894   22622871.3824
     -2253.7344      -1756.1574
  -1430223.35945  -1012894.84745  26151126.6124   26151126.0854
      2005.2814       1562.5574
  -6991932.79146  -5362763.06845  24653386.8704   24653386.2144
      1391.5314       1084.3104
  22856425.41945  17833548.65644  25630796.0894   25630795.3274
     -4071.0944      -3172.2814
 96  8 31  6 16  0.0070000  0  8G19G 3G10G31G18G 2G27G29
 -10074825.77947  -7745871.19446  22874636.5114   22874635.7614
      -202.5624       -157.8414
   -464750.53245   -293520.78745  25374097.2454   25374097.0224
     -1649.0314      -1284.9594
   -713198.14545   -521555.81943  26088231.0264   26088232.3044
       444.7504        346.5584
  -6798915.16946  -5228876.52746  23982526.5194   23982525.3824
       650.2504        506.6884
  -6073191.47647  -4662772.04147  22635786.7454   22635785.5384
     -2270.6724      -1769.3554
  -1490290.53045  -1059700.41245  26139696.6364   26139696.8944
      1999.1564       1557.7844
  -7033628.77946  -5395253.42945  24645452.0814   24645451.6124
      1388.0784       1081.6194
  22978668.74745  17928803.16344  25654058.0114   25654058.3624
     -4078.5624      -3178.1014
 96  8 31  6 16 30.0070000  0  8G19G 3G10G31G18G 2G27G29
 -10068642.19947  -7741052.80746  22875813.0264   22875812.2414
      -210.0004       -163.6364
   -414998.83545   -254753.19645  25383565.3004   25383564.2804
     -1667.8754      -1299.6434
   -726283.99945   -531752.60343  26085740.4094   26085741.4054
       427.3754        333.0194
  -6818159.07246  -5243871.75746  23978864.3154   23978863.3434
       632.5004        492.8574
  -6004822.14847  -4609497.25747  22648797.0114   22648795.8274
     -2287.5784      -1782.5284
  -1550183.59045  -1106370.32044  26128299.0814   26128299.4914
      1993.4694       1553.3524
  -7075221.03946  -5427662.96945  24637537.4794   24637536.6124
      1384.5784       1078.8924
  23101137.67045  18024233.48445  25677363.0034   25677361.8434
     -4086.2194      -3184.0674
 96  8 31  6 17  0.0070000  0  8G19G 3G10G31G18G 2G27G29
 -10062222.56647  -7736050.48746  22877034.8864   22877034.2534
      -218.2194       -170.0414
   -364672.47145   -215537.84245  25393141.4334   25393140.9874
     -1687.4224      -1314.8744
   -738832.52845   -541530.66043  26083352.6284   26083350.8474
       409.1564        318.8234
  -6836864.30346  -5258447.25146  23975304.8234   23975303.8974
       614.3134        478.6854
  -5935935.26647  -4555819.18147  22661905.6204   22661904.4134
     -2304.9694      -1796.0804
  -1609884.48945  -1152890.50145  26116938.5264   26116937.9874
      1986.4844       1547.9104
  -7116710.20746  -5459992.17445  24629642.5504   24629641.8824
      1381.2664       1076.3114
  23223844.28545  18119849.01945  25700713.4954   25700712.2064
     -4094.5004      -3190.5194
 96  8 31  6 17 30.0070000  0  8G19G 3G10G31G18G 2G27G29
 -10055570.83547  -7730867.31446  22878300.4404   22878299.6904
      -225.5474       -175.7514
   -313775.03845   -175877.49945  25402826.9954   25402826.6674
     -1706.0624      -1329.3994
   -750855.30145   -550899.03843  26081064.6204   26081064.9604
       391.8754        305.3574
  -6855039.86846  -5272610.00446  23971846.2534   23971845.4794
       597.0784        465.2564
  -5866548.59147  -4501751.65547  22675109.6444   22675108.6124
     -2321.0944      -1808.6444
  -1669387.04445  -1199256.10745  26105615.9724   26105615.3744
      1980.0164       1542.8694
  -7158124.45446  -5492263.00445  24621761.5504   24621761.2224
      1379.4224       1074.8744
  23346787.65345  18215649.03845  25724108.6514   25724108.0074
     -4101.9694      -3196.3394
 96  8 31  6 18  0.0070000  0  8G19G 3G10G31G18G 2G27G29
 -10048685.29347  -7725501.95246  22879610.7694   22879610.0074
      -233.3284       -181.8144
   -262305.72745   -135771.53045  25412621.3084   25412621.1084
     -1725.0784      -1344.2174
   -762342.47845   -559850.09943  26078878.8234   26078878.8354
       374.0164        291.4414
  -6872674.29246  -5286351.10146  23968490.5654   23968489.0544
       578.4534        450.7434
  -5796670.96047  -4447301.57147  22688406.5114   22688405.5614
     -2337.3444      -1821.3074
  -1728679.97145  -1245458.35545  26094332.6754   26094333.3314
      1972.9694       1537.3784
  -7199464.26046  -5524475.82445  24613894.7844   24613893.9524
      1376.7344       1072.7804
  23469965.26445  18311631.56643  25747548.9094   25747548.4294
     -4109.7504      -3202.4034
 96  8 31  6 18 30.0070000  0  8G19G 3G10G31G18G 2G27G29
 -10041570.95147  -7719958.30346  22880964.6444   22880963.8234
      -241.2344       -187.9754
   -210270.66045    -95224.72645  25422523.4484   25422523.2144
     -1744.1094      -1359.0464
   -773291.92345   -568382.09143  26076795.4174   26076796.4014
       355.9064        277.3304
  -6889734.80746  -5299644.99146  23965243.9954   23965242.6124
       558.8284        435.4504
  -5726304.35947  -4392470.46347  22701797.0734   22701796.0074
     -2353.9844      -1834.2744
  -1787758.82045  -1291493.82445  26083090.2694   26083090.7724
      1965.4224       1531.4984
  -7240726.09046  -5556627.88945  24606042.8394   24606042.5694
      1373.9064       1070.5764
  23593378.05245  18407797.35543  25771033.7144   25771032.4014
     -4117.9064      -3208.7584
 96  8 31  6 19  0.0070000  0  9G19G 3G10G31G18G 2G27G29G16
 -10034215.45547  -7714226.73546  22882364.4174   22882363.8084
      -249.0624       -194.0754
   -157663.35545    -54232.00845  25432534.2924   25432534.5504
     -1762.9844      -1373.7544
   -783704.74645   -576495.99043  26074813.3004   26074814.2964
       338.4534        263.7304
  -6906215.10146  -5312486.76746  23962107.7844   23962106.7654
       539.9224        420.7184
  -5655434.46347  -4337247.17547  22715283.0584   22715281.9914
     -2370.5784      -1847.2044
  -1846610.84645  -1337352.53845  26071891.0974   26071891.7764
      1958.2194       1525.8854
  -7281907.64146  -5588717.39245  24598205.9874   24598205.8704
      1371.5634       1068.7504
  23717025.60145  18504146.07845  25794562.9484   25794561.6594
     -4125.3124      -3214.5294
     -9363.05354                  26419366.7144
       848.5314
 96  8 31  6 19 30.0070000  0  9G19G 3G10G31G18G 2G27G29G16
 -10026627.78247  -7708314.25246  22883808.2764   22883807.4914
      -256.5784       -199.9314
   -104496.91445    -12803.60845  25442651.8154   25442651.1244
     -1781.2974      -1388.0244
   -793595.42445   -584202.96243  26072931.6124   26072932.0224
       321.0314        250.1544
  -6922129.36846  -5324887.48046  23959079.6284   23959078.7844
       521.2504        406.1694
  -5584061.73447  -4281632.08447  22728864.8704   22728863.7924
     -2387.5004      -1860.3904
  -1905255.39045  -1383049.57245  26060730.5114   26060731.2614
      1951.5164       1520.6624
  -7323008.24646  -5620743.81445  24590384.9174   24590384.5424
      1368.5634       1066.4124
  23840901.94945  18600673.08844  25818135.7454   25818135.0654
     -4132.9534      -3220.4834
    -34590.36344                  26414566.1284
       833.3914
 96  8 31  6 20  0.0070000  0  9G19G 3G10G31G18G 2G27G29G16
 -10018822.31947  -7702232.06146  22885293.5974   22885292.8234
      -263.3284       -205.1914
    -50783.74045     29050.83645  25452872.7694   25452872.0654
     -1799.3284      -1402.0744
   -802966.11145   -591504.79843  26071148.6364   26071149.0464
       303.9534        236.8474
  -6937488.85246  -5336855.88946  23956156.6204   23956155.5654
       503.0474        391.9854
  -5512181.54747  -4225621.56147  22742543.1514   22742542.2614
     -2404.3594      -1873.5274
  -1963700.31845  -1428591.06645  26049609.5814   26049609.1474
      1945.1564       1515.7064
  -7364010.06246  -5652693.27645  24582582.8624   24582582.3234
      1365.1884       1063.7824
  23965004.16345  18697376.09843  25841752.4404   25841751.3274
     -4140.4224      -3226.3034
    -59356.51344    -15410.48853  26409853.3314   26409855.8154
       817.7504        637.2084
 96  8 31  6 20 30.0070000  0  9G19G 3G10G31G18G 2G27G29G16
 -10010828.21747  -7696002.89146  22886814.8394   22886814.1364
      -269.7974       -210.2314
      3462.92345     71320.96845  25463195.7064   25463194.3114
     -1817.2344      -1416.0274
   -811823.62145   -598406.75943  26069462.6514   26069461.8784
       286.3754        223.1494
  -6952317.49546  -5348410.65946  23953334.9954   23953333.9294
       485.3914        378.2264
  -5439793.00047  -4169214.91847  22756318.4484   22756317.4294
     -2421.5944      -1886.9564
  -2021958.89145  -1473987.33045  26038523.4404   26038523.7574
      1938.6724       1510.6534
  -7404910.15546  -5684563.46946  24574799.5114   24574799.1834
      1361.2034       1060.6784
  24089327.86145  18794251.68645  25865409.7224   25865408.1044
     -4147.9534      -3232.1714
    -83642.19344    -34334.36043  26405231.8544   26405232.3114
       801.0634        624.2054
 96  8 31  6 21  0.0070000  0  9G19G 3G10G31G18G 2G27G29G16
 -10002636.84447  -7689620.00146  22888373.5584   22888372.9134
      -276.5164       -215.4674
     58240.55346    114004.84645  25473619.9334   25473619.6284
     -1834.8754      -1429.7734
   -820151.32245   -604895.86443  26067878.5584   26067879.1794
       268.6254        209.3184
  -6966620.94346  -5359556.19546  23950613.3234   23950611.9874
       467.7504        364.4814
  -5366895.02247  -4112411.31647  22770190.4724   22770189.4294
     -2438.4064      -1900.0574
  -2080023.18545  -1519232.23345  26027474.7764   26027473.8154
      1932.0474       1505.4914
  -7445690.10646  -5716340.03845  24567039.5584   24567038.7264
      1357.1094       1057.4884
  24213873.90145  18891300.52845  25889110.2064   25889108.5894
     -4155.4844      -3238.0404
   -107426.47344    -52867.56843  26400705.9174   26400707.8864
       784.2504        611.1044
 96  8 31  6 21 30.0070000  0  9G19G 3G10G31G18G 2G27G29G16
  -9994251.93947  -7683086.30746  22889969.1984   22889968.4134
      -282.6254       -220.2274
    113547.65345    157101.30945  25484144.1834   25484143.3154
     -1852.4064      -1443.4334
   -827957.60645   -610978.67544  26066392.8314   26066392.9364
       251.6414        196.0844
  -6980388.11946  -5370283.84946  23947993.0734   23947991.9954
       449.9694        350.6254
  -5293505.27447  -4055224.50947  22784155.9644   22784155.0734
     -2454.2664      -1912.4154
  -2137894.85645  -1564327.03245  26016461.4724   26016461.4014
      1925.9064       1500.7064
  -7486339.78846  -5748015.10746  24559304.0894   24559303.6794
      1352.7344       1054.0794
  24338648.92045  18988527.80544  25912854.3084   25912853.6404
     -4162.7974      -3243.7384
   -130703.04844    -71005.10342  26396276.7294   26396276.3194
       767.3134        597.9064
 96  8 31  6 22  0.0070000  0  9G19G 3G10G31G18G 2G27G29G16
  -9985676.75747  -7676404.34846  22891600.9874   22891600.2614
      -289.1254       -225.2924
    169392.66945    200616.90845  25494771.0264   25494770.5934
     -1870.6874      -1457.6794
   -835250.85945   -616661.70643  26065005.1444   26065004.3944
       234.4694        182.7034
  -6993610.04746  -5380586.63346  23945477.5264   23945476.4724
       431.3284        336.1004
  -5219637.42647  -3997665.15647  22798212.6124   22798211.5464
     -2470.3594      -1924.9554
  -2195568.53645  -1609267.55044  26005486.3704   26005485.3974
      1918.9064       1495.2524
  -7526852.48746  -5779583.42645  24551594.9724   24551594.0694
      1348.0634       1050.4384
  24463636.49245  19085920.67643  25936638.7614   25936638.5034
     -4169.8444      -3249.2294
   -153464.72744    -88741.49943  26391944.8004   26391944.8354
       750.1254        584.5134
 96  8 31  6 22 30.0070000  0  9G19G 3G10G31G18G 2G27G29G16
  -9976890.37547  -7669557.81546  22893272.9644   22893272.5074
      -297.0004       -231.4294
    225794.23245    244566.19745  25505503.7224   25505503.4874
     -1889.5784      -1472.3994
   -842019.33645   -621935.81243  26063716.8544   26063715.4724
       216.6724        168.8354
  -7006257.60146  -5390441.85746  23943070.2224   23943069.2494
       411.5784        320.7104
  -5145280.27347  -3939724.53247  22812362.4094   22812361.3544
     -2486.8444      -1937.8004
  -2253027.14045  -1654040.48045  25994551.7454   25994551.4404
      1911.4534       1489.4444
  -7567218.79046  -5811037.67446  24543913.4794   24543912.4134
      1342.9534       1046.4574
  24588840.80645  19183482.47543  25960463.9644   25960463.5774
     -4177.1724      -3254.9394
   -175716.82344   -106080.75643  26387710.9484   26387712.0614
       733.1724        571.3034
 96  8 31  6 23  0.0070000  0  9G19G 3G10G31G18G 2G27G29G16
  -9967861.50047  -7662522.32146  22894990.9404   22894990.4484
      -305.0314       -237.6874
    282764.62845    288958.71845  25516345.1444   25516344.9214
     -1908.5784      -1487.2044
   -848266.91745   -626804.05843  26062527.9484   26062528.7924
       199.6564        155.5764
  -7018321.10046  -5399841.96646  23940774.7614   23940773.5424
       392.5474        305.8814
  -5070434.26847  -3881402.97747  22826605.1044   22826604.1554
     -2503.1254      -1950.4874
  -2310257.35445  -1698635.45645  25983662.4564   25983662.0344
      1903.7034       1483.4054
  -7607450.22446  -5842386.82946  24536257.4874   24536256.3974
      1339.0784       1043.4384
  24714258.51345  19281210.50943  25984330.1594   25984329.2224
     -4184.0784      -3260.3214
   -197468.08944   -123029.77742  26383571.6284   26383571.4874
       716.7194        558.4824
 96  8 31  6 23 30.0070000  0  9G19G 3G10G31G18G 2G27G29G16
  -9958595.43747  -7655302.00646  22896754.2764   22896753.5734
      -312.8284       -243.7624
    340306.47545    333796.54045  25527294.8154   25527294.1474
     -1927.5164      -1501.9604
   -853995.35945   -631267.76443  26061438.0114   26061436.3114
       181.9694        141.7944
  -7029815.27746  -5408798.45746  23938587.5424   23938586.2414
       373.8754        291.3314
  -4995088.72647  -3822692.18047  22840942.8784   22840941.9404
     -2520.0474      -1963.6734
  -2367255.42545  -1743049.51645  25972815.3474   25972815.3234
      1896.0004       1477.4034
  -7647565.68846  -5873645.62146  24528623.9404   24528623.3904
      1335.3284       1040.5154
  24839882.75845  19379099.52744  26008235.6204   26008233.7224
     -4190.7664      -3265.5324
   -218714.56844   -139585.45443  26379528.8544   26379530.5074
       699.7664        545.2724
 96  8 31  6 24  0.0070000  0  9G19G 3G10G31G18G 2G27G29G16
  -9949095.24947  -7647899.26146  22898562.1834   22898561.3864
      -320.8444       -250.0084
    398409.12245    379071.32545  25538351.0264   25538351.2964
     -1946.1254      -1516.4614
   -859180.22745   -635307.90944  26060451.3154   26060451.3624
       163.4694        127.3784
  -7040755.39646  -5417323.20646  23936505.4644   23936504.3744
       355.2664        276.8304
  -4919227.85547  -3763579.81747  22855378.6284   22855377.5504
     -2537.5944      -1977.3464
  -2424013.92745  -1787276.90545  25962014.8704   25962014.4484
      1887.7974       1471.0114
  -7687580.48946  -5904825.97246  24521009.5504   24521008.8824
      1332.2664       1038.1294
  24965700.99445  19477139.70243  26032178.2294   26032177.4444
     -4197.4224      -3270.7184
   -239460.06644   -155750.76242  26375579.8544   26375580.2414
       683.0634        532.2564
 96  8 31  6 24 30.0070000  0  9G19G 3G10G31G18G 2G27G29G16
  -9939345.39347  -7640301.96546  22900417.8004   22900416.8274
      -329.2504       -256.5584
    457065.11945    424777.30845  25549513.1204   25549512.4764
     -1964.3124      -1530.6334
   -863811.01545   -638916.32643  26059570.1834   26059569.2694
       145.2664        113.1944
  -7051142.60346  -5425417.12346  23934528.7844   23934527.8234
       337.1094        262.6834
  -4842846.08447  -3704061.56547  22869913.5814   22869912.5384
     -2554.5624      -1990.5684
  -2480533.96945  -1831318.48345  25951259.5894   25951259.5074
      1880.1094       1465.0204
  -7727513.60146  -5935942.66446  24513410.4014   24513409.3474
      1329.8914       1036.2784
  25091720.73845  19575336.85944  26056158.9094   26056159.0734
     -4203.8594      -3275.7354
   -259706.19845   -171526.94343  26371727.5894   26371728.1164
       666.3754        519.2534
 96  8 31  6 25  0.0070000  0  9G19G 3G10G31G18G 2G27G29G16
  -9929352.81547  -7632515.53946  22902319.2694   22902318.3664
      -336.9844       -262.5854
    516266.65745    470908.37645  25560778.5424   25560778.5654
     -1982.5164      -1544.8174
   -867901.95645   -642104.06343  26058791.5424   26058791.4254
       127.2034         99.1194
  -7060991.88246  -5433091.87246  23932654.6754   23932653.5504
       319.2664        248.7784
  -4765960.18447  -3644150.48147  22884544.4404   22884543.1404
     -2571.3124      -2003.6204
  -2536820.25745  -1875177.92245  25940548.4644   25940548.9564
      1872.4064       1459.0184
  -7767385.26346  -5967011.47346  24505823.0584   24505822.3664
      1327.8754       1034.7084
  25217931.05745  19673682.54943  26080175.9174   26080173.6904
     -4210.2974      -3280.7514
   -279445.12644   -186907.91542  26367972.0034   26367972.2724
       649.4694        506.0804
 96  8 31  6 25 30.0070000  0  9G19G 3G10G31G18G 2G27G29G16
  -9919123.08647  -7624544.31346  22904265.5654   22904264.9334
      -345.1094       -268.9164
    576023.03745    517471.80645  25572150.0974   25572149.1124
     -2001.3284      -1559.4764
   -871441.97345   -644862.52243  26058117.7614   26058117.1404
       108.6724         84.6794
  -7070287.36946  -5440335.09746  23930885.8084   23930884.6944
       300.3914        234.0714
  -4688567.83047  -3583844.76347  22899271.8474   22899270.7574
     -2588.0474      -2016.6604
  -2592880.96245  -1918861.57945  25929880.4094   25929879.5304
      1865.0474       1453.2834
  -7807169.00846  -5998011.77946  24498252.0424   24498251.1404
      1324.4064       1032.0054
  25344346.16345  19772187.78743  26104231.9564   26104230.5854
     -4217.4374      -3286.3154
   -298665.95844   -201885.17143  26364313.9644   26364314.6674
       632.0004        492.4684
 96  8 31  6 26  0.0070000  0  9G19G 3G10G31G18G 2G27G29G16
  -9908653.73347  -7616386.37346  22906257.8784   22906257.2574
      -352.9844       -275.0534
    636337.29145    564469.91845  25583627.4484   25583627.2374
     -2019.7664      -1573.8434
   -874438.92345   -647197.80643  26057547.6754   26057548.2724
        91.2034         71.0674
  -7079016.69146  -5447137.15246  23929224.6984   23929223.4334
       281.2504        219.1564
  -4610688.43147  -3523159.52647  22914091.9724   22914090.7654
     -2603.9534      -2029.0544
  -2648732.98345  -1962382.61945  25919252.1124   25919251.7614
      1858.5164       1448.1944
  -7846856.31146  -6028936.93646  24490699.9794   24490699.3234
      1321.2194       1029.5214
  25470965.57645  19870852.24043  26128326.9404   26128326.0154
     -4224.1094      -3291.5144
   -317376.72744   -216464.93042  26360753.3084   26360753.8114
       615.1094        479.3064
 96  8 31  6 26 30.0070000  0  9G19G 3G10G31G18G 2G27G29G16
  -9897951.08247  -7608046.63446  22908294.5264   22908293.7534
      -360.3124       -280.7634
    697213.65645    611906.06645  25595211.8704   25595211.9524
     -2038.5624      -1588.4904
   -876915.40045   -649127.51843  26057076.1754   26057075.4604
        73.8134         57.5164
  -7087162.76346  -5453484.72946  23927674.4174   23927673.3274
       261.7814        203.9854
  -4532331.01547  -3462101.81147  22929002.6904   22929001.7654
     -2619.7974      -2041.4004
  -2704388.18445  -2005750.29545  25908661.0344   25908660.3194
      1851.8444       1442.9954
  -7886439.35246  -6059780.84946  24483167.5814   24483166.9604
      1317.5164       1026.6364
  25597792.61245  19969678.46943  26152461.1754   26152460.1554
     -4231.0004      -3296.8834
   -335569.79544   -230641.35543  26357291.4174   26357292.2614
       597.7814        465.8044
 96  8 31  6 27  0.0070000  0  9G19G 3G10G31G18G 2G27G29G16
  -9887036.28547  -7599541.59546  22910371.6444   22910370.8354
      -367.4694       -286.3394
    758646.76545    659776.03345  25606902.1204   25606901.0424
     -2056.9374      -1602.8084
   -878856.38645   -650639.97142  26056706.9484   26056708.9874
        55.3134         43.1014
  -7094719.01246  -5459372.69546  23926236.6754   23926235.5034
       241.9384        188.5234
  -4453495.88847  -3400671.84747  22944004.5734   22944003.4364
     -2635.9694      -2054.0024
  -2759844.82545  -2048963.25145  25898107.9094   25898108.2724
      1845.2504       1437.8574
  -7925900.54246  -6090529.81646  24475658.2694   24475657.5304
      1313.0314       1023.1414
  25724829.85845  20068668.52743  26176635.4094   26176634.0854
     -4238.2664      -3302.5454
   -353244.20644   -244413.57043  26353926.9174   26353928.8514
       580.5314        452.3624
 96  8 31  6 27 30.0070000  0  9G19G 3G10G31G18G 2G27G29G16
  -9875907.01747  -7590869.42946  22912489.3784   22912488.7454
      -374.7344       -292.0014
    820616.28545    708063.98245  25618695.0504   25618693.7374
     -2074.4224      -1616.4334
   -880236.10145   -651715.05344  26056444.6124   26056443.9794
        36.3914         28.3564
  -7101680.59546  -5464797.29346  23924911.6834   23924910.3824
       222.0944        173.0604
  -4374174.53247  -3338863.00847  22959098.9254   22959097.8824
     -2652.3754      -2066.7864
  -2815106.58445  -2092024.36645  25887592.2844   25887593.0584
      1838.4534       1432.5614
  -7965228.96346  -6121175.31746  24468174.6204   24468174.0224
      1308.9064       1019.9274
  25852072.32345  20167818.47643  26200849.3944   26200849.1834
     -4244.7194      -3307.5734
   -370402.76444   -257783.87843  26350662.8394   26350663.8824
       563.1414        438.8114
 96  8 31  6 28  0.0070000  0  9G19G 3G10G31G18G 2G27G29G16
  -9864553.18947  -7582022.29046  22914649.8084   22914648.9764
      -382.3444       -297.9304
    883104.48245    756756.08745  25630585.9874   25630585.4724
     -2091.6094      -1629.8254
   -881039.40045   -652341.01643  26056291.1984   26056290.8004
        17.0784         13.3084
  -7108044.44646  -5469756.12346  23923700.8704   23923699.6754
       202.0944        157.4764
  -4294352.84047  -3276664.30647  22974288.3394   22974287.1204
     -2669.3284      -2079.9964
  -2870148.82545  -2134914.41645  25877118.5344   25877118.8394
      1830.7504       1426.5584
  -8004443.01346  -6151731.70446  24460712.0654   24460711.6554
      1305.1414       1016.9934
  25979507.43445  20267118.54043  26225098.9094   26225098.9094
     -4251.1564      -3312.5894
   -387033.88944   -270743.20643  26347497.9794   26347497.6754
       545.3754        424.9684
 96  8 31  6 28 30.0070000  0  9G19G 3G10G31G18G 2G27G29G16
  -9852974.12947  -7572999.64546  22916853.3154   22916852.4134
      -389.7504       -303.7014
    946104.88845    805847.32645  25642573.9644   25642573.7184
     -2108.4224      -1642.9264
   -881262.45545   -652514.83543  26056248.7064   26056248.7764
        -2.2344         -1.7414
  -7113825.66146  -5474260.95146  23922601.0424   23922599.8234
       183.2974        142.8294
  -4214027.47947  -3214073.12547  22989574.1364   22989572.9764
     -2685.7664      -2092.8044
  -2924955.09245  -2177620.57745  25866688.7064   25866688.1084
      1822.8754       1420.4224
  -8043548.83646  -6182203.76246  24453270.5814   24453269.7844
      1301.8134       1014.3994
  26107131.09245  20366565.52743  26249385.3784   26249383.6324
     -4257.2034      -3317.3014
   -403137.16944   -283291.19742  26344433.7064   26344434.2924
       528.2504        411.6234
 96  8 31  6 29  0.0070000  0  9G19G 3G10G31G18G 2G27G29G16
  -9841156.07547  -7563790.76646  22919102.4334   22919101.4484
      -398.2194       -310.3004
   1009612.04845    855333.42945  25654659.5034   25654659.1044
     -2125.5624      -1656.2824
   -880908.58545   -652239.06144  26056315.7614   26056316.5464
       -21.1564        -16.4854
  -7119036.98846  -5478321.71446  23921609.0734   23921607.9724
       164.1724        127.9264
  -4133201.52747  -3151091.87747  23004954.5504   23004953.2724
     -2702.6874      -2105.9904
  -2979523.49645  -2220141.40545  25856304.4794   25856304.1984
      1814.8594       1414.1764
  -8082545.59446  -6212590.82546  24445849.9334   24445849.2884
      1297.9534       1011.3924
  26234940.52945  20466157.28843  26273706.2764   26273704.9874
     -4263.4374      -3322.1594
   -418728.24645   -295440.06743  26341466.9174   26341465.7574
       511.0634        398.2314
 96  8 31  6 29 30.0070000  0  9G19G 3G10G31G18G 2G27G29G16
  -9829084.26647  -7554384.15946  22921399.7844   22921398.8584
      -406.4534       -316.7174
   1073645.58445    905229.69345  25666843.9174   25666843.8584
     -2143.3754      -1670.1624
   -880006.86445   -651536.42143  26056488.5194   26056489.5734
       -38.6254        -30.0974
  -7123684.50546  -5481943.13946  23920724.4174   23920723.3624
       145.6884        113.5234
  -4051868.75947  -3087715.70747  23020431.8004   23020430.8154
     -2719.2974      -2118.9334
  -3033847.16345  -2262471.53545  25845967.4484   25845967.4134
      1806.8754       1407.9554
  -8121432.79146  -6242892.52146  24438449.7294   24438449.2964
      1294.7664       1008.9084
  26362934.84045  20565893.09243  26298063.0344   26298063.4214
     -4269.5624      -3326.9324
   -433806.26445   -307189.16542  26338597.4404   26338596.3624
       494.2344        385.1184
 96  8 31  6 30  0.0070000  0  9G19G 3G10G31G18G 2G27G29G16
  -9816764.73247  -7544784.51146  22923743.5894   22923742.7574
      -414.6874       -323.1334
   1138230.55245    955555.64645  25679133.9174   25679133.8584
     -2162.4534      -1685.0284
   -878583.02645   -650426.93943  26056759.3314   26056759.7884
       -56.1254        -43.7344
  -7127771.07546  -5485127.46446  23919947.1204   23919945.9724
       126.7194         98.7424
  -3970045.98247  -3023957.71147  23036001.8784   23036000.6944
     -2735.4844      -2131.5464
  -3087931.10745  -2304614.84845  25835675.1364   25835676.0264
      1798.8134       1401.6724
  -8160213.16046  -6273110.97046  24431070.1594   24431069.3864
      1290.5784       1005.6454
  26491133.78845  20665788.36843  26322458.8474   26322457.6044
     -4277.0624      -3332.7764
   -448377.51045   -318543.38442  26335824.8544   26335825.4054
       477.3444        371.9564
 96  8 31  6 30 30.0070000  0  9G19G 3G10G31G18G 2G27G29G16
  -9804209.28547  -7535001.04246  22926132.9254   22926131.9994
      -422.4064       -329.1484
   1203391.11645   1006330.11245  25691534.8864   25691534.1124
     -2181.7344      -1700.0534
   -876641.46545   -648914.03244  26057128.8234   26057129.0344
       -73.2814        -57.1024
  -7131283.82346  -5487864.65646  23919278.4874   23919277.3514
       107.2344         83.5594
  -3887745.51447  -2959827.48647  23051663.2764   23051662.1864
     -2751.2194      -2143.8074
  -3141783.19245  -2346577.48945  25825427.6514   25825427.6404
      1791.3134       1395.8284
  -8198866.99046  -6303230.81546  24423714.5504   24423713.6944
      1286.3754       1002.3704
  26619556.19145  20765857.74343  26346896.3004   26346895.7024
     -4284.3914      -3338.4864
   -462445.06845   -329505.11641  26333147.7694   26333148.8474
       460.3914        358.7464
